[[{"header":{"parameterUnit":"m.s-1","parameterCategory":1,"la1":30.6,"la2":28.766,"lo1":-90.7593,"lo2":-88.6598,"dx":0.0162,"dy":0.0183,"nx":116,"ny":114,"refTime":"2022-12-09T06:00:00:Z","depth":0,"parameterNumber":2,"parameterNumberName":"U-component_of_WINDS"},"data":[0.0,0.0,0.0,0.0,0.0,0.0,0.0,0.0,0.0,0.0,0.0,0.0,0.0,0.0,0.0,0.0,0.0,0.0,0.0,0.0,0.0,0.0,0.0,0.0,0.0,0.0,0.0,0.0,0.0,0.0,0.0,0.0,0.0,0.0,0.0,0.0,0.0,0.0,0.0,0.0,0.0,0.0,0.0,0.0,0.0,0.0,0.0,0.0,0.0,0.0,0.0,0.0,0.0,0.0,0.0,0.0,0.0,0.0,0.0,0.0,0.0,0.0,0.0,0.0,0.0,0.0,0.0,0.0,0.0,0.0,0.0,0.0,0.0,0.0,0.0,0.0,0.0,0.0,0.0,0.0,0.0,0.0,0.0,0.0,0.0,0.0,0.0,0.0,0.0,0.0,0.0,0.0,0.0,0.0,0.0,0.0,0.0,0.0,0.0,0.0,0.0,0.0,0.0,0.0,0.0,0.0,0.0,0.0,0.0,0.0,0.0,0.0,0.0,0.0,0.0,0.0,0.0,0.0,0.0,0.0,0.0,0.0,0.0,0.0,0.0,0.0,0.0,0.0,0.0,0.0,0.0,0.0,0.0,0.0,0.0,0.0,0.0,0.0,0.0,0.0,0.0,0.0,0.0,0.0,0.0,0.0,0.0,0.0,0.0,0.0,0.0,0.0,0.0,0.0,0.0,0.0,0.0,0.0,0.0,0.0,0.0,0.0,0.0,0.0,0.0,0.0,0.0,0.0,0.0,0.0,0.0,0.0,0.0,0.0,0.0,0.0,0.0,0.0,0.0,0.0,0.0,0.0,0.0,0.0,0.0,0.0,0.0,0.0,0.0,0.0,0.0,0.0,0.0,0.0,0.0,0.0,0.0,0.0,0.0,0.0,0.0,0.0,0.0,0.0,0.0,0.0,0.0,0.0,0.0,0.0,0.0,0.0,0.0,0.0,0.0,0.0,0.0,0.0,0.0,0.0,0.0,0.0,0.0,0.0,0.0,0.0,0.0,0.0,0.0,0.0,0.0,0.0,0.0,0.0,0.0,0.0,0.0,0.0,0.0,0.0,0.0,0.0,0.0,0.0,0.0,0.0,0.0,0.0,0.0,0.0,0.0,0.0,0.0,0.0,0.0,0.0,0.0,0.0,0.0,0.0,0.0,0.0,0.0,0.0,0.0,0.0,0.0,0.0,0.0,0.0,0.0,0.0,0.0,0.0,0.0,0.0,0.0,0.0,0.0,0.0,0.0,0.0,0.0,0.0,0.0,0.0,0.0,0.0,0.0,0.0,0.0,0.0,0.0,0.0,0.0,0.0,0.0,0.0,0.0,0.0,0.0,0.0,0.0,0.0,0.0,0.0,0.0,0.0,0.0,0.0,0.0,0.0,0.0,0.0,0.0,0.0,0.0,0.0,0.0,0.0,0.0,0.0,0.0,0.0,0.0,0.0,0.0,0.0,0.0,0.0,0.0,0.0,0.0,0.0,0.0,0.0,0.0,0.0,0.0,0.0,0.0,0.0,0.0,0.0,0.0,0.0,0.0,0.0,0.0,0.0,0.0,0.0,0.0,0.0,0.0,0.0,0.0,0.0,0.0,0.0,0.0,0.0,0.0,0.0,0.0,0.0,0.0,0.0,0.0,0.0,0.0,0.0,0.0,0.0,0.0,0.0,0.0,0.0,0.0,0.0,0.0,0.0,0.0,0.0,0.0,0.0,0.0,0.0,0.0,0.0,0.0,0.0,0.0,0.0,0.0,0.0,0.0,0.0,0.0,0.0,0.0,0.0,0.0,0.0,0.0,0.0,0.0,0.0,0.0,0.0,0.0,0.0,0.0,0.0,0.0,0.0,0.0,0.0,0.0,0.0,0.0,0.0,0.0,0.0,0.0,0.0,0.0,0.0,0.0,0.0,0.0,0.0,0.0,0.0,0.0,0.0,0.0,0.0,0.0,0.0,0.0,0.0,0.0,0.0,0.0,0.0,0.0,0.0,0.0,0.0,0.0,0.0,0.0,0.0,0.0,0.0,0.0,0.0,0.0,0.0,0.0,0.0,0.0,0.0,0.0,0.0,0.0,0.0,0.0,0.0,0.0,0.0,0.0,0.0,0.0,0.0,0.0,0.0,0.0,0.0,0.0,0.0,0.0,0.0,0.0,0.0,0.0,0.0,0.0,0.0,0.0,0.0,0.0,0.0,0.0,0.0,0.0,0.0,0.0,0.0,0.0,0.0,0.0,0.0,0.0,0.0,0.0,0.0,0.0,0.0,0.0,0.0,0.0,0.0,0.0,0.0,0.0,0.0,0.0,0.0,0.0,0.0,0.0,0.0,0.0,0.0,0.0,0.0,0.0,0.0,0.0,0.0,0.0,0.0,0.0,0.0,0.0,0.0,0.0,0.0,0.0,0.0,0.0,0.0,0.0,0.0,0.0,0.0,0.0,0.0,0.0,0.0,0.0,0.0,0.0,0.0,0.0,0.0,0.0,0.0,0.0,0.0,0.0,0.0,0.0,0.0,0.0,0.0,0.0,0.0,0.0,0.0,0.0,0.0,0.0,0.0,0.0,0.0,0.0,0.0,0.0,0.0,0.0,0.0,0.0,0.0,0.0,0.0,0.0,0.0,0.0,0.0,0.0,0.0,0.0,0.0,0.0,0.0,0.0,0.0,0.0,0.0,0.0,0.0,0.0,0.0,0.0,0.0,0.0,0.0,0.0,0.0,0.0,0.0,0.0,0.0,0.0,0.0,0.0,0.0,0.0,0.0,0.0,0.0,0.0,0.0,0.0,0.0,0.0,0.0,0.0,0.0,0.0,0.0,0.0,0.0,0.0,0.0,0.0,0.0,0.0,0.0,0.0,0.0,0.0,0.0,0.0,0.0,0.0,0.0,0.0,0.0,0.0,0.0,0.0,0.0,0.0,0.0,0.0,0.0,0.0,0.0,0.0,0.0,0.0,0.0,0.0,0.0,0.0,0.0,0.0,0.0,0.0,0.0,0.0,0.0,0.0,0.0,0.0,0.0,0.0,0.0,0.0,0.0,0.0,0.0,0.0,0.0,0.0,0.0,0.0,0.0,0.0,0.0,0.0,0.0,0.0,0.0,0.0,0.0,0.0,0.0,0.0,0.0,0.0,0.0,0.0,0.0,0.0,0.0,0.0,0.0,0.0,0.0,0.0,0.0,0.0,0.0,0.0,0.0,0.0,0.0,0.0,0.0,0.0,0.0,0.0,0.0,0.0,0.0,0.0,0.0,0.0,0.0,0.0,0.0,0.0,0.0,0.0,0.0,0.0,0.0,0.0,0.0,0.0,0.0,0.0,0.0,0.0,0.0,0.0,0.0,0.0,0.0,0.0,0.0,0.0,0.0,0.0,0.0,0.0,0.0,0.0,0.0,0.0,0.0,0.0,0.0,0.0,0.0,0.0,0.0,0.0,0.0,0.0,0.0,0.0,0.0,0.0,0.0,0.0,0.0,0.0,0.0,0.0,0.0,0.0,0.0,0.0,0.0,0.0,0.0,0.0,0.0,0.0,0.0,0.0,0.0,0.0,0.0,0.0,0.0,0.0,0.0,0.0,0.0,0.0,0.0,0.0,0.0,0.0,0.0,0.0,0.0,0.0,0.0,0.0,0.0,0.0,0.0,0.0,0.0,0.0,0.0,0.0,0.0,0.0,0.0,0.0,0.0,0.0,0.0,0.0,0.0,0.0,0.0,0.0,0.0,0.0,0.0,0.0,0.0,0.0,0.0,0.0,0.0,0.0,0.0,0.0,0.0,0.0,0.0,0.0,0.0,0.0,0.0,0.0,0.0,0.0,0.0,0.0,0.0,0.0,0.0,0.0,0.0,0.0,0.0,0.0,0.0,0.0,0.0,0.0,0.0,0.0,0.0,0.0,0.0,0.0,0.0,0.0,0.0,0.0,0.0,0.0,0.0,0.0,0.0,0.0,0.0,0.0,0.0,0.0,0.0,0.0,0.0,0.0,0.0,0.0,0.0,0.0,0.0,0.0,0.0,0.0,0.0,0.0,0.0,0.0,0.0,0.0,0.0,0.0,0.0,0.0,0.0,0.0,0.0,0.0,0.0,0.0,0.0,0.0,0.0,0.0,0.0,0.0,0.0,0.0,0.0,0.0,0.0,0.0,0.0,0.0,0.0,0.0,0.0,0.0,0.0,0.0,0.0,0.0,0.0,0.0,0.0,0.0,0.0,0.0,0.0,0.0,0.0,0.0,0.0,0.0,0.0,0.0,0.0,0.0,0.0,0.0,0.0,0.0,0.0,0.0,0.0,0.0,0.0,0.0,0.0,0.0,0.0,0.0,0.0,0.0,0.0,0.0,0.0,0.0,0.0,0.0,0.0,0.0,0.0,0.0,0.0,0.0,0.0,0.0,0.0,0.0,0.0,0.0,0.0,0.0,0.0,0.0,0.0,0.0,0.0,0.0,0.0,0.0,0.0,0.0,0.0,0.0,0.0,0.0,0.0,0.0,0.0,0.0,0.0,0.0,0.0,0.0,0.0,0.0,0.0,0.0,0.0,0.0,0.0,0.0,0.0,0.0,0.0,0.0,0.0,0.0,0.0,0.0,0.0,0.0,0.0,0.0,0.0,0.0,0.0,0.0,0.0,0.0,0.0,0.0,0.0,0.0,0.0,0.0,0.0,0.0,0.0,0.0,0.0,0.0,0.0,0.0,0.0,0.0,0.0,0.0,0.0,0.0,0.0,0.0,0.0,0.0,0.0,0.0,0.0,0.0,0.0,0.0,0.0,0.0,0.0,0.0,0.0,0.0,0.0,0.0,0.0,0.0,0.0,0.0,0.0,0.0,0.0,0.0,0.0,0.0,0.0,0.0,0.0,0.0,0.0,0.0,0.0,0.0,0.0,0.0,0.0,0.0,0.0,0.0,0.0,0.0,0.0,0.0,0.0,0.0,0.0,0.0,0.0,0.0,0.0,0.0,0.0,0.0,0.0,0.0,0.0,0.0,0.0,0.0,0.0,0.0,0.0,0.0,0.0,0.0,0.0,0.0,0.0,0.0,0.0,0.0,0.0,0.0,0.0,0.0,0.0,0.0,0.0,0.0,0.0,0.0,0.0,0.0,0.0,0.0,0.0,0.0,0.0,0.0,0.0,0.0,0.0,0.0,0.0,0.0,0.0,0.0,0.0,0.0,0.0,0.0,0.0,0.0,0.0,0.0,0.0,0.0,0.0,0.0,0.0,0.0,0.0,0.0,0.0,0.0,0.0,0.0,0.0,0.0,0.0,0.0,0.0,0.0,0.0,0.0,0.0,0.0,0.0,0.0,0.0,0.0,0.0,0.0,0.0,0.0,0.0,0.0,0.0,0.0,0.0,0.0,0.0,0.0,0.0,0.0,0.0,0.0,0.0,0.0,0.0,0.0,0.0,0.0,0.0,0.0,0.0,0.0,0.0,0.0,0.0,0.0,0.0,0.0,0.0,0.0,0.0,0.0,0.0,0.0,0.0,0.0,0.0,0.0,0.0,0.0,0.0,0.0,0.0,0.0,0.0,0.0,0.0,0.0,0.0,0.0,0.0,0.0,0.0,0.0,0.0,0.0,0.0,0.0,0.0,0.0,0.0,0.0,0.0,0.0,0.0,0.0,0.0,0.0,0.0,0.0,0.0,0.0,0.0,0.0,0.0,0.0,0.0,0.0,0.0,0.0,0.0,0.0,0.0,0.0,0.0,0.0,0.0,0.0,0.0,0.0,0.0,0.0,0.0,0.0,0.0,0.0,0.0,0.0,0.0,0.0,0.0,0.0,0.0,0.0,0.0,0.0,0.0,0.0,0.0,0.0,0.0,0.0,0.0,0.0,0.0,0.0,0.0,0.0,0.0,0.0,0.0,0.0,0.0,0.0,0.0,0.0,0.0,0.0,0.0,0.0,0.0,0.0,0.0,0.0,0.0,0.0,0.0,0.0,0.0,0.0,0.0,0.0,0.0,0.0,0.0,0.0,0.0,0.0,0.0,0.0,0.0,0.0,0.0,0.0,0.0,0.0,0.0,0.0,0.0,0.0,0.0,0.0,0.0,0.0,0.0,0.0,0.0,0.0,0.0,0.0,0.0,0.0,0.0,0.0,0.0,0.0,0.0,0.0,0.0,0.3881,0.0,0.0,0.0,0.0,0.0,0.0,0.0,0.0,0.0,0.0,0.0,0.0,0.0,0.0,0.0,0.0,0.0,0.0,0.0,0.0,0.0,0.0,0.0,0.0,0.0,0.0,0.0,0.0,0.0,0.0,0.0,0.0,0.0,0.0,0.0,0.0,0.0,-0.0865,-0.0865,-0.4097,-0.5454,-0.5006,-0.4062,-0.261,-0.0822,0.0,0.0,0.0,0.0,0.0,0.0,0.0,0.0,0.0,0.0,0.0,0.0,0.0,0.0,0.0,0.0,0.0,0.0,0.0,0.0,0.0,0.0,0.0,0.0,0.0,0.0,0.0,0.0,0.0,0.0,0.0,0.0,0.0,0.0,0.0,0.0,0.0,0.0,0.0,0.0,0.0,0.0,0.0,0.0,0.0,0.0,0.0,0.0,0.0,0.0,0.0,0.0,0.0,0.0,0.0,0.0,0.0,0.0,0.0,0.0,0.0,0.0,0.0,0.0,0.0,0.0,0.0,0.0,0.0,0.0,0.0,0.3675,0.0,0.0,0.0,0.0,0.0,0.0,0.0,0.0,0.0,0.0,0.0,0.0,0.0,0.0,0.0,0.0,0.0,0.0,0.0,0.0,0.0,-0.0231,-0.0827,-0.0885,-0.077,-0.0463,-0.0432,-0.0293,-0.0018,0.0,0.0,0.0,0.0,0.0,-0.0156,-0.1136,-0.2359,-0.3815,-0.892,-0.9977,-0.7213,-0.7405,-0.5798,-0.2716,-0.2606,0.0,0.0,0.0,0.0,0.0,0.0,0.0,0.0,0.0,0.0,0.0,0.0,0.0,0.0,0.0,0.0,0.0,0.0,0.0,0.0,0.0,0.0,0.0,0.0,0.0,0.0,0.0,0.0,0.0,0.0,0.0,0.0,0.0,0.0,0.0,0.0,0.0,0.0,0.0,0.0,0.0,0.0,0.0,0.0,0.0,0.0,0.0,0.0,0.0,0.0,0.0,0.0,0.0,0.0,0.0,0.0,0.0,0.0,0.0,0.0,0.0,0.0,0.0,0.0765,0.0877,-0.0508,0.0863,0.1894,0.26,0.2683,0.3209,0.3972,0.0,0.0,0.0,0.0,0.0,0.0,0.0,0.0,0.0,0.0,0.0,0.0,0.0,0.0,0.0,0.0,0.0,0.0,0.0,0.0,-0.1135,-0.4097,-0.4424,-0.381,-0.2294,-0.212,-0.15,-0.0091,0.0,0.0,0.0,0.0,-0.0244,-0.077,-0.0936,-0.4574,-1.1869,-1.0552,-0.9653,-0.9188,-0.8103,-0.7271,-0.6702,-0.6184,-0.5348,-0.4152,0.0,0.0,0.0,0.0,0.0,0.0,0.0,0.0,0.0,0.0,0.0,0.0,0.0,0.0,0.0,0.0,0.0,0.0,0.0,0.0,0.0,0.0,0.0,0.0,0.0,0.0,0.0,0.0,0.0,0.0,0.0,0.0,0.0,0.0,0.0,0.0,0.0,0.0,0.0,0.0,0.0,-0.1547,-0.0869,0.0,0.0,0.0,0.0,0.0,0.0,0.0,0.0,0.0,0.0,0.0,0.0,0.0,0.4478,0.4433,0.277,0.1723,0.1307,0.0104,-0.0729,-0.1129,0.0676,0.2196,0.3448,0.3283,0.0,0.3804,0.4565,0.0,0.0,0.0,0.0,0.0,0.0,0.0,0.0,0.0,0.0,0.0,0.0,0.0,0.0,0.0,0.0,0.0,0.0,0.0,0.0,0.0,-0.7902,-0.7598,-0.6828,-0.6746,-0.5576,-0.2868,-0.1005,0.0,0.0,-0.0937,-0.1582,-0.1851,-0.5845,-0.9892,-1.3901,-1.2025,-1.1503,-1.2223,-1.1446,-1.0676,-0.9958,-0.9493,-0.8249,-0.6398,-0.4388,0.0,0.0,0.0,0.0,0.0,0.0,0.0,0.0,0.0,0.0,0.0,0.0,0.0,0.0,0.0,0.0,0.0,0.0,0.0,0.0,0.0,0.0,0.0,0.0,0.0,0.0,0.0,0.0,0.0,0.0,0.0,0.0,0.0,0.0,0.0,0.0,0.0,0.0,0.0,0.1427,-0.0181,-0.0827,-0.0798,-0.0592,0.0,0.0,0.0,0.0,0.0,0.0,0.0,0.0,0.0,0.0173,0.1973,0.3151,0.3559,0.4332,0.4677,0.4659,0.2585,-0.0042,-0.3046,-0.1358,0.0131,0.1403,0.2148,0.2979,0.3832,0.3968,0.4131,0.4306,0.0,0.0,0.0,0.0,0.7886,0.8633,0.0,0.0,0.0,0.0,0.0,0.0,0.0,0.0,0.0,0.0,0.0,0.0,-0.9897,-1.0351,-1.0421,-1.0133,-1.007,-0.8911,-0.6223,-0.2637,-0.0439,-0.0018,-0.1882,-0.2935,-0.2935,-0.9762,-1.3472,-1.3755,-1.3662,-1.4038,-1.4844,-1.4406,-1.3545,-1.235,-1.1774,-1.0226,-0.8018,-0.7454,-0.5276,-0.2038,0.0,0.0,0.0,0.0,0.0,0.0,0.0,0.0,0.0,0.0,0.0,0.0,0.0,0.0,0.0,0.0,0.0,0.0,0.0,0.0,0.0,0.0,0.0,0.0,0.0,0.0,0.0,0.0,0.0,0.0,0.0,0.0,0.0,0.0,0.0,0.0,0.0,0.1357,0.1052,-0.058,-0.1163,-0.1218,0.0,0.0,0.0,0.0,0.0,0.0,-0.2489,-0.226,-0.2033,-0.1805,0.0486,0.2135,0.2961,0.4747,0.5918,0.6478,0.4516,0.1112,-0.3453,-0.3003,-0.2025,-0.0673,0.0641,0.2066,0.3375,0.3388,0.4194,0.5449,0.528,0.6062,0.7502,0.9158,0.9707,0.9734,0.0,0.0,0.0,0.0,0.0,0.0,0.0,0.0,0.0,0.0,0.0,-1.3489,-1.0353,-1.1034,-1.1286,-1.019,-0.9986,-0.9787,-0.947,-0.4945,-0.1592,-0.0073,-0.2467,-0.3833,-0.3833,-1.0001,-1.2878,-1.2211,-1.5517,-1.6857,-1.628,-1.5624,-1.4698,-1.3568,-1.2386,-1.0821,-0.9063,-0.9528,-0.9083,-0.7594,-0.2178,0.0,0.0,0.0,0.0,0.0,0.0,0.0,0.0,0.0,0.0,0.0,0.0,0.0,0.0,0.0,0.0,0.0,0.0,0.0,0.0,0.0,0.0,0.0,0.0,0.0,0.0,0.0,0.0,0.0,0.0,0.0,0.0,0.0,0.0,0.0,0.0,0.0,0.0,-0.0222,-0.1225,0.0,0.0,0.0,0.0,-0.1747,-0.2563,-0.2952,-0.2683,-0.1378,-0.0711,-0.0944,0.0667,0.205,0.3169,0.2763,0.3475,0.5391,0.4157,0.2132,-0.0701,-0.3232,-0.343,-0.1698,-0.0701,0.0549,0.2026,0.3546,0.4181,0.4403,0.5589,0.6098,0.6433,0.8418,0.9145,0.9319,0.0,0.0,0.0,0.0,0.0,0.0,0.0,-0.1756,-0.3967,-0.6422,-0.9119,-1.0636,-1.0114,-1.145,-1.2425,-1.2536,-1.2934,-1.3107,-1.2922,-1.0226,-0.7195,-0.3939,-0.5934,-0.8337,-1.0908,-1.3413,-1.5261,-1.6476,-1.8215,-1.8825,-1.8335,-1.7887,-1.6778,-1.5153,-1.4497,-1.3479,-1.2147,-1.0493,-0.9632,-0.9208,-0.705,-0.4134,0.0,0.0,0.0,0.0,0.0,0.0,0.0,0.0,0.0,0.0,0.0,0.0,0.0,0.0,0.0,0.0,0.0,0.0,0.0,0.0,0.0,0.0,0.0,0.0,0.0,0.0,0.0,0.0,0.0,0.0,0.0,0.0,0.0,0.0,0.0,0.0,0.0,0.013,-0.0,0.0,-0.152,-0.0995,-0.0853,-0.1565,-0.2142,-0.2685,-0.3259,-0.295,-0.2838,-0.3021,-0.2472,-0.1459,-0.0049,0.0385,0.142,0.3016,0.1695,0.0102,-0.1612,-0.3588,-0.413,-0.3436,-0.1805,-0.0053,0.1804,0.4285,0.5372,0.5651,0.6765,0.7838,0.8913,1.0332,1.1194,1.1781,0.0,0.0,0.0,0.0,0.0,0.0,0.0,-0.2726,-0.5274,-0.6608,-0.8405,-1.0021,-1.1246,-1.2708,-1.3783,-1.4286,-1.4731,-1.4654,-1.3877,-1.2854,-1.0365,-0.608,-0.8571,-1.1873,-1.5765,-1.623,-1.7274,-1.9041,-2.0187,-2.0504,-1.9922,-1.9476,-1.8346,-1.6684,-1.6033,-1.5394,-1.4598,-1.2141,-1.0947,-1.0664,-0.9986,-0.7455,-0.3937,0.0,0.0,0.0,0.0,0.0,0.0,0.0,0.0,0.0,0.0,0.0,0.0,0.0,0.0,0.0,0.0,0.0,0.0,0.0,0.0,0.0,0.0,0.0,0.0,0.0,0.0,0.0,0.0,0.0,0.0,0.0,0.0,0.0,0.0,0.0,-0.0412,-0.0087,0.059,0.0376,-0.1341,-0.1293,-0.145,-0.2162,-0.2527,-0.302,-0.3653,-0.3938,-0.41,-0.4212,-0.4212,-0.3742,-0.2706,-0.2094,-0.1092,0.027,-0.0693,-0.1858,-0.3232,-0.4244,-0.4653,-0.4484,-0.2421,-0.0556,0.1252,0.4745,0.6441,0.6957,0.7845,0.8981,1.03,1.1524,1.2234,1.2687,0.0,0.0,0.0,0.0,0.0,0.0,0.0,-0.2689,-0.6013,-0.9619,-1.1061,-1.2289,-1.3706,-1.4719,-1.5275,-1.5201,-1.5082,-1.4191,-1.2275,-1.2365,-1.0593,-0.6301,-1.0232,-1.4165,-1.7697,-1.8127,-1.8676,-1.9399,-2.1343,-2.1857,-2.1007,-2.0365,-1.9387,-1.8106,-1.6936,-1.6432,-1.6301,-1.467,-1.3413,-1.2412,-1.0676,-0.9516,-0.8603,0.0,0.0,0.0,0.0,0.0,0.0,0.0,0.0,0.0,0.0,0.0,0.0,0.0,0.0,0.0,0.0,0.0,0.0,0.0,0.0,0.0,0.0,0.0,0.0,0.0,0.0,0.0,0.0,0.0,0.0,0.0,0.0,0.0,-0.2664,-0.1379,-0.0563,-0.0846,0.0395,0.0695,-0.0738,-0.2003,-0.2973,-0.3516,-0.3847,-0.3978,-0.392,-0.4097,-0.4204,-0.4204,-0.4204,-0.4312,-0.4481,-0.4481,-0.3908,-0.2751,-0.2781,-0.3589,-0.5132,-0.5067,-0.4938,-0.4613,-0.2368,-0.0816,0.0464,0.4988,0.7347,0.8131,0.8699,0.944,1.033,1.1752,1.2069,1.1818,0.0,0.0,0.0,0.0,0.0,0.0,0.0,-0.1737,-0.476,-0.9487,-1.0374,-1.1218,-1.2926,-1.4411,-1.5293,-1.5275,-1.5101,-1.4475,-1.3274,-1.1351,-1.0504,-1.1031,-1.4934,-1.786,-1.9486,-2.0463,-2.1225,-2.1777,-2.2119,-2.2003,-2.143,-2.1234,-2.0607,-1.9588,-1.929,-1.9122,-1.9045,-1.7832,-1.6942,-1.6112,-1.2867,-1.0716,-0.9342,0.0,0.0,0.0,0.0,0.0,0.0,0.0,0.0,0.0,0.0,0.0,0.0,0.0,0.0,0.0,0.0,0.0,0.0,0.0,0.0,0.0,0.0,0.0,0.0,0.0,0.0,0.0,0.0,0.0,0.0,0.0,-0.2698,-0.2447,-0.1531,-0.1413,-0.1136,-0.035,0.0125,0.0216,-0.0213,-0.2136,-0.3152,-0.2616,-0.3553,-0.4125,-0.4121,-0.4304,-0.4402,-0.4402,-0.4402,-0.4512,-0.4628,-0.4695,-0.4598,-0.4297,-0.4415,-0.4771,-0.5308,-0.4992,-0.418,-0.2745,-0.0,0.1818,0.3216,0.7084,0.9025,0.9606,0.9526,1.0366,1.1741,1.2172,1.2425,1.2669,0.0,0.0,0.0,0.0,0.0,0.0,0.0,-0.1372,-0.426,-0.9429,-1.0096,-1.1074,-1.3606,-1.4756,-1.5326,-1.5302,-1.5143,-1.4308,-1.2617,-1.0896,-1.157,-1.5232,-1.746,-1.9221,-2.0556,-2.1197,-2.152,-2.1441,-2.1721,-2.1608,-2.1138,-2.145,-2.1289,-2.0751,-2.0751,-2.0847,-2.0925,-1.9862,-1.9155,-1.8517,-1.5374,-1.2663,-1.0393,-0.9668,-0.852,-0.7223,-0.6729,-0.6307,-0.5911,-0.5595,0.0,0.0,0.0,0.0,0.0,0.0,0.0,0.0,0.0,0.0,0.0,0.0,0.0,0.0,0.0,0.0,0.0,0.0,0.0,0.0,0.0,0.0,0.0,0.0,-0.2807,-0.2638,-0.2097,-0.148,-0.0795,-0.0086,-0.0885,-0.1629,-0.1844,-0.2583,-0.2998,-0.3013,-0.3839,-0.4271,-0.4194,-0.4385,-0.4519,-0.4519,-0.4519,-0.4535,-0.4691,-0.4821,-0.4921,-0.497,-0.5138,-0.5307,-0.5404,-0.5172,-0.3697,0.0,0.2064,0.4059,0.5437,0.8704,1.0111,0.0,0.0,0.0,0.0,0.0,1.2557,1.2893,0.0,0.0,0.0,0.0,0.0,-0.0128,-0.0494,-0.1581,-0.4281,-0.9598,-1.0164,-1.144,-1.4992,-1.538,-1.5362,-1.5307,-1.5259,-1.4163,-1.1608,-1.1363,-1.3509,-1.8382,-1.8538,-1.9382,-2.1192,-2.1043,-2.0572,-1.9838,-2.069,-2.0874,-2.0466,-2.1238,-2.1566,-2.1516,-2.1641,-2.1893,-2.2156,-2.1106,-2.0504,-2.0056,-1.7944,-1.5037,-1.183,-1.082,-0.9452,-0.8064,-0.7611,-0.722,-0.6881,-0.6634,0.0,0.0,0.0,0.0,0.0,0.0,0.0,0.0,0.0,0.0,0.0,0.0,0.0,0.0,0.0,0.0,0.0,0.0,0.0,0.0,0.0,0.0,0.0,0.0,-0.2997,-0.3158,-0.3375,-0.1609,-0.0313,-0.0404,-0.235,-0.3883,-0.4416,-0.3212,-0.2919,-0.4153,-0.4392,-0.4418,-0.4217,0.0,0.0,0.0,0.0,-0.4535,-0.4691,-0.4826,-0.4972,-0.5128,-0.5264,-0.514,-0.4761,-0.4824,-0.307,0.02,0.388,0.6071,0.7303,0.9921,1.0799,1.0555,1.1211,1.2055,1.2832,1.2451,1.2563,0.0,0.0,0.0,0.0,0.0,0.0,-0.0878,-0.3476,-0.2941,-0.4459,-1.0664,-1.0622,-1.1366,-1.4939,-1.5329,-1.5308,-1.5305,-1.5763,-1.5515,-1.4228,-1.4821,-1.6021,-1.783,-1.9536,-2.0966,-2.2035,-2.1513,-2.1041,-2.0657,-2.0593,-2.0389,-2.0118,-2.1122,-2.1576,-2.1618,-2.2484,-2.2912,-2.2937,-2.2146,-2.1748,-2.154,-1.9637,-1.7167,-1.4356,-1.2508,-1.1349,-1.053,-0.9391,-0.8929,-0.8851,-0.8811,-0.8499,-0.8058,-0.7649,-0.5989,0.0,0.0,0.0,0.0,0.0,0.0,0.0,0.0,0.0,0.0,0.0,0.0,0.0,0.0,0.0,0.0,0.0,0.0,0.0,-0.2739,-0.3176,-0.3159,-0.2273,-0.2006,-0.2186,-0.2837,-0.3727,-0.4247,-0.412,-0.3931,-0.4003,-0.4414,-0.4341,-0.43,-0.4412,-0.4501,-0.4519,-0.4519,-0.4519,-0.4535,-0.4691,-0.4721,-0.4942,-0.5312,0.0,0.0,-0.1037,-0.1033,-0.0653,0.0266,0.5396,0.8038,0.8851,1.0555,1.1711,1.2401,1.2526,1.2694,1.2871,1.2783,1.285,1.2773,0.0,0.0,0.0,0.0,0.0,-0.1079,-0.4317,-0.4067,-0.5279,-1.024,-0.9993,-1.0505,-1.3526,-1.3523,-1.327,-1.3196,-1.3171,-1.3838,-1.5445,-1.5632,-1.686,-1.9489,-2.0123,-2.0809,-2.167,-2.0682,-2.0082,-1.9951,-2.0019,-2.0187,-2.046,-2.1365,-2.2089,-2.2663,-2.3213,-2.3437,-2.3414,-2.3058,-2.2591,-2.1984,-2.0747,-1.8991,-1.6876,-1.4963,-1.3287,-1.1775,-1.0896,-1.0073,-0.9369,-0.9182,-0.8938,-0.8778,-0.8921,-0.8542,-0.7582,0.0,0.0,0.0,0.0,0.0,0.0,0.0,0.0,0.0,0.0,0.0,0.0,0.0,0.0,-0.3659,-0.3046,0.0,-0.3285,-0.3079,-0.3375,-0.3382,-0.2809,-0.2488,-0.2723,-0.3919,-0.4127,-0.423,-0.4228,-0.4205,-0.431,-0.4509,-0.4412,-0.4389,-0.4515,-0.4519,-0.4519,-0.4519,-0.4519,-0.4535,-0.4691,-0.4691,-0.4879,-0.5133,-0.4288,-0.2501,0.0064,0.1866,0.2718,0.2941,0.7359,0.9283,0.934,1.1307,1.2852,1.3946,1.3437,1.3066,1.2881,1.2881,1.2881,1.2774,-0.0535,-0.0457,-0.0567,-0.0878,-0.0933,-0.1807,-0.4394,-0.4765,-0.589,-0.9045,-0.885,-0.9302,-1.1652,-1.161,-1.1269,-1.0914,-1.0641,-1.2192,-1.6174,-1.5921,-1.731,-2.11,-2.0314,-2.0123,-2.0845,-1.9663,-1.9035,-1.9002,-1.9538,-2.0096,-2.0714,-2.1675,-2.2636,-2.3562,-2.3767,-2.3883,-2.3905,-2.3844,-2.3302,-2.241,-2.1584,-2.0387,-1.8909,-1.724,-1.4965,-1.2595,-1.2027,-1.0799,-0.9421,-0.9257,-0.9459,-0.9805,-1.0046,-1.0883,-1.1111,-0.7925,-0.7481,0.0,0.0,0.0,0.0,0.0,0.0,0.0,0.0,-0.572,-0.5914,-0.6238,-0.5825,-0.508,-0.4044,-0.393,-0.3873,-0.3454,-0.3547,-0.3621,-0.3657,-0.3019,-0.3043,-0.4323,-0.4208,-0.414,-0.439,-0.433,-0.4341,-0.4512,-0.4522,-0.4525,-0.4525,-0.4522,-0.4522,-0.4522,-0.4519,-0.4577,-0.4646,-0.465,-0.4723,-0.479,-0.2997,-0.1104,0.0952,0.3969,0.535,0.5556,0.8816,1.019,1.017,1.2247,1.3897,1.4997,1.3854,1.3167,1.2801,1.2801,1.2742,1.2476,-0.2436,-0.214,-0.258,-0.4006,-0.4263,-0.4354,-0.4669,-0.4656,-0.5324,-0.7251,-0.7427,-0.8079,-0.998,-1.1113,-1.1301,-1.0221,-1.1455,-1.3711,-1.7056,-1.7351,-1.8311,-2.035,-2.0019,-1.9847,-1.9941,-1.9499,-1.9182,-1.9002,-1.9777,-2.0062,-1.9974,-2.1716,-2.2715,-2.3033,-2.3986,-2.4508,-2.4648,-2.436,-2.4063,-2.3682,-2.2335,-2.0986,-1.9647,-1.8254,-1.6024,-1.35,-1.2317,-1.0897,-0.9678,-1.0419,-1.0197,-0.9897,-1.1561,-1.2149,-1.1784,-0.949,-0.8413,-0.7286,-0.3994,-0.5932,-0.8355,-0.6149,-0.5599,-0.5917,0.0,-0.7518,-0.7363,-0.6216,-0.5902,-0.5446,-0.4201,-0.4073,-0.398,-0.3385,-0.3585,-0.3778,-0.3856,-0.382,-0.3953,-0.4469,-0.4476,-0.4376,-0.4246,-0.4372,-0.446,-0.4477,-0.4487,-0.4494,-0.4494,-0.4484,-0.4477,-0.4477,-0.4522,-0.4525,-0.4543,-0.4497,-0.4528,-0.4515,-0.1637,0.1205,0.4008,0.4789,0.5161,0.5336,0.8471,1.0997,1.2917,1.3625,1.4387,1.4976,1.3528,1.2778,1.2547,1.2547,1.2113,1.1364,-0.4065,-0.3842,-0.4019,-0.4735,-0.482,-0.4785,-0.4761,-0.4728,-0.5151,-0.6343,-0.6509,-0.6959,-0.8138,-0.8325,-0.8385,-0.8433,-1.0068,-1.2267,-1.5063,-1.68,-1.8261,-1.9485,-1.9715,-1.9836,-1.9903,-1.9513,-1.9601,-2.0206,-1.9981,-2.0578,-2.1969,-2.2277,-2.2989,-2.4033,-2.447,-2.4459,-2.4087,-2.3902,-2.3353,-2.2551,-2.1916,-2.0575,-1.883,-1.8074,-1.6279,-1.3983,-1.2831,-1.1212,0.0,-1.0369,-1.0261,-1.0234,-1.2496,-1.2832,-1.2047,-1.0429,-1.022,-1.0213,-0.8954,-0.8337,-0.8138,-0.8538,-0.8597,-0.8585,-0.8743,-0.8409,-0.8107,-0.8352,-0.7696,-0.6803,-0.5923,-0.5556,-0.5045,-0.4112,-0.4145,-0.4251,-0.4077,-0.4117,-0.4212,-0.4483,-0.4497,-0.4443,-0.4392,-0.445,-0.4147,-0.3239,-0.3186,-0.3188,-0.3188,-0.3183,-0.3577,-0.449,-0.4484,-0.4484,-0.4484,-0.4487,-0.4482,-0.4461,-0.1463,0.1589,0.4503,0.4785,0.5475,0.6463,0.8289,1.0635,1.3153,1.315,1.4138,1.5493,1.389,1.2841,1.2249,1.2069,1.171,1.1235,-0.5015,-0.4931,-0.4875,-0.4922,-0.4863,-0.4809,-0.4773,-0.4769,-0.4969,-0.5547,-0.5634,-0.5861,-0.6412,-0.5965,-0.6022,-0.6988,-0.866,-1.0695,-1.322,-1.5631,-1.7471,-1.8588,-1.9212,-1.9579,-1.9659,-1.9513,-1.9865,-2.0739,-2.0226,-2.0958,-2.2803,-2.2695,-2.3315,-2.4543,-2.4562,-2.425,-2.3735,-2.3228,-2.2426,-2.148,-2.0867,-1.9499,-1.7749,-1.7142,-1.5473,-1.3391,-1.2831,-1.1286,-0.9592,-1.023,-0.9886,-0.9632,-1.1915,-1.237,-1.1777,-1.0404,-0.9993,-1.0069,-1.0316,-0.8947,-0.7932,-0.9901,-1.0699,-1.0845,-1.0316,-0.9627,-0.9277,-0.9877,-0.9213,-0.8211,-0.7196,-0.667,-0.6033,-0.4826,-0.4821,-0.4884,-0.4701,-0.4715,-0.4665,-0.4501,-0.4522,-0.4288,-0.3819,-0.4193,-0.4042,-0.291,-0.2066,-0.1955,-0.2796,-0.2456,-0.2905,-0.4438,-0.4494,-0.432,-0.3869,-0.4271,-0.4502,-0.4442,-0.0911,0.2053,0.4497,0.4694,0.5709,0.7344,0.801,1.0053,1.2795,1.2437,1.3576,1.5419,1.3799,1.2784,1.2172,1.1814,1.1398,1.0985,-0.4998,-0.4989,-0.4986,-0.4989,-0.4938,-0.4853,-0.4732,-0.471,-0.4693,-0.4651,-0.4693,-0.4768,-0.4854,-0.4905,-0.5365,-0.6432,-0.7891,-0.9819,-1.2368,-1.4208,-1.5951,-1.7657,-1.8434,-1.883,-1.883,-1.946,-1.9797,-1.9847,-2.0589,-2.0992,-2.1117,-2.2706,-2.3638,-2.3938,-2.3928,-2.4022,-2.4088,-2.2459,-2.1585,-2.1147,-1.925,-1.7832,-1.6689,-1.5398,-1.3315,-1.12,-1.1955,-1.0914,-0.9342,-1.0221,-0.9072,-0.7568,-0.9204,-1.0385,-1.0799,-0.8989,-0.647,-0.441,-0.512,-0.6572,-0.8296,-0.9968,-1.1423,-1.2319,-1.1852,-1.1707,-1.1302,-0.9815,-0.9845,-0.9494,-0.7397,-0.6994,-0.6609,-0.5475,-0.5405,-0.5582,-0.5896,-0.6057,-0.574,-0.4631,-0.4484,-0.3833,0.0,-0.3471,-0.4458,-0.4455,-0.1738,-0.1345,-0.4284,-0.3023,-0.2905,-0.4438,-0.4487,-0.3799,-0.2287,-0.3764,-0.4514,-0.4465,0.0346,0.3292,0.4507,0.4633,0.5639,0.7333,0.7711,0.9547,1.2216,1.1953,1.2838,1.4312,1.2903,1.2411,1.2404,1.1881,1.1131,1.0216,-0.5068,-0.5024,-0.5003,-0.5003,-0.4937,-0.488,-0.4842,-0.4797,-0.4757,-0.474,-0.4797,0.0,0.0,0.0,0.0,0.0,-0.7289,-0.8726,-1.065,-1.2984,-1.4794,-1.5932,-1.7243,-1.8255,-1.892,-1.8934,-1.9595,-2.0929,-2.0535,-2.0974,-2.2191,-2.2171,-2.2556,-2.3238,-2.323,-2.2681,-2.1708,-2.1055,-2.0037,-1.8789,-1.8131,-1.7168,-1.6174,-1.6516,-1.5238,-1.3293,0.0,-1.1051,-0.7612,-0.8125,-0.7578,-0.6953,-0.8609,-0.8205,-0.6827,-0.5319,-0.4872,-0.5211,-0.6858,-0.8294,-0.9824,-1.177,-1.2605,-1.2908,-1.2756,-1.2508,-1.2018,-1.1196,-0.9856,-0.8502,-0.7586,-0.6689,-0.6051,-0.574,-0.5913,-0.6116,-0.6181,-0.6069,-0.5653,-0.4864,-0.451,-0.4086,-0.3442,0.0,0.0,-0.1571,-0.0596,-0.1314,-0.4337,-0.3996,-0.3937,-0.4507,-0.2571,-0.1283,-0.0727,-0.1232,-0.1008,-0.0,0.3786,0.521,0.4529,0.5012,0.584,0.6855,0.6989,0.8639,1.1192,1.1158,1.2182,1.3691,1.2965,1.2637,1.2437,1.1956,1.1567,1.1174,-0.5093,-0.507,-0.5034,-0.5034,-0.4973,0.0,0.0,0.0,0.0,0.0,0.0,0.0,0.0,0.0,0.0,0.0,0.0,-0.7616,-0.8978,-1.1204,-1.2856,-1.3691,-1.5007,-1.6014,-1.6656,-1.6474,-1.7272,-1.918,-1.8529,-1.915,-2.0943,-2.0708,-2.0945,-2.1588,-2.1543,-2.0986,-2.0027,-1.9306,-1.8254,-1.6992,-1.6094,-1.5218,-1.4438,-1.4632,-1.3603,0.0,-1.2049,-0.9033,-0.5257,-0.6278,-0.6062,-0.5562,-0.6743,-0.599,-0.4573,-0.4103,-0.463,-0.5918,-0.8425,-0.9653,-1.0694,-1.2705,-1.3198,-1.3163,-1.2978,-1.2838,-1.2508,-1.1689,-0.9965,-0.8539,-0.8228,-0.6951,-0.6009,-0.6246,-0.6816,-0.7064,-0.6627,-0.6382,-0.6086,-0.5624,-0.514,-0.473,-0.4394,-0.3271,-0.2157,-0.1355,-0.0951,-0.1827,-0.4252,-0.4477,-0.4504,-0.4501,-0.2633,-0.0838,0.0783,0.1344,0.2143,0.3142,0.5528,0.6082,0.4983,0.5631,0.6145,0.6588,0.6858,0.8159,1.0054,1.0594,1.1598,1.2805,1.2861,1.279,1.2628,1.2289,1.2187,1.1968,-0.5108,-0.5093,-0.5097,0.0,0.0,0.0,0.0,0.0,0.0,0.0,0.0,0.0,0.0,0.0,0.0,0.0,0.0,0.0,-0.7463,-0.8945,-1.019,-1.1133,-1.1982,-1.244,-1.2503,-1.2535,-1.3353,-1.4981,-1.5002,-1.5838,-1.7475,-1.8363,-1.884,-1.8967,-1.8897,-1.8924,-1.8906,-1.7242,-1.6276,-1.5636,-1.3278,-1.2113,-1.1626,-1.0162,-0.886,-0.7797,-0.7696,-0.5308,-0.253,-0.4747,-0.4671,-0.369,-0.3973,-0.4054,-0.4229,-0.5274,-0.5633,-0.6393,-0.9568,-1.0473,-1.0976,-1.2764,-1.3198,-1.3082,-1.265,-1.2873,-1.2779,-1.1244,-1.0228,-0.9462,-0.9056,-0.7508,-0.6411,-0.6803,-0.7898,-0.8341,-0.7282,-0.7057,-0.6994,-0.6812,-0.632,-0.5668,-0.4768,-0.4152,-0.3751,-0.3608,0.0,-0.2867,-0.4105,-0.4412,-0.449,-0.4366,-0.4445,-0.2293,0.2287,0.3764,0.4632,0.4872,0.5613,0.5939,0.5865,0.6404,0.6642,0.6696,0.7396,0.8078,0.879,1.0187,1.1166,1.1814,1.2559,1.2881,1.2881,1.2881,1.2881,1.2618,0.0,0.0,0.0,0.0,0.0,0.0,0.0,0.0,0.0,0.0,0.0,0.0,0.0,0.0,0.0,0.0,0.0,0.0,-0.6505,-0.754,-0.8492,-0.932,-1.0766,-1.1831,-1.2496,-1.3086,-1.3861,-1.4854,-1.4852,-1.5024,-1.5358,-1.5611,-1.5779,-1.585,-1.5824,-1.5537,-1.5011,-1.4467,-1.3553,-1.239,-1.1655,-1.0944,-1.0392,-1.093,-0.9806,-0.8013,-0.8423,-0.5828,-0.2391,-0.3626,-0.467,-0.554,-0.6102,-0.6076,-0.5942,-0.6529,-0.754,-0.8797,-1.0279,-1.157,-1.2593,-1.3085,-1.3198,-1.3163,-1.306,-1.3129,-1.2582,-1.0395,-0.9689,-0.8752,-0.641,-0.5246,-0.469,-0.4932,-0.7078,-0.8716,-0.8848,-0.8166,-0.7475,-0.6991,-0.6493,-0.5726,-0.4599,-0.4329,-0.4089,0.0,-0.3498,-0.3673,-0.4154,-0.4412,-0.3981,-0.2847,-0.3878,-0.1789,0.3878,0.433,0.4901,0.5652,0.6544,0.6812,0.6394,0.7101,0.7402,0.745,0.7616,0.8096,0.8837,0.971,1.0466,1.1116,1.1823,1.2403,1.2881,1.2881,1.2881,1.2774,0.0,0.0,0.0,0.0,0.0,0.0,0.0,0.0,0.0,0.0,0.0,0.0,0.0,0.0,0.0,0.0,0.0,0.0,0.0,-0.6483,-0.7121,-0.7589,-0.8476,-0.9185,-0.9689,-0.9699,-1.0294,-1.1506,-1.1442,-1.1764,-1.245,-1.248,-1.2534,-1.2592,-1.2592,-1.2356,-1.1976,-1.1854,-1.1272,0.0,0.0,-0.8758,-0.8315,-0.8316,-0.7515,-0.643,-0.6822,-0.6021,-0.4961,-0.6134,-0.6715,-0.6985,-0.7239,-0.706,-0.7007,-0.8197,-0.9115,-1.0036,-1.1458,-1.2518,-1.3267,-1.3459,-1.3514,-1.3288,-1.2424,-1.2241,-1.1631,-0.9498,-0.835,-0.7635,-0.7317,-0.5967,-0.5341,-0.6704,-0.8317,-0.9395,-0.9368,-0.8552,-0.7832,-0.7433,-0.6683,-0.5916,-0.526,-0.4957,-0.4565,-0.4008,-0.3948,-0.4016,-0.41,-0.4368,-0.4089,-0.3239,-0.212,0.0332,0.4351,0.4725,0.5152,0.5663,0.694,0.7521,0.7534,0.7984,0.8143,0.8125,0.0,0.8209,0.8421,0.9703,1.0466,1.0914,1.1882,1.2559,1.2881,1.2881,1.2881,1.2774,0.0,0.0,0.0,0.0,0.0,0.0,0.0,0.0,0.0,-0.5395,-0.5176,-0.501,-0.5011,-0.5072,0.0,0.0,0.0,0.0,0.0,0.0,-0.6042,-0.6046,-0.609,-0.6107,-0.6116,-0.536,-0.5715,-0.7268,-0.7153,-0.7855,-0.9314,-0.9364,-0.9416,-0.9482,-0.9482,-0.9476,-0.95,-0.9419,-0.9185,-0.8757,-0.7081,-0.6289,-0.5935,0.0,-0.4115,-0.4308,-0.4454,-0.5977,-0.8154,-0.9655,-0.94,-0.8408,-0.8241,-0.8034,-0.8196,-1.0059,-1.0525,-1.0804,-1.2705,-1.3267,-1.3391,-1.3802,-1.3934,-1.347,-1.1453,-1.0973,-1.04,-0.8295,-0.673,-0.6425,-0.8638,-0.6946,-0.6322,-0.9741,-1.0302,-1.0079,-0.9447,-0.8749,-0.8253,-0.8126,-0.7105,-0.6392,-0.6307,-0.5782,-0.5173,-0.4561,-0.4251,-0.4038,-0.3988,-0.4284,-0.4223,-0.366,0.0331,0.3011,0.4214,0.5065,0.5494,0.5475,0.7072,0.8178,0.8842,0.8988,0.8988,0.8842,0.0,0.0,0.799,0.9894,1.0712,1.0922,1.2147,1.2666,1.2764,1.2764,1.2764,1.2666,0.0,0.0,0.0,0.0,0.0,0.0,0.0,0.0,0.0,0.0,-0.6299,-0.5014,0.0,0.0,0.0,0.0,0.0,0.0,0.0,0.0,0.0,-0.5296,-0.5809,-0.6124,-0.618,-0.6606,-0.6929,-0.7134,-0.7046,-0.712,-0.7305,-0.7255,-0.7246,-0.7252,-0.7252,-0.7318,-0.7414,-0.7229,-0.6808,-0.6201,-0.5669,-0.5034,-0.4382,-0.4106,0.0,0.0,-0.4437,-0.5593,-0.721,-0.8487,-0.9721,-1.0798,-1.1177,-1.1503,-1.1731,-1.171,-1.2089,-1.2592,-1.3087,-1.3493,-1.3802,-1.3868,-1.4149,-1.3803,-1.1517,-1.0919,-0.9751,-0.5881,-0.5811,-0.5625,-0.302,-0.1712,-0.3072,-0.9286,-1.0304,-1.0262,-1.0137,-0.9634,-0.9257,-0.9239,-0.8267,-0.7398,-0.6917,-0.638,-0.5787,-0.5173,-0.4779,-0.4349,-0.3876,-0.4237,-0.2893,0.0588,0.263,0.3865,0.4214,0.4951,0.5703,0.6367,0.7823,0.8901,0.9651,1.021,1.0159,0.9599,0.9607,0.0,0.8692,0.9607,1.0312,1.0813,1.1074,1.1525,1.1972,1.1972,1.1972,1.1972,0.0,0.0,0.0,0.0,0.0,0.0,0.0,-0.7643,-0.8537,-1.1165,-1.0418,-0.8965,-0.7224,-0.5864,-0.5101,0.0,0.0,0.0,0.0,0.0,0.0,0.0,0.0,0.0,-0.5571,-0.5827,-0.5929,-0.5909,0.0,-0.5681,-0.5654,-0.5589,-0.5558,-0.5558,-0.5558,-0.5555,-0.5535,-0.533,-0.5065,-0.4744,-0.4433,-0.4151,-0.3897,0.0,0.0,0.0,-0.442,-0.576,-0.7501,-0.7663,-0.9641,-1.2123,-1.2751,-1.2956,-1.3031,-1.331,-1.3501,-1.3659,-1.3813,-1.4019,-1.4346,-1.492,-1.5198,-1.4421,-1.1004,-1.0174,-0.8718,-0.3753,-0.3293,-0.3098,-0.0853,-0.1789,-0.3357,-0.4715,-0.7627,-0.9843,-1.0262,-0.9579,-0.9199,-0.9478,-0.8797,-0.8185,-0.7915,-0.7391,-0.6846,-0.6234,-0.575,-0.5115,-0.4299,-0.4427,-0.2814,0.0845,0.2922,0.4052,0.4204,0.5377,0.6159,0.6518,0.8358,0.9636,1.0312,1.0661,1.0618,1.0312,0.9961,0.0,0.8857,0.9917,1.0517,1.0864,1.1584,1.1832,1.1864,1.2236,1.2129,1.1814,0.0,0.0,0.0,0.0,0.0,0.0,0.0,-0.9831,-1.0859,-1.4345,-1.4429,-1.3026,-0.997,-0.7563,-0.5886,0.0,0.0,0.0,0.0,0.0,0.0,0.0,0.0,0.0,0.0,0.0,0.0,-0.4773,-0.4606,0.0,0.0,0.0,0.0,0.0,-0.4499,-0.4431,-0.4296,-0.4108,-0.4029,0.0,0.0,-0.361,0.0,0.0,0.0,0.0,0.0,-0.5819,-0.7609,-0.7287,-0.933,-1.217,-1.3172,-1.3448,-1.353,-1.4056,-1.417,-1.4199,-1.4525,-1.4613,-1.4878,-1.6058,-1.6373,-1.5197,-1.0736,-0.9593,-0.791,-0.2397,-0.1202,-0.0938,-0.0308,-0.2548,-0.3766,-0.1556,-0.4962,-0.8389,-0.9877,-0.8993,-0.8588,-0.957,-0.9079,-0.8716,-0.8716,-0.8193,-0.7655,-0.7043,-0.638,0.0,-0.4811,-0.4094,-0.2545,0.0052,0.2691,0.4151,0.4456,0.585,0.6612,0.6691,0.8799,1.0167,1.0813,1.0965,1.1015,1.0965,1.0474,0.0,0.0,1.0517,1.1015,1.1116,1.2246,1.2246,1.1665,1.2403,1.2187,1.1616,0.0,0.0,0.0,0.0,0.0,0.0,0.0,-1.132,-1.348,-1.6914,-1.6028,-1.4387,-1.2541,-1.0733,-0.8421,0.0,0.0,0.0,0.0,0.0,0.0,0.0,0.0,0.0,0.0,0.0,0.0,-0.4715,-0.4625,0.0,0.0,0.0,0.0,0.0,0.0,-0.4431,-0.4302,-0.4224,0.0,0.0,0.0,0.0,0.0,0.0,0.0,0.0,0.0,-0.5266,-0.6395,-0.7648,-0.8842,-1.0132,-1.2087,-1.336,-1.3913,-1.2901,-1.3257,-1.4084,-1.4771,-1.4943,-1.5328,-1.6826,-1.7173,-1.6009,-1.1531,-0.9881,-0.7834,-0.2555,-0.1182,-0.0904,-0.0832,-0.0858,-0.1805,-0.4619,-0.4289,-0.4968,-0.8752,-0.7796,-0.7589,-0.9935,-0.9319,-0.8716,-0.8716,-0.8193,-0.7655,-0.7063,0.0,0.0,-0.4976,-0.2598,-0.0851,-0.0,0.2711,0.4516,0.5176,0.6014,0.679,0.7576,0.9072,1.0167,1.0813,1.1408,1.1715,1.1715,1.1642,0.0,0.0,1.1416,1.1715,1.1715,1.1864,1.1466,1.0965,1.1665,1.1466,1.0965,0.0,0.0,0.0,0.0,0.0,0.0,-1.1043,-1.1737,-1.3623,-1.8663,-1.8248,-1.6854,-1.5221,-1.3453,-1.0421,-0.552,0.0,0.0,0.0,0.0,0.0,0.0,0.0,0.0,0.0,0.0,-0.4765,-0.471,-0.4629,0.0,0.0,0.0,0.0,0.0,0.0,-0.4396,-0.4236,-0.4121,0.0,0.0,0.0,0.0,0.0,0.0,0.0,0.0,0.0,0.0,-0.596,-0.605,-0.7316,-0.8873,-0.9053,-1.0365,-1.2013,-1.2868,-1.3406,-1.3879,-1.4676,-1.5041,-1.5531,-1.6954,-1.6471,-1.4735,-1.122,-0.9165,-0.6748,-0.24,-0.1306,-0.1097,-0.0933,-0.0788,-0.1157,-0.2549,-0.2584,-0.2537,-0.283,-0.3905,-0.5491,-0.7861,-0.7682,-0.7732,-0.8626,-0.8193,-0.753,-0.6605,0.0,0.0,-0.515,-0.1984,-0.0099,0.0103,0.289,0.4714,0.5436,0.613,0.6929,0.7723,0.9138,1.0167,1.0813,1.1516,1.1814,1.1814,1.1774,0.0,0.0,1.1944,1.215,1.1864,1.2696,1.2092,1.0922,1.2039,1.1783,1.0965,0.0,0.0,0.0,0.0,0.0,-0.7837,-1.1637,-1.2336,-1.4076,-1.8644,-1.866,-1.7632,-1.597,-1.379,-1.0748,-0.6595,-0.554,0.0,0.0,0.0,0.0,0.0,0.0,0.0,0.0,0.0,-0.487,-0.5032,-0.4954,-0.5001,0.0,0.0,-0.4827,-0.4827,0.0,0.0,0.0,0.0,0.0,0.0,0.0,0.0,0.0,0.0,0.0,0.0,0.0,0.0,0.0,0.0,0.0,-0.7905,-0.7109,-0.8128,-1.0019,-1.2115,-1.2875,-1.3302,-1.4439,-1.4996,-1.565,-1.7231,-1.6177,-1.4006,-1.1228,-0.8775,-0.6082,-0.245,-0.1522,-0.1304,-0.111,-0.1009,-0.0945,-0.0907,-0.1151,-0.0699,0.1184,-0.0876,-0.343,-0.5677,-0.6034,-0.6485,-0.7437,-0.7305,-0.6803,0.0,0.0,0.0,-0.4593,-0.15,0.0639,0.1452,0.3459,0.495,0.5814,0.6367,0.7074,0.8049,0.904,0.9961,1.0813,1.1266,1.1724,1.2129,0.0,0.0,0.0,1.2725,1.2918,1.2725,1.3521,1.2831,1.1507,1.251,1.2147,1.1266,0.0,0.0,0.0,0.0,0.0,0.0,-1.0919,-1.3442,-1.5427,-1.6407,-1.6522,-1.5868,-1.4113,-1.0959,-0.8918,-0.886,-0.6556,0.0,0.0,0.0,0.0,0.0,0.0,0.0,0.0,0.0,-0.5129,-0.5788,-0.5719,-0.6035,-0.6673,-0.5928,-0.5596,-0.5562,0.0,0.0,0.0,0.0,0.0,0.0,0.0,0.0,0.0,0.0,0.0,0.0,0.0,0.0,0.0,0.0,0.0,0.0,0.0,-0.7472,-0.8369,-1.0125,-1.1189,-1.2228,-1.4113,-1.4915,-1.57,-1.7853,-1.6738,-1.4444,-1.1872,-0.913,-0.6163,-0.2869,-0.1827,-0.1496,-0.1496,-0.1281,-0.1056,-0.0916,-0.0301,0.0554,0.1648,0.0405,-0.1516,-0.3952,-0.4803,-0.5117,-0.4849,-0.5132,-0.5303,0.0,0.0,0.0,-0.2987,-0.0876,0.1552,0.4368,0.4485,0.5171,0.6588,0.6588,0.7343,0.8804,0.8804,0.9517,1.0813,1.0813,1.1584,0.0,0.0,0.0,0.0,1.3768,1.4143,1.4606,1.405,1.3369,1.2783,1.2852,1.2452,1.1922,0.0,0.0,0.0,0.0,0.0,0.0,0.0,-1.031,-1.181,-1.4454,-1.374,-1.3264,-1.3894,-1.094,-0.8899,-0.8899,-0.6576,0.0,0.0,0.0,0.0,0.0,0.0,0.0,0.0,0.0,-0.6143,-0.7371,-0.7259,-0.7294,-0.7442,-0.669,-0.6089,-0.5562,-0.4827,-0.4332,0.0,0.0,0.0,0.0,0.0,0.0,0.0,0.0,0.0,0.0,0.0,0.0,0.0,0.0,0.0,0.0,0.0,0.0,0.0,-0.8442,-0.949,-1.0622,-1.2074,-1.271,-1.3134,-1.3908,-1.2593,-1.0648,-0.8771,-0.6571,-0.4415,-0.2696,-0.2035,-0.1747,-0.1649,-0.1341,-0.1055,-0.0924,-0.036,0.0324,0.1068,0.0398,-0.0521,-0.1413,-0.3734,-0.534,-0.555,0.0,0.0,0.0,0.0,0.0,-0.1035,0.0385,0.162,0.2756,0.392,0.5171,0.6588,0.6588,0.7343,0.8811,0.9263,0.9969,1.0813,1.1266,0.0,0.0,0.0,0.0,0.0,1.4236,1.4514,1.4698,1.496,1.4147,1.287,1.3341,1.2803,1.1922,0.0,0.0,0.0,0.0,0.0,0.0,0.0,-0.8474,-0.9543,-1.1358,-1.0648,-1.0634,-1.2373,-0.9519,-0.7845,-0.8822,-0.6576,0.0,0.0,0.0,0.0,0.0,0.0,0.0,-0.6192,-0.5977,-0.7009,-0.9354,-0.9187,-0.9384,-0.9907,-0.9168,-0.7967,-0.6402,-0.5628,-0.4843,0.0,0.0,0.0,0.0,0.0,0.0,-0.3493,0.0,0.0,0.0,0.0,0.0,0.0,0.0,0.0,0.0,0.0,0.0,0.0,0.0,-0.8221,-0.9283,-1.0768,-1.1414,-1.1752,-1.21,-1.0621,-0.8727,-0.7432,-0.5465,-0.3623,-0.2671,-0.2225,-0.1984,-0.1902,-0.1501,-0.1136,-0.1035,-0.0589,-0.0037,0.0619,0.0369,0.0204,0.0466,-0.1955,-0.4015,0.0,-0.3752,0.0,0.0,0.0,0.0,-0.0133,0.206,0.3237,0.3195,0.4281,0.5441,0.6588,0.6858,0.7616,0.8804,0.9144,0.9694,1.0466,1.1021,0.0,0.0,0.0,0.0,0.0,1.456,1.4983,1.5377,1.5543,1.4744,1.3548,1.3711,1.315,1.2295,0.0,0.0,0.0,0.0,0.0,0.0,0.0,-0.7717,-0.846,-0.7702,-0.7554,-0.814,-0.9752,-0.7036,-0.6057,-0.8421,0.0,0.0,0.0,0.0,0.0,0.0,0.0,0.0,-0.6267,-0.6015,-0.7704,-1.1411,-1.1267,-1.1989,-1.3464,-1.2803,-1.0903,-0.8001,-0.7192,-0.588,0.0,0.0,0.0,0.0,-0.3555,-0.3455,0.0,0.0,0.0,0.0,0.0,0.0,0.0,0.0,0.0,0.0,0.0,0.0,0.0,0.0,0.0,0.0,0.0,-1.0687,-1.1169,-1.1697,-1.0116,-0.8227,-0.7322,-0.5437,0.0,-0.2774,-0.2392,-0.2213,-0.2198,-0.1711,-0.1288,-0.1226,-0.0953,-0.0503,0.0145,0.0257,0.0591,0.1453,0.0149,-0.1501,-0.3188,0.0,0.0,0.0,0.0,0.0,0.0,0.3945,0.5854,0.514,0.5453,0.5977,0.6696,0.7343,0.8049,0.8804,0.8582,0.8938,0.9799,1.0229,0.0,0.0,0.0,0.0,0.0,1.4652,1.5377,1.638,1.5864,1.5276,1.4698,1.4143,1.3505,1.2978,0.0,0.0,0.0,0.0,0.0,0.0,0.0,0.0,0.0,0.0,-0.7089,-0.6829,-0.7255,-0.598,-0.5347,0.0,0.0,0.0,0.0,0.0,0.0,0.0,0.0,0.0,-0.7083,-0.6797,-0.8223,-1.1474,-1.199,-1.2923,-1.4242,-1.4263,-1.2867,-1.0284,-0.9438,-0.7524,0.0,0.0,0.0,0.0,-0.3758,-0.3783,0.0,0.0,0.0,0.0,-0.3941,-0.4575,0.0,0.0,0.0,0.0,0.0,0.0,0.0,0.0,-0.6621,-0.6494,-0.7435,0.0,-0.8387,-0.7419,-0.6711,-0.5913,0.0,-0.3915,-0.3335,-0.2725,-0.2461,-0.232,-0.2219,-0.1789,-0.1445,-0.1439,-0.1233,-0.1138,-0.1272,-0.0515,-0.0187,-0.0871,-0.0511,-0.0388,-0.0822,0.0,0.0,0.0,0.0,0.0782,0.0,0.4135,0.5529,0.5091,0.6457,0.7283,0.745,0.7616,0.8049,0.8804,0.9238,0.9592,0.9814,1.0428,0.0,0.0,0.0,0.0,1.3301,1.4318,1.5152,1.582,1.6139,1.592,1.5365,1.5219,1.4503,1.3637,0.0,0.0,0.0,0.0,0.0,0.0,0.0,0.0,0.0,0.0,0.0,-0.5806,-0.5806,-0.5385,0.0,0.0,0.0,0.0,0.0,0.0,0.0,0.0,0.0,-0.5557,-0.6775,-0.6868,-0.8557,-1.1907,-1.2621,-1.3836,-1.5511,-1.5307,-1.375,-1.1011,-0.9064,-0.7107,0.0,0.0,0.0,-0.4641,-0.392,0.0,0.0,0.0,0.0,0.0,-0.3855,-0.4718,0.0,-0.6427,-0.7371,-0.8268,0.0,0.0,0.0,0.0,-0.6185,-0.5847,-0.5882,-0.6681,-0.734,-0.6531,-0.6096,-0.5602,-0.4557,-0.3915,-0.3374,-0.2816,-0.2539,-0.2356,-0.2228,-0.2096,-0.1944,-0.1758,-0.1824,-0.195,-0.2165,-0.1418,-0.0663,-0.0221,0.0444,0.1023,0.0,0.0,0.0,0.0,0.0,0.0,0.0,0.5005,0.611,0.5722,0.735,0.8049,0.7723,0.8049,0.8427,0.8804,0.902,0.9226,0.9361,0.991,1.0213,0.0,0.0,0.0,1.287,1.3888,1.4824,1.5632,1.5952,1.5908,1.5588,1.5588,1.4994,1.4283,0.0,0.0,0.0,0.0,0.0,0.0,0.0,0.0,0.0,0.0,0.0,0.0,0.0,0.0,0.0,0.0,0.0,0.0,0.0,0.0,0.0,0.0,-0.5042,-0.5445,-0.6418,-0.6743,-0.8652,-1.2218,-1.3171,-1.4669,-1.6699,-1.6492,-1.4689,-1.1497,-0.8332,-0.6423,0.0,0.0,-0.4957,-0.4639,-0.4011,0.0,0.0,0.0,0.0,0.0,0.0,0.0,0.0,-0.636,-0.7445,-0.8625,-0.7992,0.0,0.0,0.0,0.0,0.0,-0.5096,-0.5449,-0.6071,-0.6631,-0.6432,-0.5948,-0.5259,-0.4346,-0.3478,-0.292,-0.2626,-0.2448,-0.2435,-0.2501,-0.2532,-0.2435,-0.2292,-0.223,-0.2332,-0.1847,-0.0771,0.1287,0.1828,0.0,0.0,0.0,0.0,0.0,0.0,0.0,0.0,0.6043,0.6915,0.6555,0.8013,0.848,0.7883,0.848,0.8784,0.8738,0.849,0.8477,0.8664,0.9048,0.9435,0.0,0.0,0.0,1.2725,1.3474,1.4457,1.5454,1.5543,1.5676,1.5732,1.5732,1.5377,1.4835,0.0,0.0,0.0,0.0,0.0,0.0,0.0,0.0,0.0,0.0,0.0,0.0,0.0,0.0,0.0,0.0,0.0,0.0,0.0,0.0,0.0,-0.5094,-0.5034,-0.5933,-0.7918,-0.7265,-0.8412,-1.1468,-1.3632,-1.5364,-1.6749,-1.8965,-1.7877,-1.3938,-1.1048,-0.8462,-0.6207,-0.5496,-0.5002,-0.463,-0.3867,0.0,0.0,0.0,0.0,0.0,0.0,0.0,0.0,-0.5489,-0.6594,-0.7841,-0.7122,0.0,0.0,0.0,0.0,0.0,-0.5578,-0.306,-0.0984,-0.3997,-0.5056,-0.5081,-0.3955,-0.3529,-0.3253,-0.2883,-0.2759,-0.2881,-0.3383,-0.2907,-0.284,-0.4086,-0.1826,-0.01,-0.0611,-0.0461,-0.0133,0.0222,0.0,0.0,0.0,0.0,0.0,0.0,0.0,0.0,0.0,0.6482,0.7175,0.7324,0.828,0.8752,0.8646,0.8752,0.8684,0.8437,0.8397,0.827,0.8076,0.8376,0.8884,0.0,0.0,1.1316,1.2061,1.3283,1.419,1.488,1.541,1.5908,1.638,1.638,1.5964,1.5543,0.0,0.0,0.0,0.0,0.0,0.0,0.0,0.0,0.0,0.0,0.0,0.0,0.0,0.0,0.0,0.0,0.0,0.0,0.0,0.0,-0.5674,-0.7091,-0.6178,-0.625,-0.7567,-0.8338,-0.9956,-1.2421,-1.4332,-1.6274,-1.8151,-1.7851,-1.578,-1.2182,-0.9939,-0.7805,-0.5823,-0.5303,-0.4924,-0.4595,0.0,0.0,0.0,0.0,0.0,0.0,0.0,0.0,0.0,0.0,-0.6445,-0.7595,-0.6461,0.0,0.0,0.0,0.0,0.0,-0.5124,-0.3904,-0.2309,-0.1261,-0.0012,0.0965,0.0974,0.1388,0.1175,-0.0952,-0.0933,-0.1246,-0.3598,-0.3127,-0.2449,-0.2609,-0.0661,0.1067,0.1619,0.1051,0.0817,0.0,0.0,0.0,0.0,0.0,0.0,0.0,0.0,0.0,0.0,0.0,0.7419,0.8126,0.8912,0.951,0.9865,0.951,0.9013,0.8377,0.7907,0.7766,0.7888,0.7772,0.8019,0.8663,0.0,1.077,1.1177,1.2676,1.3884,1.4744,1.5017,1.5688,1.6552,1.6837,1.6769,1.6617,0.0,0.0,0.0,0.0,0.0,0.0,0.0,0.0,0.0,0.0,0.0,0.0,0.0,0.0,0.0,0.0,0.0,0.0,0.0,0.0,-0.5985,-0.8171,-0.7292,-0.7361,-0.8643,-0.9986,-1.1777,-1.4025,-1.5755,-1.7619,-1.9503,-1.6659,-1.3655,-1.0579,-0.865,-0.6901,-0.5348,-0.4914,-0.4613,-0.4382,0.0,0.0,0.0,0.0,0.0,0.0,0.0,0.0,0.0,0.0,0.0,0.0,0.0,0.0,0.0,-0.5559,-0.5085,-0.5021,-0.5126,-0.4459,-0.2875,0.0702,0.2591,0.3879,0.4999,0.5107,0.4336,0.2053,0.2017,0.1319,-0.2286,-0.2614,-0.1892,-0.0515,0.0774,0.2189,0.3802,0.2926,0.2408,0.0,0.0,0.0,0.0,0.0,0.0,0.0,0.0,0.0,0.0,0.0,0.8078,0.9316,0.9917,1.0635,1.1411,1.0554,0.958,0.8504,0.7685,0.7418,0.7669,0.7355,0.7527,0.8117,0.9716,1.0477,1.0742,1.2291,1.361,1.4698,1.4698,1.5433,1.6552,1.7118,1.7312,1.7394,0.0,0.0,0.0,0.0,0.0,0.0,0.0,0.0,0.0,0.0,0.0,0.0,0.0,0.0,0.0,0.0,0.0,0.0,0.0,0.0,-0.541,-0.635,-0.7707,-1.0054,-1.3508,-1.2394,-1.315,-1.5906,-1.8373,-1.9752,-1.9991,-1.7276,-1.4488,-1.1593,-0.9153,-0.7043,-0.5247,-0.4348,-0.3936,-0.3846,-0.381,0.0,0.0,0.0,0.0,0.0,0.0,0.0,0.0,0.0,0.0,0.0,0.0,0.0,-0.7691,-0.7016,-0.6214,-0.5725,-0.6584,-0.2587,0.1696,0.1108,-0.1629,-0.2237,0.5222,0.419,0.2639,0.6134,0.6074,0.4517,0.1611,-0.0723,-0.1385,0.1113,0.2437,0.3786,0.5655,0.0,0.0,0.0,0.0,0.0,0.0,0.0,0.0,0.0,0.0,0.0,0.0,0.0,0.0,1.135,1.1479,1.2104,1.3302,1.19,1.0433,0.8872,0.8166,0.7583,0.7058,0.7324,0.7809,0.8512,0.9847,1.0755,1.1415,1.2493,1.361,1.4698,1.4698,1.5433,1.6552,1.7118,1.7312,1.7463,0.0,0.0,0.0,0.0,0.0,0.0,0.0,0.0,0.0,0.0,0.0,0.0,0.0,0.0,0.0,0.0,0.0,0.0,0.0,-0.5034,-0.5868,-0.7796,-0.7791,-0.9312,-1.2719,-1.4083,-1.5867,-1.8136,-1.9927,-1.9758,-1.7749,-1.5397,-1.2586,-0.9412,-0.7383,-0.5904,-0.4868,-0.4057,-0.3908,-0.4202,-0.3821,-0.3781,0.0,0.0,0.0,0.0,0.0,0.0,0.0,0.0,-0.5432,-0.6192,-0.5443,-0.6419,-0.7621,-0.6509,-0.5994,-0.58,-0.587,-0.2551,0.0993,0.1319,-0.0291,0.0045,0.7663,0.8339,0.7687,0.8893,0.9456,0.8404,0.4053,0.3417,0.3649,0.3841,0.5362,0.6885,0.7966,0.0,0.0,0.0,0.0,0.0,0.0,0.0,0.0,0.0,0.0,0.0,0.0,0.0,0.0,1.2871,1.3244,1.3875,1.472,1.3082,1.1705,1.0606,0.8633,0.7667,0.7538,0.697,0.7238,0.8215,0.9551,1.0464,1.1113,1.2388,1.361,1.4744,1.5522,1.6312,1.7076,1.7585,1.8027,1.8419,0.0,0.0,0.0,0.0,0.0,0.0,0.0,0.0,0.0,0.0,0.0,0.0,0.0,0.0,0.0,0.0,0.0,0.0,-0.5087,-0.5044,-0.5917,-0.7957,-0.7552,-0.8605,-1.1489,-1.4634,-1.698,-1.8487,-1.9898,-1.8895,-1.5622,-1.3487,-1.1111,-0.8608,-0.6456,-0.5453,-0.5335,-0.4346,-0.4147,-0.4484,-0.3939,-0.3854,0.0,0.0,0.0,0.0,0.0,0.0,0.0,0.0,-0.5144,-0.5783,-0.54,-0.6428,-0.7572,-0.6611,-0.64,-0.6334,-0.5692,-0.3594,-0.1059,0.1123,0.1195,0.2589,0.9739,1.0256,0.9849,1.1994,1.2357,1.1189,0.7647,0.7572,0.7725,0.6716,0.8205,0.9599,0.0,0.0,0.0,0.0,0.0,0.0,0.0,0.0,0.0,0.0,0.0,0.0,0.0,0.0,0.0,0.0,1.4915,1.5633,1.6115,1.4479,1.3244,1.2415,1.0022,0.8618,0.8111,0.7356,0.7391,0.8232,0.9663,1.0561,1.1195,1.2584,1.3884,1.5096,1.6312,1.6993,1.7394,1.8106,1.8574,1.8968,0.0,0.0,0.0,0.0,0.0,0.0,0.0,0.0,0.0,0.0,0.0,0.0,0.0,0.0,0.0,0.0,0.0,0.0,-0.5088,-0.5031,-0.5361,-0.6153,-0.6959,-0.8383,-1.0506,-1.3906,-1.5936,-1.6522,-1.8172,-1.7291,-1.4025,-1.1888,-1.0544,-0.984,-0.6838,-0.6009,-0.6788,-0.525,-0.4599,-0.4576,-0.416,-0.4098,-0.4198,0.0,0.0,0.0,0.0,0.0,0.0,0.0,-0.524,-0.5529,-0.6937,-0.7524,-0.7698,-0.7691,-0.7678,-0.7464,-0.6451,-0.5569,-0.386,0.0503,0.2078,0.4328,1.1051,0.8911,0.7746,1.5697,1.474,1.2526,1.2775,1.1365,1.0036,0.9585,1.0697,0.0,0.0,0.0,0.0,0.0,0.0,0.0,0.0,0.0,0.0,0.0,0.0,0.0,0.0,0.0,0.0,0.0,1.6455,1.7422,1.742,1.6219,1.5083,1.4086,1.2457,1.0677,0.8716,0.8716,0.8716,0.8798,1.0187,1.1173,1.1824,1.3242,1.4538,1.572,1.6883,1.7312,1.7422,1.8496,1.8893,1.8968,0.0,0.0,0.0,0.0,0.0,0.0,0.0,0.0,0.0,0.0,0.0,0.0,0.0,0.0,0.0,0.0,0.0,0.0,-0.5091,-0.5084,-0.5184,-0.5423,-0.6606,-0.7331,-0.7505,-1.011,-1.3505,-1.7629,-1.6929,-1.5081,-1.2095,-1.0026,-0.857,-0.7621,-0.6256,-0.559,-0.5431,-0.4604,-0.4569,-0.5065,-0.4763,-0.4724,-0.4828,0.0,0.0,0.0,0.0,0.0,0.0,0.0,0.0,0.0,-0.503,-0.6263,-0.743,-0.6387,-0.6479,-0.667,-0.5527,-0.1776,0.1661,0.0993,0.3945,0.7708,1.0365,1.1321,1.3316,1.9133,1.8835,1.6979,1.5105,1.5272,0.0,1.0793,1.2062,0.0,0.0,0.0,0.0,0.0,0.0,0.0,0.0,0.0,0.0,0.0,0.0,0.0,0.0,0.0,0.0,0.0,1.7969,1.8329,1.8066,1.5932,1.4444,1.3533,1.2613,1.1326,0.9718,0.903,0.8918,0.9364,1.0804,1.1948,1.299,1.5254,1.617,1.6219,1.7008,1.7544,1.7907,1.8224,1.8817,1.9479,0.0,0.0,0.0,0.0,0.0,0.0,0.0,0.0,0.0,0.0,-0.5084,-0.5096,0.0,0.0,0.0,0.0,0.0,0.0,-0.5106,-0.5104,-0.524,-0.5531,-0.6353,-0.7033,-0.7546,-0.9195,-1.1579,-1.4678,-1.3925,-1.2222,-0.9669,-0.9032,-0.8394,-0.7748,-0.7101,-0.66,-0.6186,-0.5188,-0.505,-0.5474,-0.5197,-0.5175,-0.5264,0.0,0.0,0.0,0.0,0.0,0.0,0.0,0.0,0.0,-0.4494,-0.5513,-0.654,-0.5971,-0.6232,-0.6305,-0.437,-0.0633,0.2935,0.3873,0.7229,1.0878,1.3138,1.4549,1.6565,2.0605,2.0524,1.9502,1.8787,1.8663,0.0,0.0,0.0,0.0,0.0,0.0,0.0,0.0,0.0,0.0,0.0,0.0,0.0,0.0,0.0,0.0,0.0,0.0,0.0,0.0,1.9077,1.9258,1.8549,1.6334,1.4738,1.3864,1.3309,1.2351,1.1089,1.0292,1.0118,1.0525,1.2246,1.3561,1.4684,1.6714,1.7259,1.6802,1.7156,1.7355,1.7513,1.7708,1.8332,1.9102,0.0,0.0,0.0,0.0,0.0,0.0,0.0,0.0,0.0,-0.5024,-0.5064,-0.5078,0.0,0.0,0.0,-0.5092,-0.5093,-0.5098,-0.5105,-0.5102,-0.542,-0.616,-0.632,-0.7361,-0.9429,-0.9987,-0.9896,-0.9115,-0.9878,-0.9188,-0.7158,-0.8542,-0.9178,-0.9153,-0.8608,-0.8225,-0.7918,-0.632,-0.5644,-0.565,-0.5511,-0.5497,-0.5532,-0.5231,0.0,0.0,0.0,0.0,0.0,0.0,0.0,0.0,-0.4851,-0.516,-0.5352,-0.6017,-0.6345,-0.5868,-0.2995,-0.0972,0.1811,0.7997,1.1092,1.364,1.7596,1.778,1.7913,2.0725,2.0566,2.0623,2.2892,2.1525,1.9758,0.0,0.0,0.0,0.0,0.0,0.0,0.0,0.0,0.0,0.0,0.0,0.0,0.0,0.0,0.0,0.0,0.0,0.0,0.0,1.9762,2.0055,1.9053,1.705,1.5576,0.0,1.4256,1.3563,1.2673,1.2066,1.1867,1.2139,1.4112,1.5551,1.6634,1.78,1.7947,1.745,1.7353,1.7006,1.6636,1.7081,1.7616,1.8201,0.0,0.0,0.0,0.0,0.0,0.0,0.0,0.0,-0.5034,-0.5068,-0.5093,-0.5097,-0.5078,-0.5096,0.0,-0.5103,-0.5091,-0.5097,-0.5093,-0.5105,-0.5427,-0.6171,-0.7253,-0.8055,-0.849,-0.8029,-0.726,-0.6202,-0.7718,-0.7842,-0.6673,-0.7191,-0.7494,-0.7588,-0.7351,-0.6782,-0.5943,-0.4803,-0.4465,-0.4769,-0.5608,-0.5684,-0.5336,-0.5829,-0.5132,0.0,0.0,0.0,0.0,0.0,0.0,0.0,-0.4318,-0.4841,-0.5282,-0.4874,-0.4096,-0.2981,-0.1232,0.2153,0.5813,0.8401,1.1659,1.4677,1.6488,1.712,1.8221,2.1416,2.1876,2.2095,2.3236,0.0,0.0,0.0,0.0,0.0,0.0,0.0,0.0,0.0,0.0,0.0,0.0,0.0,0.0,0.0,0.0,0.0,0.0,0.0,0.0,2.0353,1.9625,1.9484,2.0071,1.7179,1.5317,0.0,1.4455,1.4289,1.4038,1.2496,1.2441,1.3697,1.4978,1.6355,1.78,1.893,1.9043,1.8478,1.7632,1.7232,1.7081,1.679,1.7269,1.8201,0.0,0.0,0.0,0.0,0.0,0.0,0.0,0.0,-0.5022,-0.5057,-0.5089,-0.5093,-0.5059,-0.5082,0.0,0.0,-0.5102,-0.5095,-0.5097,-0.5109,-0.5579,-0.6636,-0.7727,-0.8069,-0.7588,-0.6762,-0.5825,-0.4772,-0.5583,-0.5894,-0.5746,-0.63,-0.6693,-0.6918,-0.6995,-0.6394,-0.5255,-0.4512,-0.4347,-0.466,-0.5423,-0.5585,-0.5415,-0.5597,-0.4927,-0.3869,-0.3637,0.0,0.0,0.0,0.0,0.0,0.0,0.0,-0.4805,-0.4899,-0.4102,-0.2651,-0.0045,0.3034,0.6435,1.0317,1.2891,1.4627,1.5203,1.6386,1.789,1.9841,2.1296,2.248,2.3389,0.0,0.0,0.0,0.0,0.0,0.0,0.0,0.0,0.0,0.0,0.0,0.0,0.0,0.0,0.0,0.0,0.0,0.0,1.8,1.9325,2.0449,1.9589,1.9455,2.0156,1.734,1.5621,1.5018,1.4847,1.469,1.447,1.3327,1.3276,1.4135,1.4954,1.6005,1.7338,1.8477,1.8717,1.8338,1.7526,1.6912,1.6508,1.6447,1.6803,1.7519,0.0,0.0,0.0,0.0,0.0,0.0,0.0,0.0,0.0,-0.5024,-0.5064,-0.507,-0.5027,-0.5066,-0.5107,0.0,0.0,0.0,-0.5097,-0.5226,-0.5819,-0.6967,-0.7701,-0.7698,-0.6916,-0.6006,-0.5128,-0.4266,-0.3956,-0.412,-0.4729,-0.564,-0.6274,-0.6641,-0.6803,-0.6226,-0.5145,-0.4498,-0.4338,-0.457,-0.5023,-0.5268,-0.5334,-0.52,-0.4672,-0.3924,-0.3543,-0.3575,-0.3803,-0.3847,0.0,0.0,0.0,0.0,-0.4268,-0.5089,-0.4793,-0.3459,-0.0247,0.2976,0.6745,1.2321,1.4044,1.4335,1.436,1.5774,1.7192,1.752,1.9889,2.2204,0.0,0.0,0.0,0.0,0.0,0.0,0.0,0.0,0.0,0.0,0.0,0.0,0.0,0.0,0.0,0.0,0.0,0.0,1.7035,1.8451,1.9479,1.9991,1.9538,1.9487,1.9916,1.764,1.6212,1.5706,1.5374,1.5013,1.4596,1.4246,1.4185,1.4326,1.4831,1.5537,1.648,1.7582,1.8033,1.797,1.7334,1.6684,1.6136,1.6377,1.6605,1.7043,0.0,0.0,0.0,0.0,0.0,0.0,0.0,0.0,0.0,0.0,-0.5095,-0.5095,-0.5093,-0.5095,-0.5107,-0.5106,-0.5091,-0.5106,-0.5095,0.0,0.0,-0.6252,-0.6846,-0.7082,-0.6899,-0.5876,-0.508,-0.4549,-0.3825,-0.363,-0.3966,-0.5009,-0.5813,-0.6327,-0.5726,-0.5332,-0.5032,-0.3685,-0.3227,-0.3498,-0.447,-0.4641,-0.4413,-0.5407,-0.4996,-0.3905,-0.384,-0.3818,-0.3795,-0.3751,-0.3973,0.0,0.0,0.0,-0.4124,-0.4252,-0.4367,-0.4336,-0.3807,0.3147,1.0722,1.2562,1.3973,1.493,1.5049,1.5683,1.6201,0.0,1.871,0.0,0.0,0.0,0.0,0.0,0.0,0.0,0.0,0.0,0.0,0.0,0.0,0.0,0.0,0.0,0.0,0.0,0.0,0.0,1.792,1.8168,1.8922,2.0373,1.9078,1.8932,2.0047,1.8144,1.6834,1.6188,1.5854,1.5477,1.5013,1.4968,1.5026,1.5162,1.5698,1.6265,1.687,1.7493,1.8078,1.849,1.7471,1.7387,1.772,1.7306,1.7452,1.7999,0.0,0.0,0.0,0.0,0.0,0.0,0.0,0.0,0.0,0.0,0.0,-0.5097,-0.5097,-0.5097,-0.5101,-0.5091,-0.5106,-0.511,-0.5098,-0.5851,-0.6209,-0.6,-0.6277,-0.6298,-0.6008,-0.5134,-0.447,-0.4046,-0.3719,-0.3722,-0.4043,-0.462,-0.5159,-0.5583,-0.4543,-0.423,-0.4395,-0.3189,-0.2917,-0.3344,-0.378,-0.3778,-0.3511,-0.3739,-0.3562,-0.3128,-0.2783,-0.2863,-0.3184,-0.3612,-0.3971,-0.4226,-0.4056,0.0,0.0,0.0,-0.3737,-0.3924,-0.1301,0.5188,1.1464,1.252,1.3547,1.4302,1.4433,1.5143,1.5594,1.5034,0.0,0.0,0.0,0.0,0.0,0.0,0.0,0.0,0.0,0.0,0.0,0.0,0.0,0.0,0.0,0.0,0.0,0.0,0.0,1.8378,1.8378,1.8378,1.8772,1.9639,1.8863,1.8766,1.948,1.8188,1.7101,1.6301,1.6136,1.5883,1.5477,1.5477,1.5248,1.4869,1.5095,1.5474,1.5952,1.6539,1.7323,1.8119,1.7902,1.8092,1.8461,1.8718,1.865,1.8619,0.0,0.0,0.0,0.0,0.0,0.0,0.0,0.0,0.0,0.0,0.0,-0.5099,-0.5105,0.0,0.0,0.0,-0.5097,-0.5108,-0.5097,-0.5637,-0.5862,-0.5632,-0.563,-0.5469,-0.5103,-0.4511,-0.4002,-0.3577,-0.3569,-0.3754,-0.41,-0.425,-0.4631,-0.5155,-0.4138,-0.3901,-0.4197,-0.3308,-0.3296,-0.3773,-0.2732,-0.2217,-0.2145,-0.264,-0.2962,-0.2999,-0.1732,-0.2355,-0.381,-0.3944,-0.407,-0.4166,-0.4042,-0.3701,0.0,0.0,0.0,-0.267,0.0459,0.5331,1.002,1.2085,1.2648,1.2868,1.3612,1.4393,1.4787,0.0,0.0,0.0,0.0,0.0,0.0,0.0,0.0,0.0,0.0,0.0,0.0,0.0,0.0,0.0,0.0,0.0,0.0,0.0,0.0,1.8789,1.8789,1.8789,1.8932,1.929,1.8914,1.886,1.9201,1.8205,1.7349,1.6638,1.6485,1.6301,1.6067,1.5955,1.558,1.4954,1.4876,1.5013,1.5328,1.5839,1.6684,1.7762,1.8223,1.8684,1.9195,1.9973,1.9862,1.9505,0.0,0.0,0.0,0.0,0.0,0.0,0.0,0.0,0.0,0.0,0.0,-0.5105,-0.5104,-0.511,-0.5097,-0.5097,-0.51,-0.5109,-0.5094,-0.5087,-0.5008,-0.4862,-0.4739,0.0,-0.4544,-0.4318,-0.3971,-0.3508,-0.3326,-0.3425,-0.3823,-0.3828,-0.4426,-0.5472,-0.5142,-0.4981,-0.4909,-0.4351,-0.4502,-0.4785,-0.1092,0.0404,0.0044,-0.3301,-0.4621,-0.4287,-0.1194,-0.3087,-0.6789,-0.5047,-0.4346,-0.4134,-0.3825,-0.2837,-0.2004,0.0,0.0,0.0,-0.1651,0.1425,0.6133,1.109,1.1103,1.0527,1.2889,1.3417,1.3389,0.0,0.0,0.0,0.0,0.0,0.0,0.0,0.0,0.0,0.0,0.0,0.0,0.0,0.0,0.0,0.0,0.0,0.0,0.0,0.0,1.9259,1.9259,1.9259,1.9527,2.012,1.938,1.9219,1.9743,1.8379,1.767,1.7625,1.706,1.6763,1.6738,1.6421,1.6246,1.6176,1.587,1.5741,1.577,1.58,1.6578,1.7762,1.8223,1.9153,2.0286,2.0766,2.0911,2.0879,0.0,0.0,0.0,0.0,0.0,0.0,0.0,0.0,0.0,0.0,0.0,0.0,0.0,-0.5074,-0.5091,-0.5034,-0.5067,-0.5103,-0.5097,-0.5071,-0.5025,-0.493,-0.4791,-0.461,-0.4367,-0.4307,-0.4031,-0.3563,-0.336,-0.345,-0.3809,-0.4113,-0.4352,-0.453,-0.4481,-0.4635,-0.4943,-0.4912,-0.4278,-0.2899,0.1341,0.238,0.1044,-0.1957,-0.2596,-0.1655,0.0314,-0.0459,-0.2231,-0.0952,-0.201,-0.3868,-0.384,-0.3322,-0.2524,-0.1489,-0.0618,-0.0118,-0.0639,0.0405,0.2572,0.6401,0.8867,1.0728,1.2227,1.2609,1.2698,1.2801,0.0,0.0,0.0,0.0,0.0,0.0,0.0,0.0,0.0,0.0,0.0,0.0,0.0,0.0,0.0,0.0,0.0,0.0,0.0,0.0,1.9305,1.9305,1.9387,1.9634,1.9344,1.9211,1.9291,1.8785,1.834,1.7941,1.7742,1.7432,1.7044,1.6921,1.6777,1.6607,1.6474,1.6191,1.5858,1.6682,1.7484,1.8222,1.9075,2.0128,2.1197,2.1645,2.1645,2.1446,0.0,0.0,0.0,0.0,0.0,0.0,0.0,0.0,0.0,-0.5082,0.0,0.0,0.0,0.0,-0.5074,-0.5047,-0.5075,-0.5104,-0.5096,-0.5096,-0.5088,-0.5043,-0.4904,-0.4701,-0.4432,-0.4435,-0.4223,-0.3803,-0.3599,-0.3545,-0.3638,-0.3979,-0.4204,-0.4337,-0.4437,-0.4712,-0.514,-0.513,-0.4463,-0.2977,0.2019,0.3096,0.1487,-0.0855,-0.127,-0.0348,0.1687,0.2405,0.253,0.3261,0.2088,-0.01,-0.255,-0.28,-0.1906,-0.0429,0.0,0.0,0.0,0.0,0.0349,0.1821,0.4452,0.7325,0.9884,1.125,1.2034,1.2288,0.0,0.0,0.0,0.0,0.0,0.0,0.0,0.0,0.0,0.0,0.0,0.0,0.0,0.0,0.0,0.0,0.0,0.0,0.0,0.0,1.9305,1.9305,1.932,1.9394,1.9653,1.9611,1.9216,1.9069,1.8807,1.8401,1.8303,1.8063,1.7664,1.7461,1.7261,1.7109,1.7133,1.6748,1.6185,1.6939,1.7761,1.8635,1.9377,2.0462,2.1658,2.2135,2.2106,2.1899,0.0,0.0,0.0,0.0,0.0,0.0,0.0,0.0,-0.4946,-0.5077,0.0,0.0,0.0,0.0,0.0,-0.5145,-0.5137,-0.5131,-0.5108,-0.5057,-0.502,-0.502,-0.491,-0.4792,-0.4718,-0.4712,-0.4537,-0.4196,-0.3971,-0.3649,-0.326,-0.3317,-0.3924,-0.4976,-0.5125,-0.5307,-0.5484,-0.5002,-0.5173,-0.5241,0.0737,0.2506,0.1412,-0.015,-0.0799,-0.0473,0.2815,0.5137,0.665,0.6971,0.0,0.0,0.0,-0.116,0.0,0.0,0.0,0.0,0.0,0.0,0.0,-0.21,-0.1968,0.0061,0.5712,0.0,1.133,1.173,0.0,0.0,0.0,0.0,0.0,0.0,0.0,0.0,0.0,0.0,0.0,0.0,0.0,0.0,0.0,0.0,0.0,0.0,0.0,1.9305,1.9305,1.9305,1.9394,1.9596,2.036,2.0383,1.9614,1.9198,1.9001,1.9019,1.8752,1.8604,1.8585,1.7992,1.7715,1.7721,1.7766,1.7455,1.6847,1.651,1.7361,1.8892,1.8993,2.0098,2.1655,2.2135,2.231,2.2338,0.0,0.0,0.0,0.0,0.0,-0.4765,-0.4849,-0.488,-0.4938,0.0,0.0,0.0,-0.4943,-0.5543,-0.5993,-0.6033,-0.6225,-0.5985,-0.5147,-0.3963,-0.3301,-0.3301,-0.3258,-0.3786,-0.4961,-0.4853,-0.4608,-0.428,-0.3201,-0.2484,-0.2138,-0.2164,-0.2906,-0.4226,-0.4808,-0.4446,-0.3498,-0.44,-0.4816,-0.4614,-0.1699,0.0213,0.1278,0.0,0.0,0.0,0.0,0.5305,0.6738,0.0,0.6277,0.5029,0.0,-0.0336,0.0,0.0,0.0,0.0,0.0,0.0,0.0,0.0,0.0,0.0,0.0,0.0,0.9944,0.0,0.0,0.0,0.0,0.0,0.0,0.0,0.0,0.0,0.0,0.0,0.0,0.0,0.0,0.0,0.0,0.0,0.0,0.0,1.9504,1.9305,1.9305,1.9442,1.9591,1.9738,1.9868,1.9838,1.9614,1.9353,1.923,1.923,1.9148,1.893,1.8585,1.8432,1.8132,1.7772,1.779,1.8002,1.8294,1.8166,1.8283,1.8647,1.9677,2.0694,2.1669,2.234,2.2755,2.3028,0.0,0.0,-0.4697,-0.4999,-0.5118,-0.5269,-0.563,-0.5447,-0.5314,0.0,0.0,0.0,-0.5409,-0.6238,-0.6638,-0.6333,-0.6186,-0.5509,-0.4156,-0.246,-0.1523,-0.1523,-0.1523,-0.2278,-0.3947,-0.4605,-0.446,-0.3513,-0.2018,-0.1182,-0.0987,-0.0987,-0.2032,-0.3934,-0.4517,-0.3938,-0.2614,-0.4176,-0.4531,-0.3868,-0.1849,0.0,0.0,0.1344,0.3417,0.0,0.0,0.0,0.6345,0.744,0.6773,0.0,0.0,0.081,-0.1199,-0.0265,0.0,-0.0202,-0.1123,-0.124,-0.1188,-0.1643,0.0,0.0,-0.0243,0.3509,0.0,0.0,0.0,0.0,0.0,0.0,0.0,0.0,0.0,0.0,0.0,0.0,0.0,0.0,0.0,0.0,0.0,0.0,0.0,0.0,1.9777,1.938,1.9305,1.9376,1.954,1.9778,1.9713,1.9682,1.9682,1.9509,1.938,1.9305,1.9305,1.9115,1.877,1.8642,1.8371,1.7971,1.7971,1.8331,1.8903,1.8992,1.924,1.967,2.0454,2.1307,2.2166,2.3082,2.352,2.3815,0.0,0.0,-0.4791,-0.5559,-0.5725,-0.6021,-0.6776,-0.634,-0.596,0.0,-0.5475,-0.5394,-0.635,-0.7003,-0.7079,-0.6353,-0.5673,-0.4504,-0.2714,-0.0957,0.0,0.0,-0.0371,-0.1064,-0.2104,-0.4061,-0.4295,-0.2706,-0.089,0.0,0.0,0.0,-0.125,-0.3495,-0.4183,-0.3712,-0.25,-0.3998,-0.4025,-0.2828,-0.0649,0.0093,0.0,0.0,0.2241,0.2757,0.3569,0.4475,0.5753,0.8648,0.8309,0.0,0.0,0.0,-0.198,-0.0731,-0.0278,-0.0618,-0.2587,-0.2901,-0.2888,-0.3793,-0.1997,0.0,0.0451,0.2269,0.489,0.0,0.0,0.0,0.0,0.0,0.0,0.0,0.0,0.0,0.0,0.0,0.0,0.0,0.0,0.0,0.0,0.0,2.1859,2.0684,1.9823,1.9345,1.9286,1.9338,1.9509,1.9813,1.9908,1.9908,1.979,1.9656,1.9485,1.9259,1.9259,1.9186,1.9022,1.8784,1.8533,1.8266,1.8266,1.8618,1.9171,1.9355,2.0076,2.1085,2.1104,2.173,2.278,2.3964,2.4395,2.4521,-0.4328,-0.4299,-0.4555,-0.5467,-0.5583,-0.5849,-0.6691,-0.6737,-0.6695,-0.6713,-0.659,-0.6863,-0.7855,-0.749,-0.7091,-0.6941,-0.6598,-0.5282,-0.2692,-0.093,0.0,0.0,-0.2637,-0.2968,-0.0519,-0.3348,-0.4757,-0.458,-0.1495,0.0,0.0,0.0,-0.0269,-0.0877,-0.3388,-0.3712,-0.2428,-0.2865,-0.2128,-0.0643,-0.0314,-0.0216,0.0,0.2465,0.3972,0.4771,0.4404,0.4757,0.5741,0.8139,0.8705,0.7483,0.0,0.0,0.3572,-0.1244,-0.2044,-0.1468,-0.1898,-0.2569,-0.3118,-0.295,-0.1445,0.0,0.0105,0.3339,0.6544,0.0,0.0,0.0,0.0,0.0,0.0,0.0,0.0,0.0,0.0,0.0,0.0,0.0,0.0,0.0,0.0,0.0,1.9457,1.7624,1.7762,1.8292,1.9164,1.9981,2.0264,1.9963,2.064,2.0625,1.9809,1.9656,1.9413,1.9069,1.9069,1.9111,1.9237,1.9195,1.9021,1.8767,1.8767,1.9501,2.0738,2.0394,2.0237,2.0289,2.0933,2.1608,2.2399,2.3861,2.4334,2.4452,-0.4144,-0.4393,-0.4882,-0.5782,-0.6192,-0.6695,-0.7611,-0.7373,-0.7132,-0.7233,-0.7303,-0.7535,-0.8053,-0.7852,-0.7488,-0.6987,-0.6728,-0.5778,-0.3867,-0.1391,0.0,0.0,-0.1641,-0.2558,-0.2551,-0.2444,-0.285,-0.376,-0.1234,0.0,0.0,0.0,-0.2711,-0.7419,-0.3844,-0.1865,-0.1257,-0.2203,-0.21,-0.126,-0.094,0.0,0.0544,0.2696,0.3928,0.4365,0.399,0.4518,0.5695,0.7136,0.713,0.0,0.4847,0.3861,0.2865,0.0878,-0.1027,-0.2569,-0.2859,-0.302,-0.3079,-0.297,-0.2118,0.0,0.0,0.1822,0.3868,0.5128,0.531,0.0,0.0,0.0,0.0,0.0,0.0,0.0,0.0,0.0,0.0,0.0,0.0,0.0,0.0,0.0,1.8285,1.6537,1.6835,1.747,1.831,1.9186,1.9933,2.0527,2.0876,2.1054,2.1054,2.0877,2.044,1.9734,2.0011,1.9912,1.9507,1.9737,1.9698,1.9435,1.9211,2.0196,2.1936,2.1069,2.1284,2.2191,2.22,2.2282,2.2599,2.4094,2.4608,2.4759,-0.3946,-0.4379,-0.5009,-0.5924,-0.662,-0.7364,-0.8305,-0.7922,-0.7581,-0.7763,-0.7986,-0.8115,-0.8136,-0.8459,-0.8303,-0.738,-0.7136,-0.6437,-0.5015,-0.2125,-0.0543,-0.0748,-0.0268,-0.1285,-0.405,-0.2067,-0.1287,-0.1939,-0.064,0.0,0.0,0.0,-0.4384,-1.1935,-0.4279,-0.0911,-0.1069,-0.2445,-0.2901,-0.2649,0.0,-0.0699,0.093,0.2524,0.3057,0.3013,0.309,0.4042,0.5349,0.5738,0.5166,0.4608,0.6431,0.4233,0.1264,0.282,0.0903,-0.1849,-0.2531,-0.2207,-0.1885,-0.2772,-0.2714,-0.1996,0.0,0.0,0.0,0.0,0.0,0.0,0.0,0.0,0.0,0.0,0.0,0.0,0.0,0.0,0.0,0.0,0.0,0.0,0.0,0.0,1.6936,1.5708,1.5938,1.6447,1.7205,1.8231,1.9449,2.0909,2.1054,2.1466,2.2233,2.1932,2.1324,2.0453,2.0717,2.0505,1.984,2.0072,2.0103,1.9976,1.9435,2.0459,2.2391,2.1118,2.1948,2.3942,2.334,2.3021,2.3035,2.4331,2.4793,2.4925,-0.3766,-0.3779,-0.4087,-0.5135,-0.5777,-0.6468,-0.7409,-0.796,-0.8322,-0.846,-0.8906,-0.9269,-0.9386,-0.975,-0.9751,-0.9163,-0.9028,-0.7741,-0.4828,-0.3069,-0.253,-0.3411,-0.1237,-0.0175,-0.0565,-0.3164,-0.3125,-0.0274,-0.0091,0.0,0.0,0.0,-0.0615,-0.1793,-0.3324,-0.4171,-0.4524,-0.4532,-0.3991,0.0,-0.3014,-0.1711,0.0,0.1961,0.2161,0.1592,0.2124,0.3264,0.4453,0.0,0.4227,0.4159,0.0,0.219,0.3683,0.1585,0.2432,0.3851,0.2888,0.27,0.2025,-0.11,-0.1844,-0.1483,0.0,0.0,0.0079,0.037,0.0,0.0,0.0,0.0,0.0,0.0,0.0,0.0,0.0,0.0,0.0,0.0,0.0,0.0,0.0,0.0,0.0,1.3551,1.3854,1.4724,1.6265,1.8338,1.9795,2.047,2.1559,2.2098,2.2036,2.1295,2.0704,2.0228,1.9578,1.9621,2.0298,1.971,1.963,1.9951,1.9239,1.9881,2.1309,2.0073,2.0729,2.2562,2.2712,2.3093,2.3674,2.4236,2.4388,2.4408,-0.3468,-0.3778,-0.4143,-0.4552,-0.5118,-0.5841,-0.674,-0.7551,-0.8036,-0.7977,-0.8252,-0.8575,-0.8818,-0.8407,-0.8332,-0.8893,-0.8383,-0.7445,0.0,0.0,-0.3357,-0.2939,-0.3248,-0.3228,-0.279,-0.2359,-0.2416,-0.2962,-0.0981,0.0,0.0,0.0,0.0,-0.0134,-0.3166,-0.5256,-0.6486,-0.5422,-0.3571,0.0,0.0,0.0,0.0,0.1061,0.1734,0.1906,0.2607,0.3808,0.5061,0.0,0.4293,0.0,0.0,0.0,0.0,0.1936,0.2525,0.3124,0.4144,0.4054,0.3931,0.4986,0.225,0.0,-0.0113,0.0,-0.0,0.0,0.0,0.0,0.0,0.0,0.0,0.0,0.0,0.0,0.0,0.0,0.0,0.0,0.0,0.0,0.0,0.0,0.0,0.0,0.0,1.3242,1.5496,1.7096,1.8909,2.1084,2.1574,2.2099,2.2747,2.2303,2.1489,2.0386,2.0355,2.0293,2.023,2.003,2.0067,2.0216,1.9738,2.0534,2.2039,2.0783,2.1301,2.2795,2.1984,2.189,2.2297,2.2643,2.3124,2.3757,-0.315,-0.3562,-0.3904,-0.3859,-0.4424,-0.5242,-0.6265,-0.7011,-0.7446,-0.7413,-0.7751,-0.8131,-0.8493,-0.8303,-0.861,-0.9721,-0.9297,-0.8699,0.0,0.0,-0.4589,-0.3589,-0.4755,-0.5333,-0.5105,-0.1758,-0.1212,-0.3693,-0.1212,0.0,0.0,0.0,0.0,-0.0115,-0.2781,-0.4749,-0.6046,-0.4972,-0.3151,-0.1103,-0.2687,-0.3106,-0.2465,-0.005,0.1401,0.2339,0.3264,0.4409,0.5573,0.5955,0.4396,0.0,0.4508,0.0,0.0,0.2839,0.3164,0.3083,0.5193,0.0,0.0,0.0,0.0,0.0,0.0,0.0,0.0,0.0,0.0,0.0,0.0,0.0,0.0,0.0,0.0,0.0,0.0,0.0,0.0,0.0,0.0,0.0,0.0,0.0,0.0,0.0,0.0,0.0,1.4941,1.636,1.8469,2.1406,2.1716,2.2282,2.3221,2.2847,2.1951,2.0503,2.0679,2.0517,2.01,1.9981,1.998,2.0096,1.9804,2.0643,2.2101,2.1171,2.1644,2.2833,2.1375,2.0924,2.1181,2.184,2.2594,2.3534,-0.2824,-0.2882,-0.2935,-0.2949,-0.3603,-0.461,-0.5997,-0.6449,-0.6772,-0.7157,-0.795,-0.8639,-0.9044,-1.0893,-1.2308,-1.2812,0.0,-1.2948,-1.1154,0.0,-0.6708,-0.6931,-0.522,-0.4765,-0.5841,-0.2009,-0.0058,-0.0173,-0.0058,0.0,0.0,0.0,0.0,-0.0071,-0.1806,-0.2496,-0.2419,-0.2882,-0.321,-0.3451,-0.4151,-0.5002,-0.541,0.0,0.1042,0.2395,0.3857,0.0,0.0,0.4946,0.4222,0.0,0.0,0.0,0.0,0.0,0.0,0.0,0.0,0.0,0.0,0.7425,0.0,0.0,0.0,0.0,0.7807,0.0,0.0,0.0,0.0,0.0,0.0,0.0,0.0,0.0,0.0,0.0,0.0,0.0,0.0,0.0,0.0,0.0,0.0,0.0,0.0,0.0,1.4648,1.6905,1.9029,2.096,2.2279,2.296,2.3015,2.2226,2.1382,2.0484,1.973,1.9621,2.0064,1.9088,1.8904,1.9307,1.9052,1.9566,2.057,2.0541,2.1161,2.2043,2.0935,2.0683,2.11,2.2673,2.3419,2.397,-0.252,-0.252,-0.2568,-0.2567,-0.2796,-0.3473,-0.4916,-0.6196,-0.7419,0.0,-0.8488,0.0,0.0,-1.0273,-1.0569,0.0,0.0,-1.142,-1.0245,-0.851,0.0,-0.6332,-0.4778,-0.4175,0.0,-0.2485,-0.0893,0.0,0.0,0.0,0.0,0.0,0.0,-0.0077,-0.1755,-0.2467,-0.2472,0.0,0.0,0.0,0.0,-0.5428,-0.434,0.0,0.0,0.0048,0.2713,0.4474,0.0,0.5312,0.4691,0.4003,0.4054,0.3124,0.2558,0.5258,0.5148,0.0,0.0,0.0,0.5569,0.6074,0.0,0.0,0.0,0.0,0.0,0.0,0.0,0.0,0.0,0.0,0.0,0.0,0.0,0.0,0.0,0.0,0.0,0.0,0.0,0.0,0.0,0.0,0.0,0.0,0.0,0.0,0.0,1.7692,1.9519,2.199,2.2629,2.2702,2.2208,2.2027,2.1176,1.9693,1.9418,1.9664,2.0332,1.9326,1.9236,1.9909,2.0121,2.0425,2.0815,2.1519,2.1935,2.2007,2.1101,2.0823,2.1065,2.2459,2.3277,2.4042,-0.248,-0.2364,-0.2324,-0.2324,-0.2605,-0.322,-0.4422,0.0,0.0,0.0,-0.8757,0.0,-1.0871,0.0,-1.035,0.0,-1.1759,-1.1178,-1.0089,-0.9148,0.0,-0.6025,-0.5053,0.0,0.0,0.0,-0.1804,0.0,0.0,0.0,0.0,0.0,0.0,-0.0076,-0.173,-0.2829,-0.3522,-0.4549,-0.4397,0.0,0.0,-0.6997,0.0,0.0,-0.3239,-0.0701,0.0,0.4091,0.5148,0.5429,0.5325,0.5135,0.5715,0.4956,0.4337,0.6484,0.5863,0.4785,0.6279,0.5783,0.0,0.5626,0.4505,0.0,0.1154,0.0,0.8559,0.0,0.0,0.0,0.0,0.0,0.0,0.0,0.0,0.0,0.0,0.0,0.0,0.0,0.0,0.0,0.0,0.0,0.0,0.0,0.0,0.0,0.0,0.0,2.0281,2.2544,2.318,2.3067,2.2226,2.2089,2.1216,1.9711,1.9436,1.9711,2.0466,1.9465,1.9434,2.021,2.039,2.0702,2.1146,2.2114,2.2641,2.2758,2.1828,2.1724,2.218,2.3064,2.4242,2.5574,-0.2666,-0.239,-0.222,-0.223,-0.2975,0.0,0.0,0.0,-0.7225,0.0,-0.881,-0.9261,-1.0548,-1.1019,-1.1597,-1.258,-1.2929,-1.2421,-1.0855,-1.012,0.0,0.0,-0.5906,-0.5736,-0.5494,0.0,0.0,0.0,-0.006,0.0,0.0,0.0,-0.0037,-0.0183,-0.1718,-0.3514,-0.5359,-0.5119,-0.4664,-0.4478,-0.8415,-0.9411,-0.8378,-0.6884,0.0,0.0215,0.2549,0.3817,0.4539,0.5261,0.5982,0.6588,0.6588,0.7128,0.7723,0.7723,0.7235,0.6544,0.5927,0.5597,0.5495,0.5982,0.0,0.0,0.0,0.0,0.7282,0.0,0.0,0.0,0.0,0.0,0.0,0.0,0.0,0.0,0.0,0.0,0.0,0.0,0.0,0.0,0.0,0.0,0.0,0.0,0.0,0.0,0.0,0.0,0.0,2.2602,2.3858,2.4055,2.3033,2.2365,2.151,2.0484,1.9675,1.9711,2.0466,1.9482,1.9469,2.0192,1.9893,2.038,2.1496,2.2235,2.3208,2.4098,2.2966,2.3224,2.4258,2.4495,2.6229,2.8294,-0.2546,-0.2474,-0.2527,-0.2623,-0.3018,-0.3643,0.0,0.0,0.0,0.0,-0.9621,-1.0135,-1.1767,-1.1586,-1.1579,-1.2041,-1.2374,0.0,0.0,0.0,0.0,-0.7389,-0.5764,-0.4934,-0.5108,-0.4728,-0.3967,-0.2892,0.0,0.0,0.0,0.0,-0.064,-0.1811,-0.2214,-0.4514,-0.803,-0.7143,-0.7423,-0.8512,-0.8807,-0.7816,0.0,0.0,-0.1548,0.166,0.3479,0.459,0.5261,0.5429,0.5982,0.6588,0.6588,0.7128,0.783,0.8374,0.7996,0.7402,0.7252,0.6744,0.6283,0.6244,0.6544,0.6631,0.0,0.0,0.0,0.0,0.0,0.0,0.0,0.0,0.0,0.0,0.0,0.0,0.0,0.0,0.0,0.0,0.0,0.0,0.0,0.0,0.0,0.0,0.0,0.0,0.0,0.0,0.0,2.3115,2.4256,2.4341,2.3238,2.2557,2.1625,2.0484,1.9675,1.9711,2.0466,1.9767,1.981,2.0436,2.0499,2.1018,2.1911,2.2747,2.3615,2.4317,2.3162,2.3537,2.4835,2.5739,2.7048,2.841,-0.2803,-0.2937,-0.3119,-0.3254,0.0,0.0,-0.5718,-0.636,0.0,-0.9636,-0.9666,0.0,-1.1148,-1.1481,-1.169,-1.1857,-1.2378,0.0,-1.0451,0.0,0.0,-0.6544,-0.5835,-0.5396,-0.5262,-0.4958,0.0,-0.4245,0.0,-0.1118,0.0,0.0,-0.0833,-0.2321,-0.2321,-0.4103,-0.7077,-0.6189,-0.6833,-0.8356,-0.7383,0.0,0.0,-0.2587,-0.0096,0.2967,0.4804,0.5703,0.591,0.5592,0.6411,0.7456,0.6804,0.7343,0.8268,0.8699,0.8262,0.7723,0.7723,0.7396,0.705,0.6929,0.7484,0.7904,0.7432,0.7985,0.8459,0.0,0.0,0.0,0.0,0.0,0.0,0.0,0.0,0.0,0.0,0.0,0.0,0.0,0.0,0.0,0.0,0.0,0.0,0.0,0.0,0.0,0.0,0.0,0.0,2.2776,2.2824,2.319,2.3945,2.1751,2.0814,2.1139,1.9978,1.9834,2.0609,2.0364,2.0428,2.0726,2.0872,2.1395,2.2164,2.2655,2.3555,2.4626,2.4596,2.5016,2.5812,2.7153,2.7966,2.842,-0.3273,-0.358,-0.3855,-0.3929,0.0,0.0,0.0,-0.7231,0.0,-0.9589,0.0,-0.9494,-1.0018,-1.1171,-1.1957,-1.2037,0.0,-1.1816,-0.9124,-0.9723,-0.861,-0.5164,-0.5994,-0.6211,-0.5555,-0.5178,-0.4893,0.0,0.0,-0.2743,-0.0507,-0.0164,-0.0689,-0.1933,-0.2304,-0.3091,0.0,-0.415,-0.4898,-0.6013,-0.4957,-0.3577,-0.2061,-0.1004,0.1241,0.4179,0.62,0.6774,0.6494,0.5968,0.7058,0.8427,0.7128,0.7616,0.8699,0.8752,0.8368,0.783,0.783,0.783,0.783,0.783,0.8321,0.8626,0.7967,0.7915,0.8036,0.821,0.8197,0.0,0.0,0.0,0.0,0.0,0.0,0.0,0.0,0.0,0.0,0.0,0.0,0.0,0.0,0.0,0.0,0.0,0.0,0.0,0.0,0.0,0.0,2.199,2.1089,0.0,2.4303,0.0,1.9938,2.1685,2.0401,2.0233,2.0998,2.1211,2.1261,2.118,2.1261,2.1764,2.2514,2.2401,2.3264,2.4818,2.6221,2.6747,2.6882,2.8504,2.8855,2.856,-0.3631,-0.4112,-0.447,-0.4265,-0.5431,-0.7003,-0.887,-0.9196,-0.9509,-1.0263,-1.0712,-1.1106,-1.1489,-1.1972,-1.2432,-1.2933,-1.2098,0.0,0.0,0.0,0.0,-0.6531,-0.5939,-0.5568,-0.5466,-0.5174,-0.4976,0.0,0.0,-0.3667,-0.3175,-0.1014,-0.0134,-0.0483,-0.2813,-0.3119,-0.2064,-0.4721,0.0,-0.4778,-0.2424,-0.1033,-0.0198,0.2029,0.4025,0.57,0.6821,0.6976,0.6686,0.7176,0.7557,0.783,0.7616,0.767,0.799,0.8646,0.8699,0.8586,0.8586,0.8586,0.8586,0.8586,0.8699,0.8751,0.8633,0.9019,0.9425,0.9494,0.9907,1.0446,1.095,0.0,0.0,0.0,0.0,0.0,0.0,0.0,0.0,0.0,0.0,0.0,0.0,0.0,0.0,0.0,0.0,0.0,0.0,0.0,0.0,0.0,0.0,0.0,0.0,0.0,0.0,2.012,2.0602,2.1249,2.2035,2.2251,2.2265,2.2147,2.2353,2.2905,2.3648,2.2924,2.3164,2.4124,2.5582,2.6578,2.7368,2.8968,2.9533,2.9438,-0.3739,-0.4272,-0.4908,-0.5365,-0.6805,0.0,0.0,-1.1037,0.0,-1.0918,-1.0905,-1.0912,-1.0894,-1.174,-1.2188,-1.2005,-1.1624,-1.0886,-0.9617,-0.8398,-0.7231,-0.6401,-0.5909,-0.5708,-0.5708,-0.552,-0.5253,-0.4835,0.0,-0.3146,-0.2877,-0.0909,0.0,-0.0057,-0.1411,-0.1702,0.0,0.0,0.0,-0.1282,0.0395,0.149,0.2222,0.3434,0.4568,0.5701,0.6979,0.748,0.7672,0.8269,0.9032,0.9486,0.8533,0.8495,0.8718,0.8362,0.848,0.8699,0.8321,0.8533,0.8804,0.8804,0.8804,0.891,0.9263,0.9562,0.9917,1.0269,1.0864,1.1366,1.1484,0.8219,0.0,0.0,0.0,0.0,0.0,0.0,0.0,0.0,0.0,0.0,0.0,0.0,0.0,0.0,0.0,0.0,0.0,0.0,0.0,0.0,0.0,0.0,0.0,0.0,0.0,2.1829,2.1871,2.208,2.249,2.3129,2.3158,2.2683,2.3281,2.3767,2.4154,2.4111,2.4728,2.5799,2.6512,2.7506,2.8636,2.9412,2.9696,2.9678,-0.4284,-0.4843,-0.5667,-0.6784,-0.8392,0.0,-1.087,-1.222,-1.2795,-1.1742,-1.1313,-1.0951,-1.0724,-1.1556,-1.1904,-1.1106,-1.0998,-1.0132,-0.8159,-0.7757,-0.7064,-0.5857,-0.5935,-0.5979,-0.5979,-0.5864,-0.5499,0.0,0.0,0.0,0.0,-0.0491,0.0412,0.0,0.0,0.0,0.0,0.0,0.1428,0.2443,0.3056,0.368,0.435,0.4478,0.4941,0.5683,0.7501,0.8702,0.9512,1.0149,1.0856,1.1247,0.9783,0.9413,0.934,0.809,0.7996,0.8262,0.783,0.8103,0.8586,0.8752,0.891,0.9159,0.9666,1.0012,1.0364,1.0914,1.1408,1.1665,1.1275,0.8259,0.0,0.0,0.0,0.0,0.0,0.0,0.0,0.0,0.0,0.0,0.0,0.0,0.0,0.0,0.0,0.0,0.0,0.0,0.0,0.0,0.0,1.9896,2.3484,0.0,2.1768,0.0,2.3071,2.3023,2.3225,2.4092,2.411,2.3512,2.4258,2.4477,2.435,2.4935,2.6011,2.7307,2.7307,2.8337,2.9848,2.9848,2.9848,2.9848,-0.5998,-0.6689,0.0,0.0,0.0,0.0,-1.096,-1.2036,-1.2839,-1.2986,-1.2953,-1.3013,-1.3247,-1.2374,-1.1846,-1.1998,-0.9862,-0.8462,-0.819,-0.6958,-0.6112,-0.601,-0.5888,-0.5823,-0.5823,-0.581,-0.5669,0.0,0.0,0.0,0.0,-0.006,0.0,0.0,0.0,0.0,0.0,0.3299,0.3653,0.5055,0.5127,0.5226,0.5355,0.6133,0.651,0.6885,0.9364,1.1157,1.2578,1.3792,1.2969,1.15,1.1347,1.018,0.8633,0.7925,0.7289,0.6912,0.7557,0.7723,0.7943,0.8646,0.9263,0.971,0.9762,1.0762,1.1616,1.1715,1.1765,1.1516,1.0517,1.0332,1.0092,0.0,0.0,0.0,0.0,0.0,0.0,0.0,0.0,0.0,0.0,0.0,0.0,0.0,0.0,0.0,0.0,0.0,0.0,1.6634,0.0,1.8484,1.7424,2.1666,0.0,2.1828,2.3331,2.4438,2.5139,2.5303,2.537,2.5361,2.5438,2.5035,2.4307,2.4364,2.5302,2.6677,2.6677,2.8184,3.0343,3.0343,3.0343,3.0343,0.0,0.0,0.0,0.0,0.0,0.0,0.0,-1.2325,-1.2936,-1.3173,-1.3213,-1.3253,-1.3367,-1.2875,-1.2043,-1.0781,-0.9726,-0.8557,-0.7129,-0.6538,-0.6169,-0.6169,-0.619,-0.6203,-0.6203,-0.6122,-0.5574,0.0,0.0,0.0,0.0,0.0,0.0,0.0,0.0,0.3338,0.5338,0.4131,0.4299,0.5428,0.5428,0.5686,0.6203,0.6588,0.7353,0.8484,1.0477,1.2163,1.3785,1.5751,1.5221,1.347,1.2,1.0194,0.8345,0.6822,0.618,0.6122,0.6848,0.7343,0.7984,0.9093,0.9614,1.0012,1.0813,1.1756,1.2395,1.2442,1.1783,1.1065,1.0669,1.0087,0.9763,0.0,0.0,0.0,0.0,0.0,0.0,0.0,0.0,0.0,0.0,0.0,0.0,0.0,0.0,0.0,0.0,0.0,0.0,1.1786,0.0,2.0675,1.8966,2.2994,2.4669,2.3946,2.4649,2.5144,2.5453,2.5532,2.5604,2.566,2.566,2.5414,2.5031,2.5018,2.5956,2.7371,2.7371,2.8621,3.0398,3.0398,3.0398,3.0398,-0.8769,0.0,-0.9357,0.0,-1.1045,-1.1344,-1.219,-1.2552,-1.2903,-1.3046,-1.3227,-1.3373,-1.346,-1.3067,-1.1988,-1.0053,-0.9448,-0.8307,-0.6423,-0.6338,-0.6338,-0.6338,-0.6356,0.0,-0.641,-0.6071,-0.5297,-0.4169,-0.3767,0.0,0.0,0.0,0.0,0.0,0.2518,0.3482,0.5359,0.4686,0.4976,0.5888,0.5837,0.6366,0.7254,0.7637,0.8564,0.9869,1.192,1.3534,1.5013,1.6894,1.6568,1.4997,1.2777,1.0257,0.78,0.6128,0.5297,0.5218,0.6358,0.7274,0.8293,0.9662,1.0322,1.0832,1.1802,1.245,1.2764,1.2598,1.1633,1.0762,1.0517,0.9562,0.9085,1.0035,0.0,0.0,0.0,0.0,0.0,0.0,1.2805,1.1842,0.0,0.0,0.0,0.0,0.0,0.0,0.0,0.0,0.0,0.0,0.0,0.0,0.0,2.3897,2.558,2.5524,2.5524,2.5539,2.5518,2.5596,2.5663,2.5703,2.5703,2.5637,2.5527,2.5514,2.6313,2.7574,2.7824,2.8775,3.0044,3.0314,3.0398,3.0398,-0.9838,-1.016,-1.0721,-1.2032,-1.2417,-1.2419,-1.2357,-1.2552,-1.2822,-1.2829,-1.3273,-1.3748,-1.4041,-1.2638,-1.1335,-1.0277,-0.8774,-0.7407,-0.6338,-0.6338,-0.6338,0.0,0.0,-0.6342,-0.6342,-0.5237,-0.4627,-0.4507,0.0,0.0,-0.2353,-0.0731,0.127,0.36,0.3549,0.4289,0.5428,0.5362,0.6045,0.7061,0.6796,0.7361,0.8523,0.9957,1.0481,1.0906,1.4096,1.5743,1.649,1.7335,1.6809,1.5506,1.3949,1.0486,0.6905,0.6207,0.4891,0.4074,0.6324,0.7673,0.8825,1.0141,1.1481,1.2446,1.2498,1.2714,1.2715,1.1972,1.1266,1.0618,0.9909,0.9263,0.8798,0.8716,0.0,0.0,0.0,0.0,0.0,0.0,1.128,1.0897,1.4831,0.0,0.0,0.0,0.0,0.0,0.0,0.0,0.0,1.83,1.9773,0.0,2.0503,2.3886,2.56,2.5601,2.5601,2.5601,2.5601,2.5665,2.5703,2.5703,2.5703,2.5664,2.5584,2.5536,2.5976,2.6785,2.7593,2.839,2.9217,3.0083,3.0398,3.0398,-1.151,-1.166,-1.1794,-1.2251,-1.2362,-1.2435,-1.262,-1.2761,-1.2893,-1.33,-1.3353,-1.3211,-1.2819,-1.227,-1.1369,0.0,-0.8742,-0.7528,0.0,-0.6338,-0.6338,-0.6338,-0.5628,-0.5237,-0.5237,-0.4139,-0.3217,-0.2537,0.0,0.0,0.0,-0.0518,0.087,0.3013,0.3013,0.3885,0.5428,0.5428,0.5586,0.5959,0.6486,0.7279,0.8254,0.928,1.0759,1.2419,1.3945,1.536,1.6497,1.669,1.5812,1.4264,1.2118,0.9452,0.6865,0.5623,0.4958,0.4991,0.6724,0.788,0.8918,1.0264,1.0801,1.1108,1.1587,1.155,1.1525,1.1679,1.0847,1.0064,0.9865,0.9614,0.9621,1.0082,1.0891,0.0,0.0,0.0,0.0,0.0,1.3022,1.3127,0.0,1.6823,0.0,0.0,0.0,0.0,0.0,0.0,0.0,0.0,2.1775,0.0,1.9564,2.2988,2.4448,2.3904,2.3904,2.4216,2.4784,2.4801,2.5137,2.5703,2.5703,2.5312,2.4707,2.4686,2.4799,2.5034,2.5236,2.6187,2.7558,2.8398,2.9044,2.9506,-1.2305,-1.2305,-1.2305,-1.2305,-1.2305,-1.2365,-1.2552,-1.2755,-1.2802,-1.2696,-1.2676,-1.2258,-1.1341,-1.0854,0.0,-0.9257,-0.8461,-0.752,-0.6345,-0.6338,-0.6338,-0.6338,-0.5237,-0.4921,-0.5315,0.0,0.0,-0.2161,-0.1564,-0.0918,-0.0253,-0.0248,0.0637,0.2176,0.2153,0.3011,0.442,0.442,0.4846,0.5624,0.6342,0.747,0.8734,0.9798,1.1392,1.3122,1.4191,1.5197,1.6042,1.5991,1.4713,1.2764,1.0694,0.8663,0.6837,0.5891,0.542,0.5589,0.7365,0.8789,1.0039,1.1118,1.1503,1.1493,1.1325,1.1132,1.0978,1.1015,1.0348,0.9814,0.9814,0.9814,1.0115,1.1015,1.1756,1.2551,1.3672,0.0,0.0,0.0,0.0,0.0,0.0,1.7026,0.0,0.0,0.0,0.0,0.0,0.0,0.0,2.0408,2.3374,0.0,2.1386,2.324,2.3979,2.3545,2.3542,2.3833,2.436,2.4674,2.5104,2.5611,2.5611,2.5308,2.4766,2.4414,2.4252,2.4264,2.4527,2.5271,2.635,2.7505,2.8247,2.8602,-1.2305,-1.2305,0.0,0.0,-1.2305,0.0,-1.2325,-1.2565,-1.2363,-1.1373,-1.1417,-1.1061,-0.9724,-0.8751,-0.8115,-0.8036,0.0,0.0,0.0,-0.6338,-0.6338,-0.6338,-0.5237,0.0,-0.618,-0.3207,-0.2113,-0.2968,-0.0997,0.0,0.0,0.0,0.0492,0.1326,0.1289,0.1809,0.2678,0.2678,0.3862,0.5723,0.6354,0.7785,0.9723,1.1192,1.2205,1.3114,1.4554,1.5061,1.5052,1.5003,1.3382,1.1178,0.956,0.7931,0.6753,0.6865,0.6246,0.5944,0.8251,1.0261,1.1813,1.2344,1.2896,1.2968,1.151,1.1169,1.0905,0.9963,0.9725,0.9762,0.9814,0.9814,1.0312,1.1566,1.2387,1.3082,1.3811,0.0,0.0,0.0,0.0,0.0,0.0,1.811,1.8589,0.0,0.0,0.0,0.0,0.0,1.9958,2.3878,2.4482,2.4822,2.4985,2.4328,2.4064,2.4218,2.4214,2.4243,2.4321,2.5065,2.5473,2.559,2.5537,2.5538,2.5526,2.459,2.4219,2.4296,2.5031,2.5331,2.553,2.72,2.7776,2.7631,0.0,0.0,-1.2305,-1.2305,-1.2305,-1.2378,-1.2605,-1.2082,-1.1576,-1.1544,-1.0734,-0.9764,-0.869,-0.816,-0.7618,-0.685,-0.6666,-0.6567,-0.6338,-0.6338,-0.6338,-0.6338,-0.5237,-0.4844,-0.5079,-0.3515,-0.2501,-0.1957,-0.0635,0.0,0.0,0.0,0.05,0.1326,0.1289,0.1809,0.2678,0.2678,0.3355,0.4582,0.6044,0.7307,0.856,1.0244,1.1351,1.2135,1.248,1.2623,1.2469,1.1813,1.0802,0.9515,0.7925,0.7092,0.6728,0.6709,0.7016,0.7613,0.8862,1.0454,1.1673,1.1203,1.1002,1.0782,1.0222,0.989,0.9645,0.9412,0.9166,0.9211,0.9718,1.0218,1.0813,1.1665,1.2468,1.3234,1.4029,1.4197,0.0,0.0,1.5781,1.6413,1.7508,1.7369,1.7641,0.0,0.0,0.0,0.0,1.89,1.9755,2.3878,2.4136,2.4094,2.3878,2.3905,2.3724,2.3315,2.3308,2.3639,2.4231,2.4424,2.5224,2.6458,2.5801,2.5506,2.5459,2.461,2.3926,2.3398,2.3591,2.4032,2.4676,2.5716,2.6063,2.6054,-1.2325,-1.2305,-1.2305,-1.2305,-1.2305,-1.2203,-1.1897,-1.1386,-1.0747,-1.0032,-0.932,-0.8471,-0.7469,-0.7231,-0.6872,-0.6338,-0.6338,-0.6338,-0.6338,-0.6338,-0.6338,-0.6338,-0.5237,-0.4924,-0.5392,-0.3904,-0.2579,-0.1568,-0.0557,0.0,0.0,0.0,0.0219,0.0712,0.0693,0.1019,0.1476,0.1876,0.2611,0.3609,0.5763,0.7145,0.8221,0.9907,1.1108,1.1772,1.1322,1.1169,1.0954,0.9674,0.8728,0.7812,0.656,0.6136,0.6203,0.6593,0.7242,0.7937,0.8828,1.0214,1.1301,1.0977,1.0616,1.0214,0.9947,0.935,0.8877,0.9154,0.9011,0.9113,1.0064,1.0559,1.1124,1.2138,1.2988,1.3666,1.4017,1.4433,0.0,1.5518,1.5823,1.6293,1.7046,1.7061,1.7291,1.7972,0.0,0.0,1.9909,1.9711,2.0804,2.3551,2.3787,2.3879,2.3964,2.3803,2.34,2.2767,2.2767,2.3266,2.414,2.414,2.487,2.6081,2.561,2.5428,2.539,2.4554,2.399,2.3652,2.3652,2.3926,2.4394,2.5239,2.551,2.5456,-1.2418,-1.2331,-1.2224,-1.2077,-1.2063,-1.1755,-1.0714,-1.0404,-0.9728,-0.8008,-0.7633,-0.7253,-0.6416,-0.6338,-0.6338,-0.6338,-0.6338,-0.6338,-0.6338,-0.6338,-0.6338,-0.6338,-0.5392,-0.5392,-0.6261,-0.4217,-0.2657,-0.1802,-0.0628,0.0,0.0,0.0,0.0,0.0,0.0,0.0069,0.0271,0.1008,0.1942,0.3076,0.5436,0.7019,0.8156,0.9779,1.0947,1.1589,1.064,1.0268,0.9894,0.8073,0.6997,0.6326,0.5394,0.5209,0.5557,0.6268,0.6907,0.7499,0.836,0.9551,1.0696,1.1189,1.0798,1.0256,1.0221,0.9244,0.8603,0.918,0.9214,0.9379,1.0494,1.0904,1.1366,1.2301,1.3369,1.4001,1.3692,0.0,1.5551,1.5725,1.5996,1.63,1.6608,1.7034,1.7312,1.7312,1.8608,0.0,0.0,2.0701,2.1898,2.3003,2.3369,2.3824,2.4425,2.3911,2.3383,2.2844,2.2734,2.3165,2.4063,2.4082,2.4543,2.5303,2.5303,2.5399,2.5514,2.4649,2.4368,2.4464,2.4492,2.4492,2.459,2.5332,2.5496,2.5249,-1.2761,-1.2478,-1.1996,-1.1162,-1.1033,-1.0713,-0.9664,-0.8817,-0.8134,-0.7855,-0.7022,-0.649,-0.6338,-0.6338,-0.6338,-0.6338,-0.6338,-0.6338,-0.6338,-0.6338,-0.6338,-0.6338,-0.6103,-0.6103,-0.6261,-0.4217,-0.3046,-0.289,-0.094,0.0,0.0,0.0,0.0,0.0,0.0,0.042,0.111,0.1218,0.2277,0.388,0.5061,0.6506,0.8091,0.9134,1.0187,1.0947,0.9854,0.9131,0.8394,0.6346,0.5661,0.5422,0.448,0.4752,0.5428,0.5557,0.5955,0.6621,0.7618,0.8429,0.9304,1.0894,1.0154,0.9334,1.0309,0.9442,0.8705,0.9754,1.0102,1.0286,1.034,1.1397,1.1809,1.0567,1.2247,1.3415,1.2562,0.0,1.5565,1.5896,1.6644,1.7128,1.7175,1.7229,1.7312,1.7312,1.7933,1.8493,1.8904,1.9908,2.1038,2.2218,2.2652,2.3252,2.4063,2.4276,2.4376,2.4436,2.3878,2.3694,2.385,2.4015,2.4543,2.5303,2.5303,2.5717,2.6351,2.5534,2.5216,2.524,2.5351,2.5391,2.543,2.5605,2.5214,2.4646,-1.2267,-1.196,-1.1489,-1.0302,-1.0112,-0.9777,-0.8722,-0.8116,-0.76,-0.7176,-0.6644,-0.6338,-0.6338,-0.6338,-0.6338,-0.6338,-0.6338,-0.6338,-0.6338,-0.6338,-0.6338,-0.6338,-0.6338,-0.6338,-0.6338,-0.4217,-0.3124,-0.3124,-0.1019,0.0,0.0,0.0,0.0,0.0,0.0509,0.0922,0.1395,0.237,0.3211,0.4148,0.5529,0.6841,0.8107,0.9159,0.9814,1.0049,0.9198,0.8378,0.7324,0.5338,0.5011,0.5226,0.4284,0.4619,0.5428,0.5428,0.5762,0.6354,0.7172,0.7704,0.8259,0.9419,0.9034,0.8691,1.0011,0.9419,0.8896,0.9899,1.0058,1.0253,1.0763,1.1374,1.1864,1.1786,1.301,0.0,0.0,1.4941,1.5848,1.6243,1.663,1.6879,1.6879,1.6879,1.6879,1.6879,1.7626,1.821,1.8416,1.9606,2.0684,2.1472,2.2478,2.3241,2.3826,2.4002,2.4247,2.462,2.3418,2.3398,2.4407,2.3637,2.4024,2.5303,2.5303,2.5534,2.587,2.5495,2.537,2.5409,2.5473,2.5516,2.5542,2.5623,2.5391,2.5176,-1.1878,-1.152,-1.0994,-0.9432,-0.9175,-0.8864,-0.7884,-0.7573,-0.7328,-0.6592,-0.6447,-0.6298,-0.6264,-0.6338,-0.6338,-0.6338,-0.6338,-0.6338,-0.6338,-0.6338,-0.6338,-0.6338,-0.6338,-0.6338,-0.6338,-0.4217,-0.3124,-0.3124,-0.1019,0.0,0.0,0.0,0.0,0.0076,0.0965,0.1446,0.1759,0.3351,0.4175,0.4417,0.587,0.6915,0.7782,0.8684,0.912,0.9125,0.8482,0.7711,0.6717,0.4815,0.4748,0.5272,0.4292,0.4619,0.5435,0.5403,0.5913,0.651,0.7265,0.7421,0.7639,0.8545,0.8454,0.8469,0.9775,0.9375,0.8974,0.9912,1.023,1.0559,1.1178,1.1656,1.2127,1.2645,0.0,0.0,0.0,1.5475,1.6153,1.6486,1.6522,1.6522,1.6522,1.6522,1.6522,1.6522,1.7394,1.7987,1.8106,1.928,2.023,2.0829,2.231,2.3236,2.3566,2.3671,2.3941,2.4408,2.2959,2.3086,2.4543,2.3358,2.3572,2.4884,2.4875,2.5009,2.5182,2.5022,2.51,2.5311,2.537,2.544,2.551,2.5584,2.5618,2.5723,-1.2109,-1.1652,-1.0853,-0.8698,-0.83,-0.7979,-0.6938,-0.6802,-0.6698,-0.6492,-0.6455,-0.6407,-0.6352,-0.6338,-0.6338,-0.6338,-0.6338,-0.6338,-0.6338,-0.6338,-0.6338,-0.6338,-0.6338,-0.6338,-0.6338,-0.4217,-0.3124,-0.3124,-0.1019,0.0,0.0,0.0,0.0,0.0078,0.1143,0.193,0.2674,0.3729,0.4594,0.5296,0.5425,0.6009,0.6785,0.6863,0.7579,0.8358,0.7359,0.7129,0.695,0.4914,0.4809,0.5408,0.4319,0.4619,0.5456,0.5532,0.6169,0.7109,0.8199,0.7903,0.7719,0.9525,0.9172,0.8652,0.9812,0.9226,0.8753,0.9873,1.1338,1.2182,1.144,1.2711,1.3179,1.1067,0.0,0.0,1.3029,1.4796,1.6272,1.646,1.6522,1.6522,1.6522,1.6522,1.6522,1.6522,1.7034,1.7585,1.8066,1.8688,1.9419,2.0314,2.1922,2.2898,2.3236,2.3544,2.3896,2.4209,2.3467,2.3196,2.3321,2.3403,2.3507,2.3615,2.3636,2.409,2.4804,2.4167,2.4358,2.5053,2.5301,2.5438,2.5515,2.5572,2.5648,2.5703,-1.1466,-1.1011,-1.0152,-0.7807,-0.7403,-0.7235,-0.6881,-0.673,-0.6747,-0.675,-0.6616,-0.6451,-0.6396,-0.6315,-0.6338,-0.6338,-0.6338,-0.6338,-0.6338,-0.6338,-0.6338,-0.6338,-0.6338,-0.6338,-0.6338,-0.4217,-0.3124,-0.3124,-0.1019,0.0,0.0,0.0,0.0,0.0078,0.168,0.2552,0.2893,0.4406,0.5277,0.5494,0.5399,0.5947,0.6732,0.6856,0.7148,0.7428,0.7203,0.6736,0.6143,0.5322,0.5248,0.5437,0.4973,0.509,0.5522,0.6215,0.6333,0.6557,0.7957,0.8069,0.7882,0.8387,0.8543,0.8878,0.9682,0.9519,0.935,0.9761,1.0916,1.1741,1.1686,1.2807,1.3805,1.3795,0.0,1.5066,1.5345,1.5936,1.6278,1.5978,1.5952,1.5776,1.5433,1.5732,1.5952,1.5952,1.6799,1.7394,1.7585,1.8698,1.9621,2.028,2.1179,2.2023,2.281,2.3194,2.3671,2.419,2.3437,2.3413,2.3994,2.3568,2.3412,2.3488,2.3501,2.3704,2.3968,2.3727,2.4163,2.501,2.5107,2.5241,2.538,2.544,2.5529,2.5654,-1.1095,-1.0626,-0.9818,-0.7415,-0.6959,-0.7119,-0.7501,-0.7099,-0.697,-0.7447,-0.6908,-0.6525,-0.6478,-0.6346,-0.6338,-0.6338,-0.6338,-0.6338,-0.6338,-0.6338,-0.6338,-0.6338,-0.6338,-0.618,-0.5786,-0.4059,-0.2968,-0.2657,-0.0862,0.0,0.0,0.0,0.0,0.0078,0.2077,0.2735,0.2559,0.4429,0.5056,0.4728,0.4918,0.5322,0.5885,0.6423,0.6571,0.6475,0.6716,0.6293,0.5589,0.5589,0.5518,0.5423,0.5442,0.5463,0.5595,0.636,0.6379,0.6346,0.7181,0.7717,0.7991,0.8028,0.8426,0.8974,0.9564,0.9686,0.9659,0.9566,1.0559,1.16,1.2044,1.32,1.45,1.5626,1.5916,1.6219,1.6981,1.6909,1.6541,1.5927,1.5683,1.5365,1.4744,1.5231,1.5588,1.5588,1.6502,1.7105,1.7312,1.8454,1.9353,1.9849,2.0333,2.1037,2.2017,2.2583,2.3194,2.3878,2.3331,2.3412,2.4081,2.3639,2.3484,2.3558,2.3397,2.3484,2.3724,2.352,2.3978,2.4858,2.4962,2.5091,2.5245,2.5352,2.5439,2.5607,-1.1095,-1.0626,-0.9818,-0.7507,-0.7139,-0.7519,-0.8713,-0.7899,-0.7494,-0.8602,-0.7575,-0.6644,-0.6491,-0.6428,-0.6342,-0.6342,-0.6338,-0.6338,-0.6338,-0.6338,-0.6338,-0.6338,-0.6261,-0.5786,-0.4688,-0.3671,-0.2579,-0.1568,-0.0549,0.0,0.0,0.0,0.0,0.0079,0.2189,0.239,0.1435,0.3614,0.3786,0.2759,0.3774,0.4143,0.4114,0.5168,0.5494,0.5449,0.5535,0.5589,0.5589,0.5589,0.5589,0.5562,0.541,0.5467,0.5616,0.5759,0.632,0.6704,0.5969,0.6877,0.8161,0.9075,0.9062,0.8974,0.9571,0.9686,0.9593,0.9299,1.0665,1.2066,1.2514,1.4029,1.5342,1.5859,1.6695,1.729,1.7327,1.7378,1.7124,1.6465,1.5909,1.5365,1.4744,1.5231,1.5576,1.5588,1.6151,1.671,1.7271,1.7787,1.8341,1.8893,1.9332,1.9982,2.0783,2.1657,2.246,2.3189,2.3189,2.3189,2.3212,2.3544,2.3692,2.366,2.3176,2.3437,2.4135,2.3555,2.3768,2.4526,2.4872,2.5034,2.513,2.5322,2.5447,2.5513,-1.1095,-1.0626,-1.0097,-0.8609,-0.8368,-0.879,-0.9895,-0.9765,-0.942,-0.8944,-0.9128,-0.8664,-0.6961,-0.7285,-0.7273,-0.6489,-0.6318,-0.6338,-0.6338,-0.6338,-0.6338,-0.6338,-0.555,-0.5002,-0.4688,-0.2971,-0.188,-0.1568,0.0235,0.0706,0.0,0.0784,0.1098,0.1176,0.1802,0.226,0.2626,0.3113,0.3153,0.2905,0.3803,0.4143,0.4114,0.5168,0.5494,0.5432,0.5413,0.543,0.543,0.543,0.502,0.4467,0.4431,0.4504,0.4755,0.5427,0.5899,0.6072,0.5737,0.5996,0.663,0.8067,0.8611,0.9022,0.982,0.9666,0.9451,0.9907,1.106,1.2231,1.2852,1.4668,1.6327,1.7005,1.7468,1.7929,1.8413,1.7457,1.6477,1.5856,1.4942,1.4272,1.4097,1.4595,1.5141,1.5588,1.6151,1.671,1.7271,1.7463,1.7947,1.8855,1.9029,1.9534,2.0436,2.1543,2.2337,2.2785,2.3076,2.3189,2.3189,2.3282,2.3043,2.2505,2.2378,2.2418,2.2658,2.273,2.3289,2.4173,2.4519,2.4799,2.5031,2.5088,2.525,2.5428,-1.1646,-1.1268,-1.0871,-0.9809,-0.9565,-0.9994,-1.1059,-1.0909,-1.0489,-1.0265,-1.0329,-0.9853,-0.8437,-0.8598,-0.837,-0.7263,-0.6962,-0.6718,-0.6338,-0.6641,-0.6718,-0.6338,-0.5237,-0.453,-0.4062,-0.2815,-0.1801,-0.0941,0.0314,0.0628,0.0,0.0628,0.0941,0.102,0.1411,0.1723,0.1876,0.2234,0.2375,0.2447,0.3387,0.3976,0.4311,0.5265,0.5583,0.5443,0.5449,0.5428,0.5428,0.5428,0.4755,0.3949,0.3613,0.3792,0.4267,0.4873,0.5325,0.5623,0.5596,0.5545,0.5812,0.7148,0.7978,0.8737,0.9829,0.984,0.9633,0.9825,1.1005,1.2142,1.2648,1.4648,1.6486,1.7058,1.7483,1.7938,1.8378,1.7376,1.6443,1.6119,1.529,1.4655,1.4363,1.477,1.5177,1.5555,1.6151,1.6637,1.6951,1.7188,1.7706,1.8574,1.8779,1.9251,2.0054,2.0943,2.1645,2.2211,2.2643,2.2832,2.2849,2.2947,2.2751,2.2288,2.2406,2.2475,2.2475,2.2696,2.3223,2.3908,2.4192,2.4519,2.4804,2.4885,2.5068,2.5261,-1.2572,-1.2295,-1.1974,-1.093,-1.0737,-1.1129,-1.2312,-1.1599,-1.1214,-1.2157,-1.1359,-1.0637,-1.047,-1.0095,-0.9518,-0.8475,-0.813,-0.748,-0.649,-0.733,-0.7326,-0.6338,-0.5392,-0.4295,-0.3124,-0.3046,-0.1955,0.0,0.0079,0.0079,0.0,0.0079,0.0157,0.0157,0.1097,0.0941,0.0236,0.1097,0.1489,0.1724,0.2657,0.3693,0.4579,0.5504,0.5732,0.5589,0.5437,0.5449,0.5379,0.5299,0.4688,0.3882,0.3078,0.3347,0.4036,0.4277,0.4851,0.5459,0.5532,0.5467,0.5624,0.6461,0.7307,0.8292,0.9716,1.0012,0.984,0.9482,1.0677,1.1944,1.2192,1.4208,1.597,1.6419,1.7146,1.7567,1.7577,1.7066,1.6777,1.6912,1.6457,1.5913,1.5442,1.5603,1.5764,1.5751,1.6268,1.6572,1.6522,1.6993,1.7544,1.8066,1.8612,1.9169,1.969,2.0089,2.0699,2.1552,2.2003,2.2254,2.231,2.2563,2.2643,2.2669,2.2972,2.3135,2.3117,2.3159,2.3346,2.3674,2.3888,2.4192,2.4528,2.47,2.4864,2.5003,-1.2572,-1.2295,-1.2216,-1.1974,-1.1968,-1.2324,-1.3522,-1.3464,-1.3118,-1.2413,-1.2893,-1.2602,-1.0797,-1.1138,-1.105,-0.9646,-0.9208,-0.8542,-0.7557,-0.7706,-0.7326,-0.6338,-0.6103,-0.5079,-0.3124,-0.2347,-0.1332,0.0,0.0863,0.0784,0.0,0.0863,0.1254,0.1254,0.0628,0.0706,0.1176,0.0628,0.0863,0.1724,0.2657,0.3693,0.4587,0.5615,0.5888,0.5735,0.5593,0.5542,0.545,0.4587,0.4151,0.3949,0.3749,0.388,0.4156,0.4925,0.5252,0.5435,0.5403,0.5452,0.5624,0.6461,0.685,0.7423,0.9064,0.927,0.9375,1.0453,1.1063,1.1802,1.3037,1.4459,1.5672,1.6404,1.7146,1.7499,1.7171,1.6535,1.618,1.6503,1.5877,1.58,1.6764,1.7328,1.7439,1.7045,1.7142,1.6999,1.6547,1.6993,1.7544,1.8066,1.8612,1.9169,1.969,2.0089,2.0583,2.1134,2.1568,2.1928,2.231,2.236,2.2388,2.2388,2.2453,2.248,2.2508,2.2712,2.3021,2.3346,2.3635,2.406,2.4512,2.4561,2.4752,2.5034,-1.3322,-1.314,-1.314,-1.314,-1.314,-1.3328,-1.399,-1.4088,-1.3906,-1.3203,-1.373,-1.3652,-1.2431,-1.2624,-1.2219,-1.0619,-1.0176,-0.9367,-0.7936,-0.8237,-0.7859,-0.6338,-0.6338,-0.555,-0.3904,-0.2813,-0.1566,0.0,0.0549,0.0549,0.0,0.0549,0.0863,0.0784,0.0235,0.0316,0.0797,0.0237,0.0632,0.1672,0.2669,0.372,0.4667,0.5676,0.568,0.5158,0.5023,0.4931,0.4839,0.4423,0.4209,0.4019,0.3563,0.368,0.4082,0.4619,0.5024,0.5428,0.5428,0.5428,0.5491,0.5947,0.6075,0.6662,0.8812,0.9162,0.9333,1.0423,1.1105,1.1759,1.2364,1.3438,1.4337,1.4768,1.5467,1.5822,1.544,1.5528,1.5938,1.6591,1.6158,1.6031,1.6587,1.7186,1.7335,1.6872,1.718,1.725,1.6948,1.7429,1.7827,1.8106,1.8855,1.9406,1.969,1.9909,2.0227,2.0682,2.1306,2.1853,2.231,2.231,2.231,2.231,2.231,2.231,2.231,2.2436,2.2678,2.2996,2.3346,2.372,2.4136,2.4284,2.4588,2.493,-1.4088,-1.4088,-1.4088,-1.4088,-1.4088,-1.4088,-1.4088,-1.4088,-1.4088,-1.4088,-1.4088,-1.4088,-1.4088,-1.3821,-1.3017,-1.1696,-1.1317,-1.0229,-0.8161,-0.8841,-0.8389,-0.6416,-0.6103,-0.5628,-0.4688,-0.3671,-0.2189,-0.0235,-0.0079,0.0,0.0,0.0,0.0,0.0,0.0,0.0,0.0,0.0,0.0635,0.1692,0.2522,0.3515,0.452,0.5194,0.5,0.4239,0.4077,0.405,0.423,0.4571,0.4531,0.4283,0.3457,0.3696,0.422,0.4241,0.484,0.5428,0.5428,0.5428,0.5428,0.5428,0.5428,0.6017,0.8355,0.8947,0.9273,1.005,1.0925,1.1567,1.1406,1.2132,1.2826,1.3009,1.3666,1.4069,1.3681,1.4553,1.5725,1.6855,1.7016,1.6927,1.6623,1.7017,1.7139,1.6699,1.7193,1.7559,1.7695,1.7932,1.8187,1.8416,1.9228,1.969,1.969,1.969,1.9909,2.0314,2.1023,2.1658,2.218,2.218,2.2209,2.231,2.231,2.231,2.231,2.231,2.2463,2.2721,2.3021,2.3346,2.3735,2.4114,2.4461,2.4775,-1.4088,-1.4088,-1.4088,-1.4088,-1.4088,-1.4088,-1.4088,-1.4088,-1.4088,-1.4088,-1.4088,-1.4088,-1.4088,-1.3821,-1.3426,-1.2936,-1.2705,-1.1575,-0.9236,-0.9221,-0.8389,-0.6416,-0.5395,-0.4844,-0.4688,-0.3671,-0.2501,-0.1411,-0.0471,0.0,0.0,0.0,0.0,0.0,0.0,0.0,0.0,0.0,0.0629,0.1574,0.1726,0.2425,0.3355,0.3424,0.3418,0.3254,0.3114,0.3518,0.4157,0.5129,0.5378,0.5209,0.5245,0.5193,0.5249,0.5381,0.5396,0.5428,0.5428,0.5428,0.5428,0.5428,0.5428,0.5686,0.6785,0.7632,0.8603,1.0186,1.0654,1.0975,1.1589,1.1866,1.2205,1.2887,1.3666,1.4069,1.3681,1.4317,1.5381,1.681,1.8405,1.9334,1.9261,1.9364,1.9205,1.8635,1.8309,1.83,1.8831,1.8384,1.8593,1.9595,1.9678,1.969,1.969,1.969,1.9909,2.0314,2.04,2.0894,2.1688,2.1688,2.1928,2.231,2.231,2.231,2.231,2.231,2.2463,2.2695,2.2746,2.3141,2.3756,2.4266,2.4495,2.4559,-1.4122,-1.4088,-1.4088,-1.4088,-1.4088,-1.4088,-1.4088,-1.4088,-1.4088,-1.4088,-1.4088,-1.4088,-1.4088,-1.3821,-1.3512,-1.346,-1.2465,-1.1218,-0.9643,-0.8832,-0.7783,-0.6338,-0.5867,-0.5628,-0.5628,-0.453,-0.375,-0.3361,-0.2268,-0.1721,-0.1721,-0.1721,-0.1721,-0.1721,-0.1721,-0.142,-0.088,-0.0868,-0.0237,0.0719,0.134,0.188,0.2347,0.289,0.2735,0.2348,0.2981,0.3328,0.3707,0.5298,0.5735,0.5589,0.5494,0.5416,0.5442,0.5443,0.5413,0.5428,0.5428,0.5428,0.5428,0.5428,0.5426,0.5865,0.7138,0.7795,0.8448,0.9618,1.0238,1.0681,1.1045,1.1108,1.1233,1.16,1.2696,1.3365,1.2988,1.4229,1.5355,1.6011,1.7225,1.7961,1.7961,1.834,1.8619,1.8833,1.871,1.874,1.905,1.9078,1.9364,1.9894,2.0489,2.0632,2.0258,2.0258,2.0158,1.9965,1.9965,2.0431,2.1275,2.1275,2.1507,2.1899,2.1899,2.2061,2.231,2.231,2.236,2.25,2.2634,2.3117,2.3735,2.3981,2.4247,2.4512]},{"header":{"parameterUnit":"m.s-1","parameterCategory":1,"la1":30.6,"la2":28.766,"lo1":-90.7593,"lo2":-88.6598,"dx":0.0162,"dy":0.0183,"nx":116,"ny":114,"refTime":"2022-12-09T06:00:00:Z","depth":0,"parameterNumber":3,"parameterNumberName":"V-component_of_WINDS"},"data":[0.0,0.0,0.0,0.0,0.0,0.0,0.0,0.0,0.0,0.0,0.0,0.0,0.0,0.0,0.0,0.0,0.0,0.0,0.0,0.0,0.0,0.0,0.0,0.0,0.0,0.0,0.0,0.0,0.0,0.0,0.0,0.0,0.0,0.0,0.0,0.0,0.0,0.0,0.0,0.0,0.0,0.0,0.0,0.0,0.0,0.0,0.0,0.0,0.0,0.0,0.0,0.0,0.0,0.0,0.0,0.0,0.0,0.0,0.0,0.0,0.0,0.0,0.0,0.0,0.0,0.0,0.0,0.0,0.0,0.0,0.0,0.0,0.0,0.0,0.0,0.0,0.0,0.0,0.0,0.0,0.0,0.0,0.0,0.0,0.0,0.0,0.0,0.0,0.0,0.0,0.0,0.0,0.0,0.0,0.0,0.0,0.0,0.0,0.0,0.0,0.0,0.0,0.0,0.0,0.0,0.0,0.0,0.0,0.0,0.0,0.0,0.0,0.0,0.0,0.0,0.0,0.0,0.0,0.0,0.0,0.0,0.0,0.0,0.0,0.0,0.0,0.0,0.0,0.0,0.0,0.0,0.0,0.0,0.0,0.0,0.0,0.0,0.0,0.0,0.0,0.0,0.0,0.0,0.0,0.0,0.0,0.0,0.0,0.0,0.0,0.0,0.0,0.0,0.0,0.0,0.0,0.0,0.0,0.0,0.0,0.0,0.0,0.0,0.0,0.0,0.0,0.0,0.0,0.0,0.0,0.0,0.0,0.0,0.0,0.0,0.0,0.0,0.0,0.0,0.0,0.0,0.0,0.0,0.0,0.0,0.0,0.0,0.0,0.0,0.0,0.0,0.0,0.0,0.0,0.0,0.0,0.0,0.0,0.0,0.0,0.0,0.0,0.0,0.0,0.0,0.0,0.0,0.0,0.0,0.0,0.0,0.0,0.0,0.0,0.0,0.0,0.0,0.0,0.0,0.0,0.0,0.0,0.0,0.0,0.0,0.0,0.0,0.0,0.0,0.0,0.0,0.0,0.0,0.0,0.0,0.0,0.0,0.0,0.0,0.0,0.0,0.0,0.0,0.0,0.0,0.0,0.0,0.0,0.0,0.0,0.0,0.0,0.0,0.0,0.0,0.0,0.0,0.0,0.0,0.0,0.0,0.0,0.0,0.0,0.0,0.0,0.0,0.0,0.0,0.0,0.0,0.0,0.0,0.0,0.0,0.0,0.0,0.0,0.0,0.0,0.0,0.0,0.0,0.0,0.0,0.0,0.0,0.0,0.0,0.0,0.0,0.0,0.0,0.0,0.0,0.0,0.0,0.0,0.0,0.0,0.0,0.0,0.0,0.0,0.0,0.0,0.0,0.0,0.0,0.0,0.0,0.0,0.0,0.0,0.0,0.0,0.0,0.0,0.0,0.0,0.0,0.0,0.0,0.0,0.0,0.0,0.0,0.0,0.0,0.0,0.0,0.0,0.0,0.0,0.0,0.0,0.0,0.0,0.0,0.0,0.0,0.0,0.0,0.0,0.0,0.0,0.0,0.0,0.0,0.0,0.0,0.0,0.0,0.0,0.0,0.0,0.0,0.0,0.0,0.0,0.0,0.0,0.0,0.0,0.0,0.0,0.0,0.0,0.0,0.0,0.0,0.0,0.0,0.0,0.0,0.0,0.0,0.0,0.0,0.0,0.0,0.0,0.0,0.0,0.0,0.0,0.0,0.0,0.0,0.0,0.0,0.0,0.0,0.0,0.0,0.0,0.0,0.0,0.0,0.0,0.0,0.0,0.0,0.0,0.0,0.0,0.0,0.0,0.0,0.0,0.0,0.0,0.0,0.0,0.0,0.0,0.0,0.0,0.0,0.0,0.0,0.0,0.0,0.0,0.0,0.0,0.0,0.0,0.0,0.0,0.0,0.0,0.0,0.0,0.0,0.0,0.0,0.0,0.0,0.0,0.0,0.0,0.0,0.0,0.0,0.0,0.0,0.0,0.0,0.0,0.0,0.0,0.0,0.0,0.0,0.0,0.0,0.0,0.0,0.0,0.0,0.0,0.0,0.0,0.0,0.0,0.0,0.0,0.0,0.0,0.0,0.0,0.0,0.0,0.0,0.0,0.0,0.0,0.0,0.0,0.0,0.0,0.0,0.0,0.0,0.0,0.0,0.0,0.0,0.0,0.0,0.0,0.0,0.0,0.0,0.0,0.0,0.0,0.0,0.0,0.0,0.0,0.0,0.0,0.0,0.0,0.0,0.0,0.0,0.0,0.0,0.0,0.0,0.0,0.0,0.0,0.0,0.0,0.0,0.0,0.0,0.0,0.0,0.0,0.0,0.0,0.0,0.0,0.0,0.0,0.0,0.0,0.0,0.0,0.0,0.0,0.0,0.0,0.0,0.0,0.0,0.0,0.0,0.0,0.0,0.0,0.0,0.0,0.0,0.0,0.0,0.0,0.0,0.0,0.0,0.0,0.0,0.0,0.0,0.0,0.0,0.0,0.0,0.0,0.0,0.0,0.0,0.0,0.0,0.0,0.0,0.0,0.0,0.0,0.0,0.0,0.0,0.0,0.0,0.0,0.0,0.0,0.0,0.0,0.0,0.0,0.0,0.0,0.0,0.0,0.0,0.0,0.0,0.0,0.0,0.0,0.0,0.0,0.0,0.0,0.0,0.0,0.0,0.0,0.0,0.0,0.0,0.0,0.0,0.0,0.0,0.0,0.0,0.0,0.0,0.0,0.0,0.0,0.0,0.0,0.0,0.0,0.0,0.0,0.0,0.0,0.0,0.0,0.0,0.0,0.0,0.0,0.0,0.0,0.0,0.0,0.0,0.0,0.0,0.0,0.0,0.0,0.0,0.0,0.0,0.0,0.0,0.0,0.0,0.0,0.0,0.0,0.0,0.0,0.0,0.0,0.0,0.0,0.0,0.0,0.0,0.0,0.0,0.0,0.0,0.0,0.0,0.0,0.0,0.0,0.0,0.0,0.0,0.0,0.0,0.0,0.0,0.0,0.0,0.0,0.0,0.0,0.0,0.0,0.0,0.0,0.0,0.0,0.0,0.0,0.0,0.0,0.0,0.0,0.0,0.0,0.0,0.0,0.0,0.0,0.0,0.0,0.0,0.0,0.0,0.0,0.0,0.0,0.0,0.0,0.0,0.0,0.0,0.0,0.0,0.0,0.0,0.0,0.0,0.0,0.0,0.0,0.0,0.0,0.0,0.0,0.0,0.0,0.0,0.0,0.0,0.0,0.0,0.0,0.0,0.0,0.0,0.0,0.0,0.0,0.0,0.0,0.0,0.0,0.0,0.0,0.0,0.0,0.0,0.0,0.0,0.0,0.0,0.0,0.0,0.0,0.0,0.0,0.0,0.0,0.0,0.0,0.0,0.0,0.0,0.0,0.0,0.0,0.0,0.0,0.0,0.0,0.0,0.0,0.0,0.0,0.0,0.0,0.0,0.0,0.0,0.0,0.0,0.0,0.0,0.0,0.0,0.0,0.0,0.0,0.0,0.0,0.0,0.0,0.0,0.0,0.0,0.0,0.0,0.0,0.0,0.0,0.0,0.0,0.0,0.0,0.0,0.0,0.0,0.0,0.0,0.0,0.0,0.0,0.0,0.0,0.0,0.0,0.0,0.0,0.0,0.0,0.0,0.0,0.0,0.0,0.0,0.0,0.0,0.0,0.0,0.0,0.0,0.0,0.0,0.0,0.0,0.0,0.0,0.0,0.0,0.0,0.0,0.0,0.0,0.0,0.0,0.0,0.0,0.0,0.0,0.0,0.0,0.0,0.0,0.0,0.0,0.0,0.0,0.0,0.0,0.0,0.0,0.0,0.0,0.0,0.0,0.0,0.0,0.0,0.0,0.0,0.0,0.0,0.0,0.0,0.0,0.0,0.0,0.0,0.0,0.0,0.0,0.0,0.0,0.0,0.0,0.0,0.0,0.0,0.0,0.0,0.0,0.0,0.0,0.0,0.0,0.0,0.0,0.0,0.0,0.0,0.0,0.0,0.0,0.0,0.0,0.0,0.0,0.0,0.0,0.0,0.0,0.0,0.0,0.0,0.0,0.0,0.0,0.0,0.0,0.0,0.0,0.0,0.0,0.0,0.0,0.0,0.0,0.0,0.0,0.0,0.0,0.0,0.0,0.0,0.0,0.0,0.0,0.0,0.0,0.0,0.0,0.0,0.0,0.0,0.0,0.0,0.0,0.0,0.0,0.0,0.0,0.0,0.0,0.0,0.0,0.0,0.0,0.0,0.0,0.0,0.0,0.0,0.0,0.0,0.0,0.0,0.0,0.0,0.0,0.0,0.0,0.0,0.0,0.0,0.0,0.0,0.0,0.0,0.0,0.0,0.0,0.0,0.0,0.0,0.0,0.0,0.0,0.0,0.0,0.0,0.0,0.0,0.0,0.0,0.0,0.0,0.0,0.0,0.0,0.0,0.0,0.0,0.0,0.0,0.0,0.0,0.0,0.0,0.0,0.0,0.0,0.0,0.0,0.0,0.0,0.0,0.0,0.0,0.0,0.0,0.0,0.0,0.0,0.0,0.0,0.0,0.0,0.0,0.0,0.0,0.0,0.0,0.0,0.0,0.0,0.0,0.0,0.0,0.0,0.0,0.0,0.0,0.0,0.0,0.0,0.0,0.0,0.0,0.0,0.0,0.0,0.0,0.0,0.0,0.0,0.0,0.0,0.0,0.0,0.0,0.0,0.0,0.0,0.0,0.0,0.0,0.0,0.0,0.0,0.0,0.0,0.0,0.0,0.0,0.0,0.0,0.0,0.0,0.0,0.0,0.0,0.0,0.0,0.0,0.0,0.0,0.0,0.0,0.0,0.0,0.0,0.0,0.0,0.0,0.0,0.0,0.0,0.0,0.0,0.0,0.0,0.0,0.0,0.0,0.0,0.0,0.0,0.0,0.0,0.0,0.0,0.0,0.0,0.0,0.0,0.0,0.0,0.0,0.0,0.0,0.0,0.0,0.0,0.0,0.0,0.0,0.0,0.0,0.0,0.0,0.0,0.0,0.0,0.0,0.0,0.0,0.0,0.0,0.0,0.0,0.0,0.0,0.0,0.0,0.0,0.0,0.0,0.0,0.0,0.0,0.0,0.0,0.0,0.0,0.0,0.0,0.0,0.0,0.0,0.0,0.0,0.0,0.0,0.0,0.0,0.0,0.0,0.0,0.0,0.0,0.0,0.0,0.0,0.0,0.0,0.0,0.0,0.0,0.0,0.0,0.0,0.0,0.0,0.0,0.0,0.0,0.0,0.0,0.0,0.0,0.0,0.0,0.0,0.0,0.0,0.0,0.0,0.0,0.0,0.0,0.0,0.0,0.0,0.0,0.0,0.0,0.0,0.0,0.0,0.0,0.0,0.0,0.0,0.0,0.0,0.0,0.0,0.0,0.0,0.0,0.0,0.0,0.0,0.0,0.0,0.0,0.0,0.0,0.0,0.0,0.0,0.0,0.0,0.0,0.0,0.0,0.0,0.0,0.0,0.0,0.0,0.0,0.0,0.0,0.0,0.0,0.0,0.0,0.0,0.0,0.0,0.0,0.0,0.0,0.0,0.0,0.0,0.0,0.0,0.0,0.0,0.0,0.0,0.0,0.0,0.0,0.0,0.0,0.0,0.0,0.0,0.0,0.0,0.0,0.0,0.0,0.0,0.0,0.0,0.0,0.0,0.0,0.0,0.0,0.0,0.0,0.0,0.0,0.0,0.0,0.0,0.0,0.0,0.0,0.0,0.0,0.0,0.0,0.0,0.0,0.0,0.0,0.0,0.0,0.0,0.0,0.0,0.0,0.0,0.0,0.0,0.0,0.0,0.0,0.0,0.0,0.0,0.0,0.0,0.0,0.0,0.0,0.0,0.0,0.0,0.0,0.0,0.0,0.0,0.0,0.0,0.0,0.0,0.0,0.0,0.0,0.0,0.0,0.0,0.0,0.0,0.0,0.0,0.0,0.0,0.0,0.0,0.0,0.0,0.0,0.0,0.0,0.0,0.0,0.0,0.0,0.0,0.0,0.0,0.0,0.0,0.0,0.0,0.0,0.0,0.0,0.0,0.0,0.0,0.0,0.0,0.0,0.0,0.0,0.0,0.0,0.0,0.0,-0.8769,0.0,0.0,0.0,0.0,0.0,0.0,0.0,0.0,0.0,0.0,0.0,0.0,0.0,0.0,0.0,0.0,0.0,0.0,0.0,0.0,0.0,0.0,0.0,0.0,0.0,0.0,0.0,0.0,0.0,0.0,0.0,0.0,0.0,0.0,0.0,0.0,0.0,-0.4845,-0.4845,-0.4797,-0.6616,-1.0096,-0.6628,-0.356,-0.0967,0.0,0.0,0.0,0.0,0.0,0.0,0.0,0.0,0.0,0.0,0.0,0.0,0.0,0.0,0.0,0.0,0.0,0.0,0.0,0.0,0.0,0.0,0.0,0.0,0.0,0.0,0.0,0.0,0.0,0.0,0.0,0.0,0.0,0.0,0.0,0.0,0.0,0.0,0.0,0.0,0.0,0.0,0.0,0.0,0.0,0.0,0.0,0.0,0.0,0.0,0.0,0.0,0.0,0.0,0.0,0.0,0.0,0.0,0.0,0.0,0.0,0.0,0.0,0.0,0.0,0.0,0.0,0.0,0.0,0.0,0.0,-0.9153,0.0,0.0,0.0,0.0,0.0,0.0,0.0,0.0,0.0,0.0,0.0,0.0,0.0,0.0,0.0,0.0,0.0,0.0,0.0,0.0,0.0,-0.0041,-0.0146,-0.0156,-0.0134,-0.0075,-0.0125,-0.0109,-0.0007,0.0,0.0,0.0,0.0,0.0,-0.0885,-0.6364,-0.9376,-0.9686,-0.9734,-1.0021,-1.0495,-1.0192,-0.759,-0.3152,-0.3065,0.0,0.0,0.0,0.0,0.0,0.0,0.0,0.0,0.0,0.0,0.0,0.0,0.0,0.0,0.0,0.0,0.0,0.0,0.0,0.0,0.0,0.0,0.0,0.0,0.0,0.0,0.0,0.0,0.0,0.0,0.0,0.0,0.0,0.0,0.0,0.0,0.0,0.0,0.0,0.0,0.0,0.0,0.0,0.0,0.0,0.0,0.0,0.0,0.0,0.0,0.0,0.0,0.0,0.0,0.0,0.0,0.0,0.0,0.0,0.0,0.0,0.0,0.0,-1.5235,-1.4876,-1.3682,-1.3625,-1.3915,-1.4376,-1.3187,-1.2081,-1.0838,0.0,0.0,0.0,0.0,0.0,0.0,0.0,0.0,0.0,0.0,0.0,0.0,0.0,0.0,0.0,0.0,0.0,0.0,0.0,0.0,-0.02,-0.0722,-0.078,-0.0663,-0.0374,-0.0613,-0.0561,-0.0034,0.0,0.0,0.0,0.0,-0.1385,-0.4366,-0.5309,-0.6502,-0.8006,-0.8815,-0.9404,-0.9725,-0.8999,-0.8327,-0.7709,-0.7304,-0.6374,-0.4904,0.0,0.0,0.0,0.0,0.0,0.0,0.0,0.0,0.0,0.0,0.0,0.0,0.0,0.0,0.0,0.0,0.0,0.0,0.0,0.0,0.0,0.0,0.0,0.0,0.0,0.0,0.0,0.0,0.0,0.0,0.0,0.0,0.0,0.0,0.0,0.0,0.0,0.0,0.0,0.0,0.0,-1.1005,-0.9688,0.0,0.0,0.0,0.0,0.0,0.0,0.0,0.0,0.0,0.0,0.0,0.0,0.0,-1.368,-1.4166,-1.3767,-1.4035,-1.4943,-1.5957,-1.6703,-1.7229,-1.7213,-1.7263,-1.7336,-1.709,0.0,-1.3051,-1.1971,0.0,0.0,0.0,0.0,0.0,0.0,0.0,0.0,0.0,0.0,0.0,0.0,0.0,0.0,0.0,0.0,0.0,0.0,0.0,0.0,0.0,-0.1411,-0.134,-0.1204,-0.1327,-0.1287,-0.103,-0.0378,0.0,0.0,-0.1624,-0.3227,-0.4729,-0.5948,-0.722,-0.8602,-0.9353,-0.9868,-1.0166,-1.0083,-1.0087,-1.0177,-1.0269,-0.9365,-0.7558,-0.4505,0.0,0.0,0.0,0.0,0.0,0.0,0.0,0.0,0.0,0.0,0.0,0.0,0.0,0.0,0.0,0.0,0.0,0.0,0.0,0.0,0.0,0.0,0.0,0.0,0.0,0.0,0.0,0.0,0.0,0.0,0.0,0.0,0.0,0.0,0.0,0.0,0.0,0.0,0.0,-1.1021,-0.9236,-0.8789,-0.7143,-0.5515,0.0,0.0,0.0,0.0,0.0,0.0,0.0,0.0,0.0,-1.3221,-1.4042,-1.4985,-1.6055,-1.6168,-1.6722,-1.7698,-1.8393,-1.9219,-2.0083,-2.0052,-2.0039,-2.0068,-2.0434,-1.9639,-1.7835,-1.5072,-1.2807,-1.0794,0.0,0.0,0.0,0.0,-1.0904,-1.12,0.0,0.0,0.0,0.0,0.0,0.0,0.0,0.0,0.0,0.0,0.0,0.0,-0.1901,-0.1918,-0.1861,-0.1809,-0.1935,-0.2037,-0.2082,-0.0921,-0.0164,-0.0007,-0.2688,-0.4192,-0.4192,-0.6554,-0.8256,-0.9191,-0.9972,-1.0579,-1.1034,-1.1255,-1.1568,-1.1926,-1.2034,-1.116,-0.9513,-0.7924,-0.5276,-0.1994,0.0,0.0,0.0,0.0,0.0,0.0,0.0,0.0,0.0,0.0,0.0,0.0,0.0,0.0,0.0,0.0,0.0,0.0,0.0,0.0,0.0,0.0,0.0,0.0,0.0,0.0,0.0,0.0,0.0,0.0,0.0,0.0,0.0,0.0,0.0,0.0,0.0,-0.9809,-0.8726,-0.83,-0.8278,-0.7915,0.0,0.0,0.0,0.0,0.0,0.0,-1.394,-1.5125,-1.5709,-1.554,-1.5911,-1.6779,-1.8178,-1.8522,-1.9207,-2.0238,-2.0585,-2.1221,-2.2115,-2.2062,-2.2036,-2.204,-2.2608,-2.2483,-2.1613,-1.7845,-1.6366,-1.6053,-1.2144,-1.1707,-1.3259,-1.3706,-1.3178,-1.2347,0.0,0.0,0.0,0.0,0.0,0.0,0.0,0.0,0.0,0.0,0.0,-0.2561,-0.239,-0.2195,-0.2015,-0.182,-0.2328,-0.2714,-0.2828,-0.1595,-0.0595,-0.0027,-0.2163,-0.3361,-0.3361,-0.6402,-0.8284,-0.8912,-1.0173,-1.1263,-1.2212,-1.172,-1.217,-1.3334,-1.2224,-1.1353,-1.0753,-1.1255,-1.0088,-0.7431,-0.2131,0.0,0.0,0.0,0.0,0.0,0.0,0.0,0.0,0.0,0.0,0.0,0.0,0.0,0.0,0.0,0.0,0.0,0.0,0.0,0.0,0.0,0.0,0.0,0.0,0.0,0.0,0.0,0.0,0.0,0.0,0.0,0.0,0.0,0.0,0.0,0.0,0.0,0.0,-1.0154,-1.1419,0.0,0.0,0.0,0.0,-1.476,-1.5116,-1.5185,-1.5214,-1.6583,-1.8091,-1.9645,-2.038,-2.0817,-2.0894,-2.0301,-2.0489,-2.1422,-2.1636,-2.2144,-2.2938,-2.2997,-2.2948,-2.2847,-2.2958,-2.2884,-2.2585,-2.0635,-1.8858,-1.7179,-1.5674,-1.411,-1.2833,-1.3671,-1.3949,-1.3881,0.0,0.0,0.0,0.0,0.0,0.0,0.0,-0.0657,-0.1318,-0.1766,-0.2001,-0.2092,-0.2012,-0.2096,-0.2191,-0.2239,-0.2749,-0.3298,-0.3828,-0.3224,-0.2943,-0.3204,-0.4021,-0.5159,-0.6684,-0.7861,-0.9034,-1.0195,-1.0945,-1.1706,-1.2425,-1.2525,-1.3168,-1.4193,-1.406,-1.3836,-1.3373,-1.1551,-1.0697,-1.0317,-0.7365,-0.4207,0.0,0.0,0.0,0.0,0.0,0.0,0.0,0.0,0.0,0.0,0.0,0.0,0.0,0.0,0.0,0.0,0.0,0.0,0.0,0.0,0.0,0.0,0.0,0.0,0.0,0.0,0.0,0.0,0.0,0.0,0.0,0.0,0.0,0.0,0.0,0.0,0.0,-1.1894,-1.3379,0.0,-1.2604,-1.2637,-1.3469,-1.5213,-1.6837,-1.7965,-1.8484,-2.0038,-2.1198,-2.1843,-2.2128,-2.2257,-2.2266,-2.2067,-2.2416,-2.3302,-2.2808,-2.3281,-2.4596,-2.4011,-2.3725,-2.3697,-2.4288,-2.4199,-2.3583,-2.2844,-2.1346,-1.9388,-1.8093,-1.6904,-1.5916,-1.5834,-1.5478,-1.5011,0.0,0.0,0.0,0.0,0.0,0.0,0.0,-0.1019,-0.1587,-0.0973,-0.1369,-0.1767,-0.1907,-0.2041,-0.2245,-0.2551,-0.303,-0.3552,-0.4177,-0.4301,-0.4373,-0.4458,-0.4998,-0.6082,-0.7732,-0.8539,-0.9526,-1.0609,-1.1597,-1.2442,-1.3249,-1.3386,-1.4078,-1.5154,-1.5082,-1.4931,-1.4598,-1.2248,-1.1637,-1.2106,-1.085,-0.8136,-0.4651,0.0,0.0,0.0,0.0,0.0,0.0,0.0,0.0,0.0,0.0,0.0,0.0,0.0,0.0,0.0,0.0,0.0,0.0,0.0,0.0,0.0,0.0,0.0,0.0,0.0,0.0,0.0,0.0,0.0,0.0,0.0,0.0,0.0,0.0,0.0,-1.347,-1.3261,-1.5027,-1.5679,-1.4253,-1.516,-1.6166,-1.6992,-1.8875,-2.0205,-2.0716,-2.2331,-2.3254,-2.3294,-2.3294,-2.3295,-2.33,-2.3344,-2.3823,-2.4706,-2.4424,-2.5009,-2.6326,-2.5707,-2.5417,-2.5428,-2.5726,-2.5502,-2.4929,-2.4128,-2.2839,-2.1254,-2.0043,-1.9043,-1.8206,-1.7831,-1.7231,-1.6459,0.0,0.0,0.0,0.0,0.0,0.0,0.0,-0.1005,-0.1555,-0.0969,-0.126,-0.1672,-0.211,-0.2069,-0.2181,-0.2646,-0.3068,-0.3472,-0.387,-0.4685,-0.4634,-0.3457,-0.4908,-0.5867,-0.6137,-0.8357,-0.9722,-1.0152,-1.2014,-1.3525,-1.4641,-1.4127,-1.4742,-1.6231,-1.5049,-1.441,-1.4233,-1.368,-1.3296,-1.2966,-1.2173,-1.129,-1.0118,0.0,0.0,0.0,0.0,0.0,0.0,0.0,0.0,0.0,0.0,0.0,0.0,0.0,0.0,0.0,0.0,0.0,0.0,0.0,0.0,0.0,0.0,0.0,0.0,0.0,0.0,0.0,0.0,0.0,0.0,0.0,0.0,0.0,-1.3549,-1.4662,-1.5165,-1.435,-1.646,-1.7682,-1.6898,-1.8289,-1.96,-2.0462,-2.1276,-2.1729,-2.168,-2.3235,-2.4149,-2.4149,-2.4149,-2.4149,-2.4178,-2.4178,-2.4673,-2.5634,-2.6456,-2.7265,-2.803,-2.8022,-2.8005,-2.7942,-2.7065,-2.6706,-2.6578,-2.4517,-2.3303,-2.2647,-2.1532,-2.0359,-1.9326,-1.9462,-1.9036,-1.8198,0.0,0.0,0.0,0.0,0.0,0.0,0.0,-0.0654,-0.1088,-0.0914,-0.1251,-0.1427,-0.1273,-0.1706,-0.2047,-0.2181,-0.2867,-0.3375,-0.3588,-0.4104,-0.419,-0.3718,-0.5732,-0.699,-0.7334,-0.9164,-1.0525,-1.1336,-1.2387,-1.3286,-1.405,-1.3921,-1.4496,-1.5721,-1.5344,-1.521,-1.5149,-1.5029,-1.4598,-1.3945,-1.3151,-1.1797,-1.0195,0.0,0.0,0.0,0.0,0.0,0.0,0.0,0.0,0.0,0.0,0.0,0.0,0.0,0.0,0.0,0.0,0.0,0.0,0.0,0.0,0.0,0.0,0.0,0.0,0.0,0.0,0.0,0.0,0.0,0.0,0.0,-1.3722,-1.5452,-1.4882,-1.6149,-1.7326,-1.7809,-1.9043,-1.9764,-1.955,-1.9905,-2.0481,-2.1305,-2.2119,-2.2814,-2.337,-2.4409,-2.4966,-2.4966,-2.4966,-2.5264,-2.5918,-2.5966,-2.6756,-2.8328,-2.7875,-2.8133,-2.8991,-2.8313,-2.7971,-2.7873,-2.6953,-2.6833,-2.7174,-2.5762,-2.4795,-2.3925,-2.1777,-2.0343,-1.9445,-1.9479,-1.9225,-1.8783,0.0,0.0,0.0,0.0,0.0,0.0,0.0,-0.0513,-0.0906,-0.0908,-0.1106,-0.114,-0.0862,-0.1194,-0.1611,-0.1981,-0.2636,-0.3139,-0.3322,-0.3752,-0.4012,-0.3975,-0.58,-0.6807,-0.6828,-0.8997,-1.0322,-1.0749,-1.1978,-1.2919,-1.3531,-1.3731,-1.4157,-1.4733,-1.4733,-1.4597,-1.4381,-1.4431,-1.4369,-1.4144,-1.3661,-1.2444,-1.0951,-1.0927,-0.9673,-0.7952,-0.8273,-0.872,-0.9016,-0.8028,0.0,0.0,0.0,0.0,0.0,0.0,0.0,0.0,0.0,0.0,0.0,0.0,0.0,0.0,0.0,0.0,0.0,0.0,0.0,0.0,0.0,0.0,0.0,0.0,-1.5331,-1.7142,-1.7394,-1.83,-1.9163,-1.9765,-2.0274,-2.0698,-2.1072,-2.1033,-2.1333,-2.214,-2.2943,-2.3621,-2.4091,-2.487,-2.5303,-2.5303,-2.5303,-2.5717,-2.6601,-2.6995,-2.7909,-2.9308,-2.914,-2.9348,-2.9886,-2.9333,-2.9063,0.0,-2.7775,-2.7574,-2.7972,-2.6395,-2.5343,0.0,0.0,0.0,0.0,0.0,-1.9998,-1.9666,0.0,0.0,0.0,0.0,0.0,-0.0048,-0.0185,-0.0623,-0.09,-0.0776,-0.08,-0.075,-0.0491,-0.0571,-0.094,-0.1778,-0.2417,-0.2881,-0.3165,-0.3583,-0.3906,-0.4075,-0.5359,-0.5879,-0.5579,-0.8236,-0.9538,-0.9356,-1.1176,-1.2357,-1.2913,-1.3336,-1.3476,-1.3445,-1.3392,-1.309,-1.2599,-1.2807,-1.3252,-1.3784,-1.3831,-1.3187,-1.2144,-1.1808,-1.0544,-0.8955,-0.9192,-0.9624,-1.0106,-1.0363,0.0,0.0,0.0,0.0,0.0,0.0,0.0,0.0,0.0,0.0,0.0,0.0,0.0,0.0,0.0,0.0,0.0,0.0,0.0,0.0,0.0,0.0,0.0,0.0,-1.6785,-1.8621,-2.0169,-2.0445,-2.0505,-2.0582,-2.0628,-2.0952,-2.1704,-2.1816,-2.2172,-2.2967,-2.3698,-2.413,-2.4225,0.0,0.0,0.0,0.0,-2.5717,-2.6601,-2.7371,-2.8198,-2.9083,-2.9852,-3.0309,-3.049,-3.046,-3.049,-3.0507,-2.898,-2.8561,-2.8755,-2.6713,-2.544,-2.4716,-2.4318,-2.3406,-2.2226,-2.1566,-2.1116,0.0,0.0,0.0,0.0,0.0,0.0,-0.0328,-0.13,-0.1317,-0.0907,-0.0047,-0.0255,-0.0149,0.0816,0.0301,-0.0367,-0.0903,-0.2215,-0.3192,-0.3646,-0.3524,-0.3442,-0.3466,-0.4962,-0.5815,-0.5904,-0.799,-0.9258,-0.9633,-1.0606,-1.136,-1.191,-1.1769,-1.1715,-1.1677,-1.1456,-1.1299,-1.1249,-1.2339,-1.2875,-1.3071,-1.4007,-1.3964,-1.3329,-1.3009,-1.2277,-1.1491,-1.1546,-1.1637,-1.1746,-1.18,-1.1228,-1.036,-0.9488,-0.8057,0.0,0.0,0.0,0.0,0.0,0.0,0.0,0.0,0.0,0.0,0.0,0.0,0.0,0.0,0.0,0.0,0.0,0.0,0.0,-1.5145,-1.7785,-1.9947,-2.0342,-2.037,-2.0371,-2.0508,-2.1139,-2.1598,-2.1702,-2.2293,-2.2994,-2.3813,-2.4005,-2.4389,-2.5024,-2.5207,-2.5303,-2.5303,-2.5303,-2.5717,-2.6601,-2.6774,-2.733,-2.8315,0.0,0.0,-2.9708,-2.9591,-2.9915,-3.0448,-2.9113,-2.8741,-2.8951,-2.7497,-2.615,-2.4873,-2.3313,-2.2552,-2.2293,-2.2141,-2.2035,-2.2012,0.0,0.0,0.0,0.0,0.0,-0.0404,-0.1614,-0.1664,-0.1353,-0.0828,-0.0962,-0.0942,-0.0502,-0.0561,-0.0899,-0.1503,-0.2234,-0.3004,-0.3851,-0.3394,-0.3239,-0.3524,-0.4785,-0.5576,-0.5756,-0.7477,-0.8524,-0.8779,-0.9656,-1.0286,-1.0651,-1.0769,-1.0714,-1.0508,-1.0335,-1.0312,-1.0364,-1.0998,-1.1886,-1.2821,-1.309,-1.3298,-1.3484,-1.3651,-1.3229,-1.2627,-1.2758,-1.2551,-1.221,-1.2352,-1.1753,-1.0937,-1.087,-0.9784,-0.8311,0.0,0.0,0.0,0.0,0.0,0.0,0.0,0.0,0.0,0.0,0.0,0.0,0.0,0.0,-1.3193,-1.3328,0.0,-1.6512,-1.7028,-1.89,-2.0484,-2.0985,-2.1025,-2.1035,-2.1144,-2.1482,-2.2019,-2.2815,-2.3256,-2.3832,-2.463,-2.4707,-2.4889,-2.5284,-2.5303,-2.5303,-2.5303,-2.5303,-2.5717,-2.6601,-2.6601,-2.7322,-2.8744,-2.827,-2.8582,-2.9551,-2.9453,-2.9582,-2.9855,-2.9244,-2.9,-2.8961,-2.6964,-2.5499,-2.4401,-2.3274,-2.2632,-2.231,-2.231,-2.231,-2.2349,-0.0186,-0.0171,-0.0212,-0.0328,-0.0349,-0.0689,-0.1687,-0.1865,-0.1843,-0.1676,-0.166,-0.1682,-0.1715,-0.1272,-0.1334,-0.2196,-0.2262,-0.2759,-0.3995,-0.3348,-0.3169,-0.3721,-0.4737,-0.5345,-0.5439,-0.6963,-0.7787,-0.7919,-0.8699,-0.9264,-0.9604,-0.9992,-0.9901,-0.946,-0.9422,-0.9287,-0.9176,-0.9332,-1.0375,-1.1978,-1.1658,-1.2069,-1.2935,-1.3591,-1.3357,-1.2706,-1.2953,-1.2532,-1.1897,-1.2173,-1.1892,-1.148,-1.1608,-1.0883,-0.996,-0.9743,-0.9197,0.0,0.0,0.0,0.0,0.0,0.0,0.0,0.0,-1.2267,-1.4547,-1.4347,-1.5275,-1.599,-1.5497,-1.6692,-1.8026,-1.8866,-1.9862,-2.08,-2.1567,-2.1823,-2.1998,-2.224,-2.2163,-2.2612,-2.3976,-2.4245,-2.462,-2.5264,-2.5322,-2.5341,-2.5341,-2.5322,-2.5322,-2.5322,-2.5303,-2.563,-2.6351,-2.637,-2.7131,-2.8625,-2.7926,-2.8103,-2.9086,-2.9165,-2.9221,-2.9262,-2.9063,-2.8776,-2.8327,-2.5968,-2.4564,-2.3885,-2.3755,-2.3272,-2.2626,-2.2626,-2.2637,-2.274,-0.0845,-0.08,-0.0964,-0.1498,-0.1594,-0.1682,-0.1946,-0.2122,-0.199,-0.1279,-0.1176,-0.0867,-0.0065,0.0073,-0.0419,-0.1756,-0.2175,-0.2946,-0.4253,-0.357,-0.3229,-0.3588,-0.4714,-0.5318,-0.5343,-0.6477,-0.7363,-0.7919,-0.8242,-0.8671,-0.9155,-0.9274,-0.8948,-0.827,-0.8026,-0.7551,-0.7009,-0.7564,-0.8344,-0.921,-1.0003,-1.0867,-1.1747,-1.237,-1.213,-1.153,-1.1791,-1.1334,-1.0655,-1.098,-1.084,-1.0613,-1.0971,-1.0939,-1.0846,-1.121,-1.0251,-0.9078,-0.9296,-1.0646,-1.1553,-0.9699,-1.0049,-1.1188,0.0,-1.392,-1.5097,-1.5289,-1.5475,-1.5931,-1.7008,-1.8002,-1.8722,-1.8958,-2.0331,-2.1427,-2.1592,-2.2233,-2.3003,-2.3823,-2.3861,-2.39,-2.4082,-2.4793,-2.5293,-2.539,-2.5447,-2.5486,-2.5486,-2.5428,-2.539,-2.539,-2.5322,-2.5341,-2.5437,-2.5505,-2.5678,-2.5938,-2.5847,-2.6281,-2.7226,-2.7873,-2.8541,-2.9144,-2.8147,-2.7218,-2.6339,-2.5094,-2.4303,-2.3967,-2.4658,-2.4417,-2.3722,-2.3722,-2.3903,-2.4095,-0.1051,-0.1258,-0.1463,-0.1607,-0.1719,-0.1813,-0.1875,-0.1958,-0.1951,-0.1759,-0.1744,-0.1719,-0.1637,-0.1487,-0.1592,-0.2103,-0.2232,-0.2691,-0.3686,-0.3342,-0.3179,-0.3436,-0.4642,-0.513,-0.4778,-0.6246,-0.6845,-0.6516,-0.688,-0.7186,-0.7404,-0.7346,-0.7304,-0.7233,-0.7132,-0.6668,-0.6006,-0.6629,-0.7251,-0.7875,-0.8633,-0.9485,-1.0384,-1.0914,-1.0471,-0.9791,-1.1553,-1.1409,0.0,-1.0974,-1.0672,-1.0234,-1.0959,-1.0959,-1.0847,-1.1583,-1.135,-1.1146,-1.2156,-1.2187,-1.1897,-1.1806,-1.2053,-1.2491,-1.3209,-1.4065,-1.5089,-1.6481,-1.7184,-1.7723,-1.8365,-1.8908,-1.9333,-1.9553,-2.0603,-2.1617,-2.2267,-2.3053,-2.3889,-2.4793,-2.487,-2.488,-2.4909,-2.5236,-2.5465,-2.5459,-2.5485,-2.5505,-2.5505,-2.5466,-2.5453,-2.5466,-2.5428,-2.5428,-2.5428,-2.5447,-2.5746,-2.6304,-2.5759,-2.5987,-2.6911,-2.714,-2.7527,-2.7994,-2.7325,-2.5995,-2.4351,-2.4219,-2.3883,-2.3519,-2.3938,-2.4406,-2.4839,-2.4884,-2.4688,-2.4371,-0.1112,-0.1437,-0.1619,-0.147,-0.1592,-0.175,-0.1844,-0.1855,-0.1933,-0.2171,-0.2163,-0.2279,-0.2639,-0.2441,-0.2297,-0.2321,-0.224,-0.2469,-0.3082,-0.3109,-0.3159,-0.3236,-0.4391,-0.4791,-0.4358,-0.578,-0.6168,-0.546,-0.5848,-0.6059,-0.6057,-0.6081,-0.603,-0.5949,-0.5954,-0.5487,-0.4614,-0.5043,-0.5643,-0.6363,-0.6881,-0.7681,-0.8609,-0.9114,-0.8665,-0.8126,-1.0719,-1.0664,-0.9467,-1.032,-0.9973,-0.9342,-1.0496,-1.0658,-1.0651,-1.1657,-1.191,-1.1999,-1.2682,-1.2258,-1.1871,-1.2787,-1.3451,-1.4007,-1.4329,-1.4754,-1.5593,-1.7458,-1.8278,-1.8771,-1.912,-1.9372,-1.958,-1.9912,-2.0676,-2.1583,-2.2602,-2.3437,-2.4282,-2.5207,-2.5322,-2.5283,-2.5181,-2.5398,-2.5522,-2.5538,-2.5541,-2.555,-2.5531,-2.5507,-2.5499,-2.5495,-2.5486,-2.5476,-2.5509,-2.5524,-2.5861,-2.6545,-2.6078,-2.6091,-2.6516,-2.6621,-2.6861,-2.717,-2.6614,-2.5198,-2.3322,-2.3515,-2.3397,-2.3076,-2.3425,-2.4171,-2.5094,-2.548,-2.5155,-2.4528,-0.1097,-0.1221,-0.1313,-0.1302,-0.1416,-0.1624,-0.1948,-0.1999,-0.204,-0.2181,-0.2089,-0.1963,-0.1851,-0.1653,-0.1691,-0.2074,-0.217,-0.2357,-0.2685,-0.2955,-0.3101,-0.3113,-0.3834,-0.4218,-0.4218,-0.4942,-0.5351,-0.5318,-0.5565,-0.5723,-0.5708,-0.619,-0.562,-0.4275,-0.4435,-0.3644,-0.2319,-0.2311,-0.3034,-0.4111,-0.44,-0.5198,-0.6281,-0.6856,-0.6821,-0.673,-0.8766,-0.8299,-0.6944,-0.8388,-0.8168,-0.7568,-0.9164,-0.9855,-1.0383,-1.1714,-1.1554,-1.0646,-0.9332,-1.0217,-1.1739,-1.2759,-1.4621,-1.6273,-1.6616,-1.6719,-1.6995,-1.7984,-1.7945,-1.8045,-1.9022,-1.9216,-1.9331,-1.9743,-2.0531,-2.1393,-2.2199,-2.3005,-2.391,-2.4985,-2.5111,-2.4902,0.0,-2.5093,-2.5611,-2.5592,-2.5664,-2.5668,-2.5601,-2.5544,-2.5499,-2.5495,-2.5447,-2.5421,-2.5503,-2.5564,-2.5601,-2.5649,-2.6404,-2.6338,-2.5563,-2.6274,-2.6816,-2.7132,-2.603,-2.4871,-2.3719,-2.3085,-2.2807,-2.2793,-2.3642,-2.3969,-2.4083,-2.519,-2.5296,-2.4815,-0.0951,-0.1068,-0.1166,-0.1166,-0.1346,-0.1539,-0.1655,-0.1782,-0.1886,-0.1927,-0.1782,0.0,0.0,0.0,0.0,0.0,-0.1767,-0.2055,-0.2655,-0.2701,-0.2809,-0.3097,-0.3704,-0.3922,-0.3592,-0.4633,-0.4886,-0.4306,-0.4647,-0.4746,-0.4565,-0.4662,-0.4231,-0.3473,-0.3524,-0.2785,-0.147,-0.1565,-0.1797,-0.2099,-0.2629,-0.3493,-0.4676,-0.6298,-0.639,-0.5918,0.0,-0.7883,-0.6303,-0.738,-0.7223,-0.6773,-0.7718,-0.8063,-0.8319,-0.94,-0.9989,-1.0453,-1.1191,-1.1956,-1.2919,-1.447,-1.5427,-1.6011,-1.6108,-1.6301,-1.6617,-1.7158,-1.6817,-1.6777,-1.7871,-1.7892,-1.7953,-1.8628,-1.9963,-2.0982,-2.1207,-2.2071,-2.2886,-2.3386,-2.3477,-2.3475,-2.3381,0.0,0.0,-2.4794,-2.4817,-2.5063,-2.5572,-2.5588,-2.5578,-2.5563,-2.5535,-2.5554,-2.5634,-2.5654,-2.5664,-2.5664,-2.5719,-2.5608,-2.536,-2.5488,-2.5552,-2.5582,-2.5201,-2.4394,-2.3334,-2.3133,-2.3032,-2.3013,-2.2915,-2.3275,-2.389,-2.372,-2.3586,-2.3559,-0.0807,-0.094,-0.1024,-0.1024,-0.1205,0.0,0.0,0.0,0.0,0.0,0.0,0.0,0.0,0.0,0.0,0.0,0.0,-0.1741,-0.2176,-0.2433,-0.2645,-0.2848,-0.3327,-0.3477,-0.3162,-0.3917,-0.4107,-0.3685,-0.3854,-0.394,-0.3929,-0.3698,-0.3224,-0.2555,-0.2597,-0.1928,-0.0699,-0.0632,-0.0997,-0.1636,-0.1585,-0.2547,-0.414,-0.5254,-0.5222,0.0,-0.6542,-0.5922,-0.449,-0.601,-0.6009,-0.5514,-0.6371,-0.6982,-0.7574,-0.8321,-0.9236,-1.0408,-1.2316,-1.2926,-1.3505,-1.5344,-1.5799,-1.5827,-1.5955,-1.6067,-1.6301,-1.685,-1.6182,-1.581,-1.687,-1.6781,-1.6851,-1.7762,-1.9114,-2.0228,-2.0703,-2.1372,-2.1945,-2.235,-2.2486,-2.2496,-2.2345,-2.2912,-2.3475,-2.3868,-2.42,-2.4581,-2.5072,-2.539,-2.5543,-2.5524,-2.5587,-2.5611,-2.5633,-2.5648,-2.579,-2.6061,-2.5461,-2.5335,-2.5633,-2.5139,-2.4877,-2.4804,-2.4731,-2.4209,-2.34,-2.3247,-2.3135,-2.2982,-2.2502,-2.2722,-2.3258,-2.2752,-2.2563,-2.2747,-0.0706,-0.0807,-0.0899,0.0,0.0,0.0,0.0,0.0,0.0,0.0,0.0,0.0,0.0,0.0,0.0,0.0,0.0,0.0,-0.1316,-0.2148,-0.2564,-0.2392,-0.2711,-0.2901,-0.2887,-0.2923,-0.3113,-0.3528,-0.3257,-0.3366,-0.3834,-0.3486,-0.2774,-0.1701,-0.182,-0.124,-0.0082,0.0376,-0.064,-0.2407,-0.1279,-0.2272,-0.4376,-0.3774,-0.3513,-0.3472,-0.3691,-0.2704,-0.1698,-0.4331,-0.461,-0.4063,-0.5297,-0.6747,-0.8081,-0.8565,-0.9375,-1.0536,-1.2525,-1.3107,-1.3554,-1.5347,-1.5799,-1.587,-1.6191,-1.6039,-1.6065,-1.6987,-1.5901,-1.5069,-1.5925,-1.5829,-1.5968,-1.7052,-1.8055,-1.9183,-2.0565,-2.0788,-2.1056,-2.1772,-2.2041,-2.1916,-2.1289,-2.1358,-2.1828,-2.2782,0.0,-2.4225,-2.4205,-2.5024,-2.5466,-2.5409,-2.5534,-2.5561,-2.5503,-2.5564,-2.5937,-2.6608,-2.5583,-2.5469,-2.6187,-2.5215,-2.479,-2.4775,-2.4575,-2.4318,-2.3987,-2.3428,-2.3021,-2.2695,-2.2426,-2.231,-2.231,-2.231,-2.231,-2.2415,0.0,0.0,0.0,0.0,0.0,0.0,0.0,0.0,0.0,0.0,0.0,0.0,0.0,0.0,0.0,0.0,0.0,0.0,-0.1427,-0.1723,-0.1941,-0.2088,-0.251,-0.2759,-0.2742,-0.3051,-0.3424,-0.3876,-0.3806,-0.3921,-0.4259,-0.4146,-0.3716,-0.3009,-0.304,-0.253,-0.1611,-0.1361,-0.1275,-0.133,-0.1225,-0.1562,-0.2304,-0.371,-0.3666,-0.2996,-0.4292,-0.3264,-0.159,-0.3471,-0.4857,-0.589,-0.6515,-0.7241,-0.814,-0.959,-1.0719,-1.1835,-1.3457,-1.4481,-1.5209,-1.5664,-1.5799,-1.5827,-1.5913,-1.5856,-1.5747,-1.5558,-1.4432,-1.3413,-1.3215,-1.4032,-1.4761,-1.4847,-1.6982,-1.8693,-1.8868,-1.9237,-1.96,-1.9881,-2.0131,-2.0302,-2.0326,-2.0365,-2.0554,0.0,-2.2404,-2.3523,-2.4177,-2.5024,-2.5492,-2.5486,-2.5567,-2.5582,-2.5567,-2.5534,-2.551,-2.5494,-2.5078,-2.4986,-2.5177,-2.4764,-2.4594,-2.4559,-2.4528,-2.4374,-2.4115,-2.3735,-2.3369,-2.3045,-2.2712,-2.249,-2.231,-2.231,-2.231,-2.2349,0.0,0.0,0.0,0.0,0.0,0.0,0.0,0.0,0.0,0.0,0.0,0.0,0.0,0.0,0.0,0.0,0.0,0.0,0.0,-0.1437,-0.1628,-0.177,-0.2172,-0.2397,-0.2393,-0.2667,-0.3001,-0.3381,-0.3389,-0.3541,-0.3836,-0.3667,-0.3329,-0.2849,-0.2849,-0.2458,-0.179,-0.1534,-0.1609,0.0,0.0,-0.2002,-0.2662,-0.3552,-0.3385,-0.2796,-0.3685,-0.3744,-0.3539,-0.4416,-0.5487,-0.6514,-0.6899,-0.7571,-0.8576,-1.0351,-1.1666,-1.2904,-1.447,-1.5321,-1.5741,-1.5551,-1.5477,-1.5286,-1.4483,-1.4588,-1.4557,-1.3377,-1.2438,-1.1646,-1.1107,-1.2301,-1.3472,-1.3745,-1.6323,-1.8339,-1.8484,-1.8875,-1.9143,-1.9113,-1.9409,-1.9656,-1.9802,-1.988,-1.9973,-2.0152,-2.1833,-2.3071,-2.3552,-2.4774,-2.5455,-2.5459,-2.5517,-2.5369,-2.4995,-2.5186,-2.5042,-2.453,-2.4606,-2.4599,-2.4452,-2.4391,-2.4338,-2.4282,0.0,-2.4357,-2.4284,-2.3717,-2.3369,-2.3141,-2.2704,-2.2426,-2.231,-2.231,-2.231,-2.2349,0.0,0.0,0.0,0.0,0.0,0.0,0.0,0.0,0.0,-0.1522,-0.1279,-0.1134,-0.1215,-0.1032,0.0,0.0,0.0,0.0,0.0,0.0,-0.1437,-0.1424,-0.179,-0.1999,-0.1972,-0.2166,-0.2382,-0.2645,-0.2674,-0.2859,-0.3184,-0.2907,-0.2589,-0.2254,-0.2254,-0.2014,-0.1569,-0.1324,-0.1973,-0.3122,-0.2473,-0.2966,-0.3984,0.0,-0.2976,-0.2798,-0.2637,-0.3956,-0.5789,-0.5888,-0.6251,-0.6718,-0.7101,-0.8069,-0.9387,-1.1074,-1.2432,-1.3767,-1.5344,-1.5741,-1.561,-1.5195,-1.5074,-1.4572,-1.2946,-1.3077,-1.3016,-1.121,-1.0464,-0.994,-0.9304,-1.0696,-1.221,-1.3104,-1.5713,-1.7905,-1.8641,-1.8979,-1.9094,-1.8914,-1.9259,-1.9527,-1.9555,-1.9676,-1.9824,-1.9954,-2.1617,-2.2611,-2.262,-2.4293,-2.5235,-2.5244,-2.531,-2.4975,-2.4206,-2.4621,-2.4529,-2.3953,-2.4264,-2.4264,-2.3968,-2.4039,-2.4039,-2.3968,0.0,0.0,-2.4409,-2.3595,-2.3236,-2.3159,-2.2607,-2.2388,-2.2332,-2.2332,-2.2332,-2.2388,0.0,0.0,0.0,0.0,0.0,0.0,0.0,0.0,0.0,0.0,-0.1368,-0.102,0.0,0.0,0.0,0.0,0.0,0.0,0.0,0.0,0.0,-0.1005,-0.1638,-0.1946,-0.1831,-0.2291,-0.266,-0.2937,-0.3045,-0.3263,-0.3602,-0.3657,-0.3632,-0.3576,-0.3576,-0.3393,-0.3128,-0.3352,-0.3284,-0.3058,-0.3306,-0.3364,-0.3272,-0.3151,0.0,0.0,-0.2549,-0.3164,-0.4268,-0.5252,-0.665,-0.8063,-0.8693,-0.9567,-1.0702,-1.2448,-1.3426,-1.4233,-1.5458,-1.5522,-1.5195,-1.5134,-1.4845,-1.4419,-1.3665,-1.3071,-1.2259,-1.0719,-0.9815,-0.8829,-0.7247,-0.9237,-1.1268,-1.178,-1.4313,-1.6664,-1.7827,-1.8215,-1.8365,-1.833,-1.8789,-1.9148,-1.9265,-1.949,-1.9695,-1.9824,-2.0906,-2.1618,-2.1707,-2.3429,-2.4439,-2.4485,-2.4508,-2.4403,-2.4206,-2.4066,-2.422,-2.462,-2.4258,-2.3967,-2.3738,-2.3482,-2.3504,-2.3759,-2.3777,0.0,-2.4209,-2.3777,-2.3437,-2.3189,-2.3087,-2.2865,-2.2634,-2.2634,-2.2634,-2.2634,0.0,0.0,0.0,0.0,0.0,0.0,0.0,-0.1417,-0.1524,-0.1669,-0.1767,-0.1682,-0.1323,-0.1047,-0.0877,0.0,0.0,0.0,0.0,0.0,0.0,0.0,0.0,0.0,-0.1545,-0.2035,-0.2321,-0.2372,0.0,-0.2832,-0.2928,-0.313,-0.3225,-0.3225,-0.3225,-0.3191,-0.3147,-0.3412,-0.3353,-0.3095,-0.3557,-0.3561,-0.3256,0.0,0.0,0.0,-0.2539,-0.3063,-0.3863,-0.4183,-0.5566,-0.7429,-0.8929,-0.9808,-1.0599,-1.2303,-1.3095,-1.3659,-1.4813,-1.4968,-1.4791,-1.4855,-1.474,-1.411,-1.2168,-1.1756,-1.1009,-0.8141,-0.762,-0.7299,-0.5975,-0.7826,-0.9751,-1.0407,-1.3278,-1.5752,-1.6664,-1.7735,-1.8351,-1.8208,-1.8547,-1.8825,-1.8876,-1.913,-1.9331,-1.9476,-2.0051,-2.0706,-2.1369,-2.2777,-2.3779,-2.4184,-2.4238,-2.4214,-2.4149,-2.4255,-2.425,-2.4115,-2.3934,-2.3702,-2.3437,-2.3259,-2.33,-2.3437,-2.361,0.0,-2.417,-2.3649,-2.3346,-2.3165,-2.2857,-2.273,-2.2669,-2.2537,-2.2573,-2.2695,0.0,0.0,0.0,0.0,0.0,0.0,0.0,-0.1933,-0.1964,-0.192,-0.2285,-0.2385,-0.1938,-0.1419,-0.1038,0.0,0.0,0.0,0.0,0.0,0.0,0.0,0.0,0.0,0.0,0.0,0.0,-0.1844,-0.2185,0.0,0.0,0.0,0.0,0.0,-0.2598,-0.2675,-0.2816,-0.2985,-0.3091,0.0,0.0,-0.3626,0.0,0.0,0.0,0.0,0.0,-0.2949,-0.3508,-0.3321,-0.4301,-0.5969,-0.8111,-0.9157,-0.9921,-1.1536,-1.2427,-1.3068,-1.4088,-1.436,-1.4368,-1.4332,-1.4359,-1.3624,-1.0643,-1.0469,-0.9855,-0.6046,-0.5715,-0.5922,-0.5225,-0.6637,-0.8264,-0.9423,-1.213,-1.453,-1.573,-1.7184,-1.8106,-1.8094,-1.841,-1.8585,-1.8585,-1.8843,-1.9067,-1.9219,-1.949,0.0,-2.1259,-2.2363,-2.324,-2.3828,-2.4088,-2.4158,-2.4044,-2.4366,-2.4252,-2.3723,-2.3692,-2.3522,-2.3189,-2.3117,-2.3093,-2.3117,-2.3387,0.0,0.0,-2.3346,-2.3093,-2.3045,-2.2554,-2.2554,-2.2772,-2.249,-2.2563,-2.2797,0.0,0.0,0.0,0.0,0.0,0.0,0.0,-0.2355,-0.2712,-0.2944,-0.279,-0.2537,-0.2211,-0.1892,-0.1504,0.0,0.0,0.0,0.0,0.0,0.0,0.0,0.0,0.0,0.0,0.0,0.0,-0.1989,-0.2144,0.0,0.0,0.0,0.0,0.0,0.0,-0.2675,-0.2807,-0.2889,0.0,0.0,0.0,0.0,0.0,0.0,0.0,0.0,0.0,-0.229,-0.2471,-0.3227,-0.3662,-0.4223,-0.5961,-0.7482,-0.8949,-1.0634,-1.2042,-1.3191,-1.3714,-1.3874,-1.3741,-1.3265,-1.3297,-1.2849,-1.0659,-1.0143,-0.9336,-0.6655,-0.5619,-0.5195,-0.5108,-0.5915,-0.7239,-0.9264,-1.0485,-1.2296,-1.5469,-1.6254,-1.6846,-1.774,-1.829,-1.8585,-1.8585,-1.8843,-1.9067,-1.9274,0.0,0.0,-2.1342,-2.2369,-2.2933,-2.3008,-2.3791,-2.4072,-2.3839,-2.3682,-2.3877,-2.4398,-2.3945,-2.3522,-2.3189,-2.288,-2.2746,-2.2746,-2.2849,0.0,0.0,-2.2898,-2.2746,-2.2746,-2.2669,-2.2873,-2.3117,-2.2772,-2.2873,-2.3117,0.0,0.0,0.0,0.0,0.0,0.0,-0.2247,-0.2361,-0.2372,-0.2333,-0.2768,-0.2707,-0.1667,-0.1951,-0.1861,-0.0973,0.0,0.0,0.0,0.0,0.0,0.0,0.0,0.0,0.0,0.0,-0.1865,-0.1999,-0.2134,0.0,0.0,0.0,0.0,0.0,0.0,-0.2694,-0.2871,-0.2967,0.0,0.0,0.0,0.0,0.0,0.0,0.0,0.0,0.0,0.0,-0.2348,-0.2491,-0.2956,-0.3585,-0.4294,-0.5425,-0.7006,-0.9436,-1.0568,-1.1289,-1.259,-1.2733,-1.2633,-1.3068,-1.2926,-1.2093,-1.0014,-0.9367,-0.8483,-0.594,-0.519,-0.4998,-0.5031,-0.5352,-0.6241,-0.8146,-0.9478,-1.088,-1.2636,-1.4199,-1.5398,-1.6028,-1.6761,-1.7573,-1.8498,-1.8843,-1.9117,-1.9456,0.0,0.0,-2.0657,-2.1589,-2.2578,-2.3593,-2.3967,-2.4253,-2.4522,-2.4358,-2.4366,-2.4495,-2.3961,-2.3522,-2.3189,-2.2848,-2.2695,-2.2695,-2.2738,0.0,0.0,-2.2583,-2.2495,-2.2669,-2.2214,-2.2504,-2.3159,-2.2643,-2.2755,-2.3117,0.0,0.0,0.0,0.0,0.0,-0.199,-0.2367,-0.2454,-0.2387,-0.2165,-0.2789,-0.2793,-0.1643,-0.1938,-0.1919,-0.1178,-0.0977,0.0,0.0,0.0,0.0,0.0,0.0,0.0,0.0,0.0,-0.1918,-0.224,-0.2363,-0.2576,0.0,0.0,-0.2773,-0.2773,0.0,0.0,0.0,0.0,0.0,0.0,0.0,0.0,0.0,0.0,0.0,0.0,0.0,0.0,0.0,0.0,0.0,-0.3114,-0.324,-0.4008,-0.5411,-0.8095,-0.9226,-0.9933,-1.1434,-1.1769,-1.1847,-1.2635,-1.2413,-1.1443,-0.9255,-0.8737,-0.7962,-0.5344,-0.4865,-0.4908,-0.4955,-0.5017,-0.5644,-0.7386,-0.8319,-0.9408,-1.103,-1.2528,-1.3758,-1.4599,-1.5319,-1.6359,-1.7954,-1.8786,-1.9346,0.0,0.0,0.0,-2.0507,-2.1451,-2.253,-2.3745,-2.4227,-2.4605,-2.4937,-2.4842,-2.467,-2.441,-2.4019,-2.361,-2.3189,-2.2972,-2.2764,-2.2573,0.0,0.0,0.0,-2.2152,-2.204,-2.2152,-2.1744,-2.2113,-2.283,-2.2453,-2.2607,-2.2972,0.0,0.0,0.0,0.0,0.0,0.0,-0.2172,-0.2704,-0.3034,-0.2893,-0.2913,-0.2798,-0.252,-0.1957,-0.1613,-0.1602,-0.1171,0.0,0.0,0.0,0.0,0.0,0.0,0.0,0.0,0.0,-0.2059,-0.2792,-0.293,-0.3294,-0.3872,-0.3405,-0.3198,-0.3179,0.0,0.0,0.0,0.0,0.0,0.0,0.0,0.0,0.0,0.0,0.0,0.0,0.0,0.0,0.0,0.0,0.0,0.0,0.0,-0.3524,-0.452,-0.6607,-0.8355,-0.9727,-1.0348,-1.1037,-1.1618,-1.1705,-1.1611,-1.0884,-0.8547,-0.8366,-0.7924,-0.5176,-0.4759,-0.4894,-0.4894,-0.4954,-0.5565,-0.7326,-0.6888,-0.7675,-1.1543,-1.1594,-1.1916,-1.3781,-1.4251,-1.5073,-1.6774,-1.8663,-1.979,0.0,0.0,0.0,-2.1256,-2.2307,-2.2916,-2.3007,-2.4495,-2.5138,-2.4804,-2.4804,-2.4591,-2.419,-2.419,-2.3855,-2.3189,-2.3189,-2.2857,0.0,0.0,0.0,0.0,-2.1612,-2.1368,-2.1055,-2.143,-2.1816,-2.2141,-2.226,-2.2463,-2.266,0.0,0.0,0.0,0.0,0.0,0.0,0.0,-0.1818,-0.1712,-0.1679,-0.187,-0.1894,-0.1583,-0.1586,-0.1609,-0.1609,-0.1174,0.0,0.0,0.0,0.0,0.0,0.0,0.0,0.0,0.0,-0.2623,-0.3555,-0.3779,-0.4043,-0.4297,-0.3882,-0.3516,-0.3179,-0.2773,-0.276,0.0,0.0,0.0,0.0,0.0,0.0,0.0,0.0,0.0,0.0,0.0,0.0,0.0,0.0,0.0,0.0,0.0,0.0,0.0,-0.4948,-0.6222,-0.7542,-0.8533,-0.8817,-0.9027,-0.9694,-0.9576,-0.8975,-0.7624,-0.733,-0.6798,-0.4914,-0.4653,-0.4768,-0.4824,-0.4918,-0.5764,-0.8112,-0.8254,-0.8724,-1.061,-1.2161,-1.3271,-1.3736,-1.6336,-1.832,-1.8889,0.0,0.0,0.0,0.0,0.0,-2.0618,-2.2067,-2.3166,-2.3727,-2.475,-2.5138,-2.4804,-2.4804,-2.4591,-2.4208,-2.3976,-2.3628,-2.3189,-2.2972,0.0,0.0,0.0,0.0,0.0,-2.1306,-2.1118,-2.0991,-2.0781,-2.1272,-2.2068,-2.1878,-2.2175,-2.266,0.0,0.0,0.0,0.0,0.0,0.0,0.0,-0.1304,-0.1129,-0.1044,-0.126,-0.1376,-0.13,-0.1317,-0.1401,-0.1595,-0.1174,0.0,0.0,0.0,0.0,0.0,0.0,0.0,-0.179,-0.225,-0.3176,-0.4613,-0.4937,-0.5309,-0.5691,-0.5293,-0.46,-0.3677,-0.3299,-0.3085,0.0,0.0,0.0,0.0,0.0,0.0,-0.3713,0.0,0.0,0.0,0.0,0.0,0.0,0.0,0.0,0.0,0.0,0.0,0.0,0.0,-0.4627,-0.5857,-0.7297,-0.7772,-0.8039,-0.8832,-0.8794,-0.8282,-0.7177,-0.6809,-0.6275,-0.4794,-0.4587,-0.4674,-0.4708,-0.4872,-0.5649,-0.7606,-0.7927,-0.8574,-1.049,-1.2084,-1.3377,-1.4231,-1.7155,-1.9094,0.0,-1.9764,0.0,0.0,0.0,0.0,-2.0292,-2.1895,-2.3035,-2.3475,-2.4591,-2.5061,-2.4804,-2.4731,-2.4528,-2.419,-2.3666,-2.3404,-2.3369,-2.2722,0.0,0.0,0.0,0.0,0.0,-2.1086,-2.0812,-2.0499,-2.0348,-2.0863,-2.1681,-2.1625,-2.1994,-2.2527,0.0,0.0,0.0,0.0,0.0,0.0,0.0,-0.1085,-0.1133,-0.0895,-0.0978,-0.1162,-0.1479,-0.1146,-0.1082,-0.1504,0.0,0.0,0.0,0.0,0.0,0.0,0.0,0.0,-0.1812,-0.2369,-0.3674,-0.5783,-0.6181,-0.6852,-0.7734,-0.7317,-0.6232,-0.4619,-0.43,-0.371,0.0,0.0,0.0,0.0,-0.3762,-0.3854,0.0,0.0,0.0,0.0,0.0,0.0,0.0,0.0,0.0,0.0,0.0,0.0,0.0,0.0,0.0,0.0,0.0,-0.7483,-0.8152,-0.8655,-0.8755,-0.8372,-0.701,-0.6655,0.0,-0.4781,-0.4546,-0.4614,-0.4686,-0.4864,-0.5315,-0.6308,-0.6473,-0.7679,-1.1112,-1.1794,-1.2897,-1.544,-1.7128,-1.8063,-1.808,0.0,0.0,0.0,0.0,0.0,0.0,-2.1814,-2.2634,-2.2486,-2.4098,-2.4898,-2.4775,-2.4591,-2.441,-2.419,-2.3419,-2.3285,-2.3656,-2.2576,0.0,0.0,0.0,0.0,0.0,-2.1023,-2.0499,-1.9782,-2.0124,-2.055,-2.0991,-2.1368,-2.1823,-2.2254,0.0,0.0,0.0,0.0,0.0,0.0,0.0,0.0,0.0,0.0,-0.0542,-0.0597,-0.0667,-0.0814,-0.0943,0.0,0.0,0.0,0.0,0.0,0.0,0.0,0.0,0.0,-0.2081,-0.2729,-0.39,-0.5658,-0.6109,-0.698,-0.8223,-0.7664,-0.6878,-0.5937,-0.5755,-0.491,0.0,0.0,0.0,0.0,-0.3892,-0.4057,0.0,0.0,0.0,0.0,-0.3264,-0.3339,0.0,0.0,0.0,0.0,0.0,0.0,0.0,0.0,-0.3265,-0.3345,-0.4271,0.0,-0.5446,-0.5667,-0.5885,-0.5964,0.0,-0.5723,-0.547,-0.4673,-0.4509,-0.4757,-0.5528,-0.5271,-0.5638,-0.7858,-0.8248,-0.9266,-1.2101,-1.4757,-1.7108,-1.9003,-1.9525,-1.9762,-1.9807,0.0,0.0,0.0,0.0,-2.1079,0.0,-2.1779,-2.2595,-2.2498,-2.3889,-2.4588,-2.4559,-2.4528,-2.441,-2.419,-2.3755,-2.3593,-2.3692,-2.315,0.0,0.0,0.0,0.0,-2.1811,-2.1228,-2.0665,-2.0158,-1.9929,-2.0104,-2.0483,-2.0567,-2.1102,-2.1718,0.0,0.0,0.0,0.0,0.0,0.0,0.0,0.0,0.0,0.0,0.0,-0.0406,-0.0406,-0.0697,0.0,0.0,0.0,0.0,0.0,0.0,0.0,0.0,0.0,-0.1283,-0.2088,-0.2915,-0.4243,-0.61,-0.6675,-0.763,-0.8955,-0.8441,-0.7544,-0.6357,-0.5692,-0.4726,0.0,0.0,0.0,-0.4215,-0.3785,0.0,0.0,0.0,0.0,0.0,-0.3366,-0.3539,0.0,-0.3977,-0.4342,-0.4702,0.0,0.0,0.0,0.0,-0.2819,-0.2711,-0.2774,-0.378,-0.4835,-0.4899,-0.5253,-0.5529,-0.5431,-0.534,-0.5098,-0.4528,-0.4465,-0.4674,-0.525,-0.568,-0.6309,-0.7392,-0.9275,-1.1654,-1.4705,-1.707,-1.8973,-2.0253,-2.0366,-2.0365,0.0,0.0,0.0,0.0,0.0,0.0,0.0,-2.1896,-2.2607,-2.295,-2.3854,-2.441,-2.4495,-2.441,-2.4303,-2.419,-2.3651,-2.3571,-2.3917,-2.3207,-2.3075,0.0,0.0,0.0,-2.2068,-2.1488,-2.0878,-2.028,-2.0054,-2.0089,-2.0314,-2.0314,-2.0732,-2.1275,0.0,0.0,0.0,0.0,0.0,0.0,0.0,0.0,0.0,0.0,0.0,0.0,0.0,0.0,0.0,0.0,0.0,0.0,0.0,0.0,0.0,0.0,-0.0753,-0.1332,-0.2179,-0.3055,-0.4528,-0.66,-0.7301,-0.8342,-0.9592,-0.9284,-0.8226,-0.6571,-0.5131,-0.4131,0.0,0.0,-0.3996,-0.4159,-0.3659,0.0,0.0,0.0,0.0,0.0,0.0,0.0,0.0,-0.3974,-0.4408,-0.4905,-0.4272,0.0,0.0,0.0,0.0,0.0,-0.1931,-0.3021,-0.437,-0.473,-0.5278,-0.562,-0.5237,-0.5021,-0.4788,-0.4391,-0.4392,-0.4604,-0.5049,-0.6152,-0.6956,-0.6783,-1.0235,-1.4082,-1.7423,-1.8757,-1.9633,-2.0311,-2.0387,0.0,0.0,0.0,0.0,0.0,0.0,0.0,0.0,-2.1977,-2.2619,-2.3437,-2.3949,-2.4284,-2.4444,-2.4284,-2.4135,-2.4006,-2.3327,-2.329,-2.3804,-2.297,-2.2919,0.0,0.0,0.0,-2.2152,-2.1774,-2.1134,-2.0416,-2.0348,-2.0246,-2.0227,-2.0227,-2.0499,-2.0894,0.0,0.0,0.0,0.0,0.0,0.0,0.0,0.0,0.0,0.0,0.0,0.0,0.0,0.0,0.0,0.0,0.0,0.0,0.0,0.0,0.0,-0.0659,-0.0922,-0.1701,-0.3079,-0.3368,-0.4356,-0.6098,-0.7059,-0.8255,-0.9622,-0.9715,-0.9011,-0.7607,-0.5721,-0.4595,-0.4069,-0.3831,-0.3908,-0.4169,-0.3867,0.0,0.0,0.0,0.0,0.0,0.0,0.0,0.0,-0.3668,-0.408,-0.4504,-0.4071,0.0,0.0,0.0,0.0,0.0,-0.2253,-0.1236,-0.06,-0.2596,-0.3573,-0.406,-0.3972,-0.4024,-0.4126,-0.4275,-0.431,-0.499,-0.7172,-0.6765,-0.6899,-0.9341,-1.2405,-1.5254,-1.7509,-1.9194,-2.0253,-2.0389,0.0,0.0,0.0,0.0,0.0,0.0,0.0,0.0,0.0,-2.1709,-2.2415,-2.3228,-2.3878,-2.4209,-2.4247,-2.4209,-2.3859,-2.318,-2.307,-2.2721,-2.2189,-2.2703,-2.2845,0.0,0.0,-2.2947,-2.2565,-2.189,-2.1337,-2.0862,-2.0449,-2.0089,-1.9782,-1.9782,-2.007,-2.0348,0.0,0.0,0.0,0.0,0.0,0.0,0.0,0.0,0.0,0.0,0.0,0.0,0.0,0.0,0.0,0.0,0.0,0.0,0.0,0.0,-0.1001,-0.1171,-0.137,-0.2001,-0.3115,-0.3977,-0.5238,-0.692,-0.7863,-0.879,-0.9753,-0.8755,-0.7611,-0.6376,-0.5229,-0.4371,-0.3764,-0.38,-0.4005,-0.4266,0.0,0.0,0.0,0.0,0.0,0.0,0.0,0.0,0.0,0.0,-0.3949,-0.4385,-0.373,0.0,0.0,0.0,0.0,0.0,-0.2175,-0.1748,-0.1464,-0.236,-0.2695,-0.3421,-0.5897,-0.6394,-0.6417,-0.6671,-0.6437,-0.6562,-0.7761,-0.8651,-1.0399,-1.4077,-1.5142,-1.6274,-1.8503,-1.9249,-1.969,0.0,0.0,0.0,0.0,0.0,0.0,0.0,0.0,0.0,0.0,0.0,-2.25,-2.3601,-2.3838,-2.3837,-2.3671,-2.3837,-2.3633,-2.3015,-2.2643,-2.2238,-2.1821,-2.2256,-2.2334,-2.2134,0.0,-2.2453,-2.2297,-2.2067,-2.1584,-2.0959,-2.0764,-2.0261,-1.9639,-1.9369,-1.9376,-1.9456,0.0,0.0,0.0,0.0,0.0,0.0,0.0,0.0,0.0,0.0,0.0,0.0,0.0,0.0,0.0,0.0,0.0,0.0,0.0,0.0,-0.1245,-0.157,-0.1835,-0.2499,-0.358,-0.4604,-0.5968,-0.7774,-0.8599,-0.9172,-0.9512,-0.7901,-0.644,-0.5131,-0.4575,-0.3984,-0.3456,-0.3669,-0.3922,-0.4122,0.0,0.0,0.0,0.0,0.0,0.0,0.0,0.0,0.0,0.0,0.0,0.0,0.0,0.0,0.0,-0.2681,-0.2264,-0.2118,-0.2269,-0.2175,-0.2157,-0.2643,-0.2602,-0.3601,-0.8,-0.8416,-0.8069,-0.8807,-0.8735,-0.8571,-0.8608,-1.0681,-1.3461,-1.6848,-1.6877,-1.7205,-1.9337,-1.9291,-1.9264,0.0,0.0,0.0,0.0,0.0,0.0,0.0,0.0,0.0,0.0,0.0,-2.25,-2.3955,-2.3649,-2.3335,-2.314,-2.3158,-2.2986,-2.2593,-2.2162,-2.1697,-2.1215,-2.1512,-2.1555,-2.1424,-2.1822,-2.1965,-2.1902,-2.2173,-2.1781,-2.0991,-2.0991,-2.0481,-1.9639,-1.9095,-1.8893,-1.8817,0.0,0.0,0.0,0.0,0.0,0.0,0.0,0.0,0.0,0.0,0.0,0.0,0.0,0.0,0.0,0.0,0.0,0.0,0.0,0.0,-0.1224,-0.1495,-0.2174,-0.3437,-0.5355,-0.5039,-0.5855,-0.7974,-0.8616,-0.8794,-0.8589,-0.8148,-0.6872,-0.4981,-0.4123,-0.3686,-0.3572,-0.3412,-0.3391,-0.3463,-0.3416,0.0,0.0,0.0,0.0,0.0,0.0,0.0,0.0,0.0,0.0,0.0,0.0,0.0,-0.409,-0.3347,-0.3031,-0.2917,-0.2931,-0.1105,0.0107,-0.2796,-0.3636,-0.4797,-0.8734,-0.7881,-0.6874,-0.9009,-1.0159,-1.0771,-1.0779,-1.2264,-1.3759,-1.4547,-1.6303,-1.8005,-1.9245,0.0,0.0,0.0,0.0,0.0,0.0,0.0,0.0,0.0,0.0,0.0,0.0,0.0,0.0,-2.3929,-2.315,-2.2763,-2.2924,-2.2031,-2.151,-2.1419,-2.1698,-2.0976,-1.9525,-2.026,-2.0476,-2.0299,-2.1483,-2.1809,-2.1581,-2.2082,-2.1781,-2.0991,-2.0991,-2.0481,-1.9639,-1.9095,-1.8893,-1.8727,0.0,0.0,0.0,0.0,0.0,0.0,0.0,0.0,0.0,0.0,0.0,0.0,0.0,0.0,0.0,0.0,0.0,0.0,0.0,-0.1024,-0.1234,-0.1551,-0.2234,-0.3252,-0.4629,-0.5654,-0.7147,-0.9191,-0.8976,-0.8489,-0.7671,-0.6615,-0.544,-0.4166,-0.3621,-0.3636,-0.4013,-0.3637,-0.3741,-0.4111,-0.369,-0.3419,0.0,0.0,0.0,0.0,0.0,0.0,0.0,0.0,-0.3612,-0.4197,-0.3451,-0.3725,-0.4138,-0.3316,-0.2859,-0.272,-0.3187,-0.148,-0.0354,-0.3552,-0.3504,-0.4121,-0.9677,-0.9983,-0.9708,-1.1909,-1.1994,-1.1782,-1.2113,-1.358,-1.4912,-1.5548,-1.7007,-1.8173,-1.843,0.0,0.0,0.0,0.0,0.0,0.0,0.0,0.0,0.0,0.0,0.0,0.0,0.0,0.0,-2.2406,-2.2483,-2.2421,-2.2345,-2.1989,-2.1336,-2.0373,-2.0714,-2.0237,-1.9135,-1.9681,-1.9751,-1.9471,-2.0717,-2.1103,-2.0901,-2.1895,-2.1781,-2.0959,-2.0413,-1.9788,-1.9132,-1.8612,-1.8185,-1.7787,0.0,0.0,0.0,0.0,0.0,0.0,0.0,0.0,0.0,0.0,0.0,0.0,0.0,0.0,0.0,0.0,0.0,0.0,-0.084,-0.0969,-0.119,-0.1547,-0.2148,-0.3026,-0.4239,-0.5801,-0.7383,-0.8967,-0.8704,-0.7972,-0.6833,-0.5864,-0.524,-0.4895,-0.4152,-0.4377,-0.5243,-0.4271,-0.4111,-0.4465,-0.3738,-0.3277,0.0,0.0,0.0,0.0,0.0,0.0,0.0,0.0,-0.3618,-0.4202,-0.3694,-0.3939,-0.4306,-0.3664,-0.3314,-0.3228,-0.3643,-0.2528,-0.1711,-0.3701,-0.3327,-0.3767,-0.8769,-1.0211,-1.1132,-1.338,-1.2965,-1.2318,-1.279,-1.3802,-1.4761,-1.5353,-1.6729,-1.7679,0.0,0.0,0.0,0.0,0.0,0.0,0.0,0.0,0.0,0.0,0.0,0.0,0.0,0.0,0.0,0.0,-2.1601,-2.1716,-2.1581,-2.1567,-2.0788,-1.9301,-1.9883,-1.9702,-1.8878,-1.9164,-1.913,-1.8932,-2.0146,-2.0506,-2.0301,-2.1579,-2.1584,-2.0682,-1.9788,-1.9207,-1.8817,-1.8106,-1.7626,-1.7229,0.0,0.0,0.0,0.0,0.0,0.0,0.0,0.0,0.0,0.0,0.0,0.0,0.0,0.0,0.0,0.0,0.0,0.0,-0.0704,-0.0819,-0.1079,-0.1477,-0.1946,-0.2948,-0.4541,-0.5303,-0.6117,-0.7013,-0.7574,-0.7251,-0.6098,-0.6222,-0.675,-0.7517,-0.5918,-0.6062,-0.7343,-0.5273,-0.4403,-0.4343,-0.3459,-0.3032,-0.2926,0.0,0.0,0.0,0.0,0.0,0.0,0.0,-0.3652,-0.3782,-0.4768,-0.491,-0.4671,-0.453,-0.459,-0.4641,-0.4372,-0.4065,-0.3679,-0.3045,-0.3262,-0.4036,-0.5631,-0.7849,-1.0279,-1.2768,-1.2814,-1.2471,-1.2719,-1.2789,-1.2904,-1.3315,-1.5137,0.0,0.0,0.0,0.0,0.0,0.0,0.0,0.0,0.0,0.0,0.0,0.0,0.0,0.0,0.0,0.0,0.0,-2.0502,-2.0489,-2.0669,-2.0391,-1.9568,-1.8192,-1.9274,-1.9361,-1.8585,-1.8585,-1.8585,-1.8654,-1.9886,-2.0157,-1.9874,-2.1089,-2.1054,-2.0212,-1.9251,-1.8893,-1.8765,-1.7706,-1.7312,-1.7229,0.0,0.0,0.0,0.0,0.0,0.0,0.0,0.0,0.0,0.0,0.0,0.0,0.0,0.0,0.0,0.0,0.0,0.0,-0.0682,-0.0737,-0.0856,-0.1066,-0.1973,-0.2524,-0.2621,-0.363,-0.4982,-0.6723,-0.6583,-0.6208,-0.5672,-0.5759,-0.5945,-0.6199,-0.6284,-0.6346,-0.6303,-0.5158,-0.4899,-0.5154,-0.4196,-0.3724,-0.3622,0.0,0.0,0.0,0.0,0.0,0.0,0.0,0.0,0.0,-0.3808,-0.4126,-0.4509,-0.3895,-0.3893,-0.4067,-0.4089,-0.1209,0.1064,-0.1993,-0.0077,0.1273,-0.3671,-0.6602,-0.8898,-1.1158,-1.1542,-1.1291,-1.0675,-1.1045,0.0,-1.2253,-1.3815,0.0,0.0,0.0,0.0,0.0,0.0,0.0,0.0,0.0,0.0,0.0,0.0,0.0,0.0,0.0,0.0,0.0,-1.9269,-1.9655,-1.9976,-1.8986,-1.8159,-1.7558,-1.8182,-1.8302,-1.7992,-1.8413,-1.8489,-1.8377,-1.9491,-1.9593,-1.899,-1.9436,-1.9703,-1.9763,-1.914,-1.865,-1.8302,-1.7987,-1.7394,-1.671,0.0,0.0,0.0,0.0,0.0,0.0,0.0,0.0,0.0,0.0,0.0862,0.0784,0.0,0.0,0.0,0.0,0.0,0.0,-0.0559,-0.0581,-0.0748,-0.1125,-0.1867,-0.237,-0.2561,-0.3461,-0.4445,-0.5525,-0.5415,-0.5346,-0.5359,-0.6237,-0.6951,-0.7581,-0.8241,-0.8151,-0.7405,-0.6074,-0.5439,-0.524,-0.4227,-0.3743,-0.3652,0.0,0.0,0.0,0.0,0.0,0.0,0.0,0.0,0.0,-0.3511,-0.3771,-0.4166,-0.3822,-0.4066,-0.4134,-0.2587,-0.02,0.1594,0.051,0.2141,0.2712,-0.2198,-0.5804,-0.8531,-1.0105,-1.057,-1.0206,-0.8463,-0.9052,0.0,0.0,0.0,0.0,0.0,0.0,0.0,0.0,0.0,0.0,0.0,0.0,0.0,0.0,0.0,0.0,0.0,0.0,0.0,0.0,-1.7946,-1.8436,-1.863,-1.767,-1.7104,-1.6819,-1.7188,-1.7316,-1.7158,-1.7648,-1.7793,-1.7692,-1.8502,-1.8924,-1.8964,-1.8644,-1.8835,-1.9244,-1.8478,-1.813,-1.7977,-1.7785,-1.717,-1.6459,0.0,0.0,0.0,0.0,0.0,0.0,0.0,0.0,0.0,0.1068,0.0973,0.0895,0.0,0.0,0.0,0.0245,0.0211,0.0033,-0.0357,-0.039,-0.0726,-0.145,-0.1768,-0.2499,-0.3667,-0.4214,-0.4277,-0.3869,-0.427,-0.4682,-0.5201,-0.72,-0.894,-1.0391,-1.0822,-1.0527,-0.952,-0.7367,-0.5845,-0.4783,-0.3877,-0.3402,-0.3308,-0.3766,0.0,0.0,0.0,0.0,0.0,0.0,0.0,0.0,-0.3623,-0.3697,-0.373,-0.4002,-0.4422,-0.4014,-0.0275,0.0098,0.0303,0.3965,0.3658,0.1735,-0.1192,-0.4806,-0.7882,-0.8958,-0.9318,-0.8648,-0.6027,-0.6684,-0.8134,0.0,0.0,0.0,0.0,0.0,0.0,0.0,0.0,0.0,0.0,0.0,0.0,0.0,0.0,0.0,0.0,0.0,0.0,0.0,-1.6436,-1.6754,-1.6783,-1.6393,-1.6129,0.0,-1.6256,-1.6308,-1.6148,-1.6607,-1.6869,-1.694,-1.7273,-1.8208,-1.939,-1.8352,-1.8263,-1.8631,-1.7505,-1.7381,-1.7762,-1.7306,-1.679,-1.6388,0.0,0.0,0.0,0.0,0.0,0.0,0.0,0.0,0.1024,0.0951,0.0921,0.0899,0.0895,0.0784,0.0,0.0379,0.0256,0.0078,-0.0222,-0.0346,-0.0678,-0.1312,-0.2392,-0.3213,-0.3692,-0.3575,-0.356,-0.3671,-0.3954,-0.4619,-0.5599,-0.7005,-0.8286,-0.9412,-0.9623,-0.9,-0.7675,-0.6038,-0.5047,-0.4565,-0.4401,-0.4073,-0.3719,-0.4138,-0.3867,0.0,0.0,0.0,0.0,0.0,0.0,0.0,-0.3094,-0.3266,-0.3414,-0.3181,-0.1481,0.0526,0.1515,0.4835,0.7749,0.6505,0.5406,0.3456,-0.1081,-0.056,-0.0239,-0.426,-0.4351,-0.345,-0.275,0.0,0.0,0.0,0.0,0.0,0.0,0.0,0.0,0.0,0.0,0.0,0.0,0.0,0.0,0.0,0.0,0.0,0.0,0.0,0.0,-1.4585,-1.4324,-1.4549,-1.5262,-1.4287,-1.4159,0.0,-1.4903,-1.4927,-1.4923,-1.6212,-1.7203,-1.785,-1.7155,-1.7463,-1.8352,-1.7271,-1.7146,-1.7612,-1.7252,-1.7157,-1.7306,-1.7616,-1.7119,-1.6388,0.0,0.0,0.0,0.0,0.0,0.0,0.0,0.0,0.1079,0.1006,0.0943,0.0921,0.0995,0.0873,0.0,0.0,0.039,0.0178,-0.0089,-0.029,-0.0859,-0.1871,-0.2812,-0.3384,-0.3599,-0.3334,-0.3229,-0.3264,-0.3523,-0.4381,-0.5772,-0.7152,-0.8302,-0.9264,-0.9717,-0.8922,-0.7167,-0.6015,-0.5045,-0.4252,-0.4161,-0.3874,-0.3567,-0.3992,-0.3781,-0.329,-0.3543,0.0,0.0,0.0,0.0,0.0,0.0,0.0,-0.318,-0.3032,-0.1783,0.0168,0.2968,0.5308,0.7084,0.7531,0.6045,0.3817,0.1464,0.2669,0.3762,0.1998,0.0744,0.0147,0.0664,0.0,0.0,0.0,0.0,0.0,0.0,0.0,0.0,0.0,0.0,0.0,0.0,0.0,0.0,0.0,0.0,0.0,0.0,-1.2839,-1.3158,-1.2903,-1.2904,-1.2999,-1.3215,-1.2948,-1.3166,-1.3822,-1.409,-1.431,-1.4533,-1.5535,-1.6542,-1.7455,-1.6681,-1.6719,-1.7188,-1.6637,-1.6632,-1.6877,-1.6487,-1.6619,-1.702,-1.7106,-1.673,-1.6266,0.0,0.0,0.0,0.0,0.0,0.0,0.0,0.0,0.0,0.1068,0.0973,0.094,0.1057,0.0962,0.0843,0.0,0.0,0.0,0.0056,-0.0297,-0.1078,-0.2382,-0.2937,-0.3308,-0.3505,-0.3346,-0.322,-0.31,-0.3276,-0.4248,-0.5972,-0.7317,-0.8478,-0.9441,-0.9852,-0.9016,-0.7246,-0.622,-0.5079,-0.3972,-0.3751,-0.347,-0.3221,-0.3641,-0.3536,-0.3192,-0.3637,-0.3606,-0.3365,-0.3344,0.0,0.0,0.0,0.0,-0.303,-0.3134,-0.3054,-0.1898,0.2821,0.433,0.5199,0.7887,0.6437,0.4417,0.4597,0.524,0.6215,0.7709,0.5236,0.2973,0.0,0.0,0.0,0.0,0.0,0.0,0.0,0.0,0.0,0.0,0.0,0.0,0.0,0.0,0.0,0.0,0.0,0.0,-1.1383,-1.1642,-1.1646,-1.131,-1.1624,-1.1709,-1.1441,-1.1954,-1.2496,-1.3004,-1.3542,-1.4,-1.4406,-1.4752,-1.548,-1.648,-1.5974,-1.5949,-1.6195,-1.6111,-1.6166,-1.6323,-1.5745,-1.6041,-1.6782,-1.652,-1.6318,-1.6174,0.0,0.0,0.0,0.0,0.0,0.0,0.0,0.0,0.0,0.0,0.091,0.091,0.0921,0.091,0.0843,0.0718,0.0513,0.0335,0.0178,0.0,0.0,-0.1793,-0.2492,-0.3061,-0.3496,-0.3531,-0.3674,-0.3937,-0.3743,-0.4625,-0.6503,-0.7055,-0.8113,-0.9514,-0.8293,-0.7616,-0.7254,-0.5288,-0.4244,-0.392,-0.3937,-0.3577,-0.3061,-0.3362,-0.3386,-0.3277,-0.3353,-0.3319,-0.3256,-0.3423,-0.3132,0.0,0.0,0.0,-0.2996,-0.3019,-0.285,-0.2491,-0.1725,0.4709,1.0629,0.8197,0.7746,0.7566,0.6234,0.7313,0.8842,0.0,0.7654,0.0,0.0,0.0,0.0,0.0,0.0,0.0,0.0,0.0,0.0,0.0,0.0,0.0,0.0,0.0,0.0,0.0,0.0,0.0,-0.973,-0.9762,-1.0008,-1.0437,-1.0091,-1.0279,-1.117,-1.1173,-1.1678,-1.2591,-1.3069,-1.3514,-1.4,-1.4019,-1.4637,-1.5632,-1.5094,-1.5234,-1.5731,-1.5274,-1.5372,-1.5792,-1.5594,-1.5862,-1.6452,-1.6859,-1.6707,-1.635,0.0,0.0,0.0,0.0,0.0,0.0,0.0,0.0,0.0,0.0,0.0,0.0899,0.0899,0.0899,0.0877,0.0818,0.0559,0.0279,0.0,-0.0576,-0.1221,-0.1949,-0.2285,-0.2804,-0.3539,-0.3318,-0.3415,-0.3823,-0.3655,-0.4576,-0.6502,-0.7013,-0.7944,-0.9155,-0.7751,-0.7074,-0.6833,-0.5055,-0.4109,-0.3796,-0.3898,-0.1742,0.1261,-0.126,-0.0806,0.0853,-0.1664,-0.26,-0.2708,-0.3168,-0.3102,-0.2851,-0.3056,0.0,0.0,0.0,-0.2312,-0.2186,-0.0265,0.5736,1.1071,0.9607,0.9009,0.8808,0.8931,0.9417,0.9982,1.0332,0.0,0.0,0.0,0.0,0.0,0.0,0.0,0.0,0.0,0.0,0.0,0.0,0.0,0.0,0.0,0.0,0.0,0.0,0.0,-0.9013,-0.9013,-0.9013,-0.9004,-0.895,-0.8997,-0.9153,-0.9291,-1.0134,-1.1212,-1.2508,-1.272,-1.3035,-1.3514,-1.3514,-1.4033,-1.4934,-1.4705,-1.4621,-1.4681,-1.4761,-1.4993,-1.5203,-1.4823,-1.5114,-1.5767,-1.543,-1.5511,-1.5762,0.0,0.0,0.0,0.0,0.0,0.0,0.0,0.0,0.0,0.0,0.0,0.0888,0.0854,0.0,0.0,0.0,0.0637,0.0312,-0.0078,-0.0555,-0.1166,-0.1939,-0.2063,-0.2507,-0.333,-0.3057,-0.3126,-0.3577,-0.3585,-0.4575,-0.6466,-0.6902,-0.7745,-0.8796,-0.7621,-0.6791,-0.6192,-0.5118,-0.4315,-0.3628,-0.1852,0.1945,0.6057,0.1848,0.1413,0.2653,-0.04,-0.184,-0.238,-0.2879,-0.2971,-0.2904,-0.3074,-0.3064,0.0,0.0,0.0,-0.1427,0.0906,0.4993,0.8983,1.0598,0.9793,0.9136,1.1122,1.1398,1.1143,0.0,0.0,0.0,0.0,0.0,0.0,0.0,0.0,0.0,0.0,0.0,0.0,0.0,0.0,0.0,0.0,0.0,0.0,0.0,0.0,-0.8267,-0.8267,-0.8267,-0.8183,-0.799,-0.8322,-0.8397,-0.82,-0.9527,-1.0788,-1.1923,-1.2198,-1.2508,-1.2838,-1.2978,-1.3365,-1.4006,-1.4117,-1.4,-1.3741,-1.4137,-1.4567,-1.4838,-1.4237,-1.4598,-1.5337,-1.4444,-1.4563,-1.5102,0.0,0.0,0.0,0.0,0.0,0.0,0.0,0.0,0.0,0.0,0.0,0.0854,0.0729,0.0821,0.0899,0.0899,0.0762,0.0537,0.02,-0.0322,-0.0838,-0.1325,-0.1713,0.0,-0.2637,-0.2818,-0.3102,-0.3508,-0.3759,-0.4802,-0.6588,-0.663,-0.7366,-0.8672,-0.7769,-0.664,-0.5357,-0.5349,-0.4828,-0.3382,0.3628,0.8037,0.998,0.5986,0.2009,-0.1341,-0.0432,-0.1169,-0.2589,-0.2613,-0.2702,-0.2881,-0.334,-0.2825,-0.2295,0.0,0.0,0.0,-0.0929,0.0961,0.4517,1.0387,0.9823,0.8755,1.2124,1.307,1.293,0.0,0.0,0.0,0.0,0.0,0.0,0.0,0.0,0.0,0.0,0.0,0.0,0.0,0.0,0.0,0.0,0.0,0.0,0.0,0.0,-0.7105,-0.7105,-0.7105,-0.7447,-0.8231,-0.8077,-0.8307,-0.905,-0.9824,-1.0253,-1.033,-1.1345,-1.1847,-1.1884,-1.2318,-1.2579,-1.2638,-1.3082,-1.3267,-1.3232,-1.3257,-1.391,-1.4838,-1.4237,-1.463,-1.5496,-1.488,-1.471,-1.4755,0.0,0.0,0.0,0.0,0.0,0.0,0.0,0.0,0.0,0.0,0.0,0.0,0.0,0.0918,0.0932,0.1024,0.0712,0.0379,0.0089,-0.0266,-0.0584,-0.0836,-0.1362,-0.1886,-0.2396,-0.2653,-0.3024,-0.3563,-0.3781,-0.4517,-0.57,-0.5312,-0.5398,-0.5904,-0.64,-0.6264,-0.5563,-0.4641,-0.3801,-0.2316,0.6663,1.1195,1.2241,0.9308,0.8172,0.7955,0.6535,0.4665,0.2817,0.2563,-0.0079,-0.326,-0.3353,-0.3307,-0.2981,-0.1759,-0.073,-0.007,-0.0378,0.0236,0.1776,0.5161,0.9222,1.2899,1.4701,1.5094,1.4479,1.247,0.0,0.0,0.0,0.0,0.0,0.0,0.0,0.0,0.0,0.0,0.0,0.0,0.0,0.0,0.0,0.0,0.0,0.0,0.0,0.0,-0.6979,-0.6979,-0.7152,-0.7439,-0.7377,-0.7664,-0.8338,-0.861,-0.9044,-0.969,-1.0089,-1.0578,-1.1228,-1.1413,-1.1693,-1.2066,-1.2246,-1.265,-1.3248,-1.3998,-1.4285,-1.4301,-1.4051,-1.4159,-1.4365,-1.3789,-1.3789,-1.4061,0.0,0.0,0.0,0.0,0.0,0.0,0.0,0.0,0.0,0.0873,0.0,0.0,0.0,0.0,0.0918,0.0958,0.0657,0.0368,0.0111,-0.0133,-0.0311,-0.0397,-0.0975,-0.1584,-0.2186,-0.2309,-0.2677,-0.3335,-0.3583,-0.4061,-0.4742,-0.3893,-0.3559,-0.3704,-0.4594,-0.4816,-0.4507,-0.4154,-0.355,-0.1906,0.8835,1.2895,1.2333,1.0571,1.0529,1.1381,1.1123,0.9827,0.8213,0.8225,0.5475,0.152,-0.1632,-0.2611,-0.2251,-0.0507,0.0,0.0,0.0,0.0,0.0045,0.0236,0.4795,1.0129,1.3605,1.5413,1.5754,1.3588,0.0,0.0,0.0,0.0,0.0,0.0,0.0,0.0,0.0,0.0,0.0,0.0,0.0,0.0,0.0,0.0,0.0,0.0,0.0,0.0,-0.6979,-0.6979,-0.6937,-0.6725,-0.6815,-0.6993,-0.7328,-0.7704,-0.8226,-0.8876,-0.9076,-0.9503,-1.0147,-1.0492,-1.0891,-1.1271,-1.183,-1.2336,-1.2816,-1.3717,-1.3939,-1.3726,-1.3631,-1.3672,-1.3732,-1.3104,-1.3152,-1.342,0.0,0.0,0.0,0.0,0.0,0.0,0.0,0.0,0.1314,0.0781,0.0,0.0,0.0,0.0,0.0,0.0723,0.0631,0.0505,0.0312,0.011,0.0,0.0,-0.0559,-0.1206,-0.193,-0.1785,-0.2055,-0.279,-0.3102,-0.3447,-0.3817,-0.2511,-0.2064,-0.236,-0.2458,-0.2294,-0.2064,-0.3908,-0.4133,-0.2198,0.9914,1.3043,1.0373,0.9823,0.8694,0.8013,1.2699,1.3739,1.3052,1.3831,0.0,0.0,0.0,-0.0687,0.0,0.0,0.0,0.0,0.0,0.0,0.0,-0.3637,-0.3374,-0.0165,0.835,0.0,1.6718,1.515,0.0,0.0,0.0,0.0,0.0,0.0,0.0,0.0,0.0,0.0,0.0,0.0,0.0,0.0,0.0,0.0,0.0,0.0,0.0,-0.6979,-0.6979,-0.6979,-0.6725,-0.6179,-0.6419,-0.6476,-0.6184,-0.7321,-0.787,-0.7878,-0.8398,-0.8675,-0.8716,-0.9718,-1.0176,-1.0283,-1.1871,-1.2222,-1.1796,-1.2329,-1.2788,-1.3167,-1.3054,-1.3303,-1.3663,-1.3104,-1.2881,-1.2832,0.0,0.0,0.0,0.0,0.0,0.1865,0.1634,0.1539,0.1416,0.0,0.0,0.0,0.1324,0.1166,0.0989,0.0861,0.0558,0.0366,0.0304,0.0112,0.0,0.0,-0.0156,-0.0415,-0.0764,-0.1426,-0.204,-0.2585,-0.2099,-0.2084,-0.2515,-0.2145,-0.1686,-0.1132,-0.0399,-0.0252,-0.0633,-0.1778,-0.2195,-0.1657,0.3145,0.7497,1.1216,0.0,0.0,0.0,0.0,1.5855,1.5684,0.0,1.3538,0.9026,0.0,-0.0199,0.0,0.0,0.0,0.0,0.0,0.0,0.0,0.0,0.0,0.0,0.0,0.0,1.7757,0.0,0.0,0.0,0.0,0.0,0.0,0.0,0.0,0.0,0.0,0.0,0.0,0.0,0.0,0.0,0.0,0.0,0.0,0.0,-0.6337,-0.6979,-0.6979,-0.6647,-0.613,-0.5567,-0.6027,-0.6255,-0.6184,-0.6901,-0.7238,-0.7238,-0.7398,-0.7889,-0.8716,-0.899,-0.954,-1.0312,-1.0742,-1.1032,-1.1265,-1.2602,-1.2742,-1.2167,-1.284,-1.2619,-1.195,-1.2067,-1.1783,-1.1418,0.0,0.0,0.2266,0.2492,0.2427,0.2332,0.2332,0.2159,0.196,0.0,0.0,0.0,0.1615,0.1541,0.1366,0.1088,0.0746,0.0446,0.0191,0.0064,0.0,0.0,0.0,-0.0174,-0.0546,-0.0874,-0.131,-0.1838,-0.1113,-0.0898,-0.1161,-0.1161,-0.1002,-0.0632,0.0919,0.1148,0.0344,-0.0164,-0.0597,-0.0544,0.3943,0.0,0.0,1.3645,1.6984,0.0,0.0,0.0,1.551,1.8649,1.5392,0.0,0.0,0.1756,-0.1416,-0.0313,0.0,-0.0239,-0.1327,-0.1754,-0.1997,-0.2543,0.0,0.0,0.0446,0.8419,0.0,0.0,0.0,0.0,0.0,0.0,0.0,0.0,0.0,0.0,0.0,0.0,0.0,0.0,0.0,0.0,0.0,0.0,0.0,0.0,-0.6188,-0.6768,-0.6979,-0.6719,-0.6161,-0.5346,-0.5653,-0.583,-0.583,-0.6386,-0.6768,-0.6979,-0.6979,-0.7482,-0.8357,-0.8594,-0.9159,-0.9961,-0.9961,-1.0318,-1.0969,-1.1696,-1.1964,-1.1936,-1.2412,-1.2117,-1.1477,-1.1571,-1.1345,-1.1042,0.0,0.0,0.2428,0.294,0.2917,0.2937,0.3214,0.3041,0.2747,0.0,0.2088,0.191,0.1942,0.2008,0.188,0.1481,0.1115,0.0653,0.0083,0.0017,0.0,0.0,0.0,-0.0253,-0.0787,-0.0409,-0.0432,-0.0899,-0.0296,0.0,0.0,0.0,-0.0223,-0.053,0.1637,0.1963,0.0898,0.0823,0.105,0.2055,0.9274,1.0644,0.0,0.0,1.6469,1.5439,1.6793,1.5865,1.4988,2.1405,1.8663,0.0,0.0,0.0,-0.1997,-0.0787,-0.0328,-0.073,-0.3056,-0.4048,-0.4713,-0.5897,-0.3357,0.0,0.2558,0.7087,1.218,0.0,0.0,0.0,0.0,0.0,0.0,0.0,0.0,0.0,0.0,0.0,0.0,0.0,0.0,0.0,0.0,0.0,-0.5248,-0.5591,-0.6108,-0.6567,-0.6972,-0.6943,-0.6386,-0.5216,-0.5241,-0.5241,-0.5303,-0.5916,-0.652,-0.7105,-0.7105,-0.7461,-0.8172,-0.8659,-0.9139,-0.9661,-0.9661,-1.0162,-1.1013,-1.04,-1.0957,-1.2112,-1.2001,-1.1798,-1.1607,-1.1366,-1.1182,-1.1046,0.2731,0.2739,0.2846,0.3109,0.3142,0.3226,0.3558,0.347,0.3338,0.3256,0.3196,0.3073,0.2859,0.2543,0.2321,0.2339,0.1463,0.0731,0.0348,0.0118,0.0,0.0,0.0,-0.0058,-0.0172,-0.1008,-0.1263,-0.0901,-0.0294,0.0,0.0,0.0,-0.0048,-0.0057,0.1782,0.1963,0.0866,0.0384,0.4133,1.0508,1.1988,1.2381,1.2695,1.841,2.1432,2.2687,2.3199,2.287,2.2401,2.3638,2.2977,1.9366,0.0,0.0,0.6683,-0.0912,-0.2415,-0.1726,-0.2232,-0.3172,-0.4156,-0.4721,-0.448,0.0,-0.0052,0.9364,1.7738,0.0,0.0,0.0,0.0,0.0,0.0,0.0,0.0,0.0,0.0,0.0,0.0,0.0,0.0,0.0,0.0,0.0,-0.5764,-0.6284,-0.7131,-0.7437,-0.7022,-0.6637,-0.5858,-0.4609,-0.4718,-0.4952,-0.5308,-0.5916,-0.6732,-0.7704,-0.7704,-0.8409,-0.9696,-0.978,-1.0114,-1.0618,-1.0618,-1.1145,-1.1853,-1.0901,-1.0988,-1.1773,-1.2025,-1.1489,-1.0564,-1.1127,-1.0455,-0.9386,0.2969,0.3191,0.3482,0.3755,0.4021,0.4286,0.455,0.4452,0.4285,0.4113,0.3986,0.3839,0.3712,0.3193,0.2893,0.2984,0.2041,0.1281,0.0875,0.0315,0.0,0.0,0.0,0.0061,0.0195,-0.0525,-0.0899,-0.0903,-0.0296,0.0,0.0,0.0,0.0484,0.1342,0.1314,0.0986,0.043,0.013,0.3012,0.8066,1.1622,0.0,1.6632,2.157,2.4116,2.5072,2.5194,2.4985,2.4423,2.298,2.1464,0.0,1.3782,1.0608,0.8205,0.4624,0.0479,-0.2891,-0.2575,-0.3325,-0.4377,-0.5119,-0.4465,0.0,0.0,0.6101,1.021,1.2082,1.3568,0.0,0.0,0.0,0.0,0.0,0.0,0.0,0.0,0.0,0.0,0.0,0.0,0.0,0.0,0.0,-0.5853,-0.6723,-0.7985,-0.8333,-0.7444,-0.7461,-0.6718,-0.5023,-0.5399,-0.5641,-0.5641,-0.6333,-0.6988,-0.7724,-0.8187,-0.8866,-0.9726,-1.022,-1.0751,-1.1221,-1.0704,-1.1022,-1.1787,-1.0619,-1.067,-1.1429,-1.1495,-1.1292,-1.0961,-1.0854,-1.0256,-0.9566,0.3196,0.353,0.3931,0.4206,0.4744,0.518,0.5393,0.5369,0.521,0.4898,0.4798,0.4733,0.4697,0.4762,0.4915,0.5192,0.4927,0.3811,0.163,0.0665,0.0309,0.0628,0.0227,0.0101,0.0319,0.0113,-0.0236,-0.0725,-0.0239,0.0,0.0,0.0,0.0783,0.2266,0.406,0.3051,0.0108,0.1752,0.3582,0.5812,0.0,1.4553,1.7749,2.2594,2.4458,2.4542,2.5163,2.5166,2.4381,2.123,1.8471,1.6903,2.009,1.5264,0.8461,0.8551,0.4201,-0.1015,-0.2714,-0.3823,-0.4694,-0.547,-0.4407,-0.1953,0.0,0.0,0.0,0.0,0.0,0.0,0.0,0.0,0.0,0.0,0.0,0.0,0.0,0.0,0.0,0.0,0.0,0.0,0.0,0.0,-0.629,-0.7535,-0.8834,-0.9164,-0.8253,-0.855,-0.7858,-0.5946,-0.6287,-0.6409,-0.6218,-0.6758,-0.7239,-0.7647,-0.837,-0.9022,-0.9623,-1.0338,-1.1029,-1.1533,-1.0663,-1.0821,-1.1594,-1.03,-1.0468,-1.1548,-1.1133,-1.1166,-1.136,-1.0706,-1.027,-0.9944,0.3436,0.3508,0.3663,0.3765,0.4373,0.4918,0.5116,0.5522,0.5719,0.5441,0.6007,0.6341,0.6095,0.8551,1.0642,1.1728,1.3511,1.1055,0.2731,0.1318,0.1439,0.2862,0.1047,0.0014,0.0044,0.0014,-0.0034,-0.0103,-0.0034,0.0,0.0,0.0,0.011,0.0954,1.5807,1.4083,0.0495,0.805,1.2852,0.0,1.1869,1.0506,0.0,1.8274,2.1002,2.1425,2.4282,2.5219,2.4322,0.0,1.7605,1.6375,0.0,1.2108,1.274,0.2487,0.4985,0.891,-0.1087,-0.4138,-0.4443,-0.4214,-0.5355,-0.5304,0.0,0.0,-0.7265,-0.071,0.0,0.0,0.0,0.0,0.0,0.0,0.0,0.0,0.0,0.0,0.0,0.0,0.0,0.0,0.0,0.0,0.0,-0.9489,-0.9973,-1.0025,-0.9677,-0.9093,-0.8301,-0.7199,-0.6437,-0.6336,-0.6948,-0.6765,-0.718,-0.8224,-0.8059,-0.8942,-1.0623,-1.0315,-1.0714,-1.1577,-1.1052,-1.1306,-1.1995,-1.0505,-1.1022,-1.2635,-1.195,-1.1015,-1.011,-1.0918,-1.0227,-0.9004,0.3736,0.3981,0.4253,0.4282,0.4793,0.5305,0.558,0.6006,0.6306,0.6317,0.6505,0.679,0.7173,0.7737,0.9501,1.3061,1.3416,1.2091,0.0,0.0,0.1919,0.2135,0.263,0.2302,0.1015,0.0337,0.0174,0.0522,0.0173,0.0,0.0,0.0,0.0,0.075,1.7727,1.8953,0.8118,0.6156,0.9487,0.0,0.0,0.0,0.0,2.1126,2.3334,2.3556,2.4805,2.5103,2.4602,0.0,1.8412,0.0,0.0,0.0,0.0,0.9013,0.9029,0.7733,0.0363,0.0257,0.1363,-0.2246,-0.382,0.0,-0.5741,0.0,-0.3496,0.0,0.0,0.0,0.0,0.0,0.0,0.0,0.0,0.0,0.0,0.0,0.0,0.0,0.0,0.0,0.0,0.0,0.0,0.0,0.0,-1.0207,-0.9589,-0.9282,-0.8667,-0.757,-0.7534,-0.7448,-0.7227,-0.7516,-0.7715,-0.7825,-0.8276,-0.8824,-0.9487,-1.0206,-1.0726,-1.1148,-1.1281,-1.15,-1.1718,-1.0362,-1.0504,-1.149,-1.0841,-1.0854,-1.1177,-1.1228,-1.0721,-0.9962,0.4032,0.4302,0.4551,0.4538,0.4979,0.55,0.6024,0.6312,0.6587,0.6943,0.6949,0.7257,0.8131,0.8788,1.097,1.5482,1.635,1.619,0.0,0.0,0.5302,0.4828,0.4552,0.3857,0.2629,0.0896,0.0214,0.0651,0.0214,0.0,0.0,0.0,0.0,0.0535,1.2947,1.8038,1.6838,0.9917,1.0637,1.6291,1.4857,1.6169,1.9375,2.2793,2.4667,2.5459,2.5219,2.5005,2.4631,2.3233,1.8669,0.0,1.9525,0.0,0.959,1.3214,1.181,0.7728,0.165,0.0,0.0,0.0,0.0,0.0,0.0,0.0,0.0,0.0,0.0,0.0,0.0,0.0,0.0,0.0,0.0,0.0,0.0,0.0,0.0,0.0,0.0,0.0,0.0,0.0,0.0,0.0,0.0,0.0,-0.9518,-0.9398,-0.8958,-0.8164,-0.8445,-0.8276,-0.7601,-0.8035,-0.7989,-0.7513,-0.8094,-0.8446,-0.8532,-0.9691,-1.0346,-1.0629,-1.1205,-1.1384,-1.1261,-1.0326,-1.015,-1.0466,-1.0081,-1.0604,-1.15,-1.1128,-1.0837,-1.0478,0.4267,0.4252,0.4192,0.4134,0.4571,0.5257,0.6237,0.6227,0.637,0.7095,0.7512,0.8091,0.8965,1.4069,1.8508,2.1217,0.0,2.6845,2.0123,0.0,1.3307,1.3676,0.6802,0.3575,0.4858,0.1678,0.001,0.0031,0.001,0.0,0.0,0.0,0.0,0.0033,0.0842,1.0106,2.5118,2.4814,2.2487,1.9323,2.3245,2.2798,1.9842,0.0,2.273,2.5454,2.5056,0.0,0.0,1.9298,1.7586,0.0,0.0,0.0,0.0,0.0,0.0,0.0,0.0,0.0,0.0,2.068,0.0,0.0,0.0,0.0,-0.4485,0.0,0.0,0.0,0.0,0.0,0.0,0.0,0.0,0.0,0.0,0.0,0.0,0.0,0.0,0.0,0.0,0.0,0.0,0.0,0.0,0.0,-0.9927,-0.9467,-0.9281,-0.9442,-0.8776,-0.8414,-0.8377,-0.809,-0.7782,-0.7506,-0.7181,-0.7581,-0.8517,-0.8699,-0.9271,-1.0158,-1.0669,-1.079,-1.0651,-1.0579,-1.0435,-1.022,-1.0495,-1.0256,-0.9839,-1.0392,-1.0305,-0.9806,0.4409,0.4409,0.4381,0.4359,0.4517,0.5007,0.6097,0.6587,0.7956,0.0,1.1163,0.0,0.0,1.7974,2.0744,0.0,0.0,2.6108,2.0775,1.825,0.0,1.284,0.6668,0.3441,0.0,0.2021,0.0759,0.0,0.0,0.0,0.0,0.0,0.0,0.0012,0.0282,0.7372,1.9098,0.0,0.0,0.0,0.0,2.0989,2.0203,0.0,0.0,2.2012,2.4282,2.5053,0.0,2.3008,2.0525,1.8438,1.9924,1.7278,1.4324,1.8038,1.7806,0.0,0.0,0.0,1.6405,1.2183,0.0,0.0,0.0,0.0,0.0,0.0,0.0,0.0,0.0,0.0,0.0,0.0,0.0,0.0,0.0,0.0,0.0,0.0,0.0,0.0,0.0,0.0,0.0,0.0,0.0,0.0,0.0,-0.8725,-0.8741,-0.9278,-0.8574,-0.8151,-0.8083,-0.7477,-0.7188,-0.7168,-0.7068,-0.7303,-0.7856,-0.8055,-0.8464,-0.8968,-0.976,-1.0072,-0.9984,-0.9864,-0.9939,-1.0204,-1.0065,-0.9877,-0.9823,-1.0893,-1.0669,-0.9836,0.4543,0.4517,0.4537,0.4537,0.4675,0.5104,0.6058,0.0,0.0,0.0,1.3105,0.0,1.9117,0.0,2.2843,0.0,2.8214,2.6657,2.0917,2.0791,0.0,1.5197,1.0595,0.0,0.0,0.0,0.1527,0.0,0.0,0.0,0.0,0.0,0.0,0.0018,0.0407,0.6244,1.5724,1.4764,1.9431,0.0,0.0,1.8109,0.0,0.0,1.8607,2.0085,0.0,2.5118,2.5023,2.5003,2.3065,2.1183,2.4037,2.1045,1.7558,2.299,2.2268,2.0524,2.4279,2.4322,0.0,1.3334,1.166,0.0,0.2218,0.0,0.1722,0.0,0.0,0.0,0.0,0.0,0.0,0.0,0.0,0.0,0.0,0.0,0.0,0.0,0.0,0.0,0.0,0.0,0.0,0.0,0.0,0.0,0.0,0.0,-0.8505,-0.9166,-0.838,-0.7999,-0.809,-0.723,-0.6945,-0.7174,-0.7074,-0.7174,-0.75,-0.7766,-0.805,-0.8371,-0.9185,-0.9489,-0.936,-0.9387,-0.9494,-0.9719,-0.9605,-0.9502,-0.9529,-1.0939,-1.1048,-1.0528,0.464,0.4591,0.4654,0.4649,0.5025,0.0,0.0,0.0,0.9002,0.0,1.3631,1.5489,1.903,2.2593,2.5301,2.6674,3.0094,2.891,2.119,2.3414,0.0,0.0,1.8042,1.9058,2.4529,0.0,0.0,0.0,0.005,0.0,0.0,0.0,0.0014,0.0068,0.0647,0.618,1.503,1.4556,1.9428,2.6757,1.868,1.4916,1.4151,1.4352,0.0,1.9706,2.375,2.5161,2.5101,2.5019,2.4917,2.4804,2.4804,2.4654,2.4495,2.4495,2.4623,2.4856,2.5171,2.2659,2.0689,2.3771,0.0,0.0,0.0,0.0,0.691,0.0,0.0,0.0,0.0,0.0,0.0,0.0,0.0,0.0,0.0,0.0,0.0,0.0,0.0,0.0,0.0,0.0,0.0,0.0,0.0,0.0,0.0,0.0,0.0,-0.9074,-0.8099,-0.7816,-0.8327,-0.7267,-0.6989,-0.7506,-0.7161,-0.7174,-0.75,-0.7723,-0.7965,-0.8312,-0.8909,-0.8967,-0.8631,-0.9096,-0.9083,-0.8771,-0.9163,-0.9148,-0.907,-1.0524,-1.1337,-1.172,0.464,0.5073,0.5545,0.55,0.5473,0.583,0.0,0.0,0.0,0.0,1.8287,2.0894,2.6274,2.8496,2.997,3.0964,3.2447,0.0,0.0,0.0,0.0,2.4169,1.9457,1.9079,2.3774,1.5588,0.8365,0.2448,0.0,0.0,0.0,0.0,0.0239,0.0677,0.0828,0.3356,0.7654,0.9923,1.4412,1.9811,1.7957,1.6115,0.0,0.0,1.9137,1.9461,2.3632,2.5071,2.5019,2.5003,2.4917,2.4804,2.4804,2.4654,2.4461,2.4321,2.4428,2.4594,2.4679,2.4114,2.3046,2.125,2.0914,1.9674,0.0,0.0,0.0,0.0,0.0,0.0,0.0,0.0,0.0,0.0,0.0,0.0,0.0,0.0,0.0,0.0,0.0,0.0,0.0,0.0,0.0,0.0,0.0,0.0,0.0,0.0,0.0,-0.7734,-0.667,-0.6579,-0.755,-0.6575,-0.656,-0.7506,-0.7161,-0.7174,-0.75,-0.6903,-0.7015,-0.7692,-0.741,-0.7288,-0.7331,-0.7666,-0.7902,-0.8019,-0.843,-0.9153,-0.9908,-1.0009,-1.0791,-1.1695,0.5056,0.6021,0.6885,0.6822,0.0,0.0,1.0697,0.9936,0.0,1.8412,1.9819,0.0,2.5949,2.9715,3.2118,3.2577,3.4009,0.0,2.7954,0.0,0.0,2.4856,2.3405,2.4091,2.7071,2.1265,0.0,0.7984,0.0,0.0946,0.0,0.0,0.0386,0.1076,0.1076,0.2012,0.4148,1.2278,1.6196,1.7133,1.9488,0.0,0.0,2.0698,2.1894,2.254,2.4713,2.5203,2.4854,2.4967,2.479,2.4578,2.4746,2.4591,2.4358,2.4228,2.4339,2.4495,2.4495,2.4575,2.4189,2.2144,2.3033,2.3285,1.8988,1.6835,1.5498,0.0,0.0,0.0,0.0,0.0,0.0,0.0,0.0,0.0,0.0,0.0,0.0,0.0,0.0,0.0,0.0,0.0,0.0,0.0,0.0,0.0,0.0,0.0,0.0,-0.6801,-0.5743,-0.5728,-0.6979,-0.5981,-0.6067,-0.7176,-0.683,-0.6829,-0.7096,-0.6274,-0.6197,-0.6684,-0.6282,-0.6236,-0.646,-0.6657,-0.6921,-0.7295,-0.811,-0.9105,-1.0038,-1.0084,-1.0805,-1.1772,0.5756,0.7141,0.8266,0.8101,0.0,0.0,0.0,1.3387,0.0,1.9661,0.0,2.1578,2.3458,2.9101,3.2852,3.3073,0.0,3.3836,2.8292,3.1073,3.0528,2.5099,2.8198,3.0527,3.1506,2.6332,2.0779,0.0,0.0,0.2322,0.0429,0.0139,0.0408,0.1144,0.1398,0.2225,0.0,1.68,2.0015,1.7098,2.1907,2.3242,2.2425,2.2986,2.4715,2.6765,2.6331,2.5502,2.4667,2.486,2.4613,2.4303,2.4654,2.4528,2.4228,2.4209,2.4303,2.4461,2.4461,2.4461,2.4461,2.4461,2.4339,2.3381,2.0226,1.9468,1.8931,1.7117,1.6994,0.0,0.0,0.0,0.0,0.0,0.0,0.0,0.0,0.0,0.0,0.0,0.0,0.0,0.0,0.0,0.0,0.0,0.0,0.0,0.0,0.0,0.0,-0.5995,-0.5112,0.0,-0.6342,0.0,-0.5576,-0.663,-0.6286,-0.6234,-0.647,-0.5733,-0.5548,-0.5774,-0.5548,-0.5629,-0.5927,-0.5898,-0.6071,-0.6534,-0.7892,-0.882,-0.9454,-1.0024,-1.0717,-1.1322,0.6585,0.7856,0.8726,0.8063,1.2056,1.6908,2.1546,2.1664,2.2401,2.5724,2.668,2.8016,3.0527,3.2452,3.4156,3.5532,3.5639,0.0,0.0,0.0,0.0,3.008,3.0203,3.0412,3.0609,2.6014,2.2443,0.0,0.0,0.3104,0.2688,0.0858,0.008,0.0296,0.1907,0.5348,1.0144,1.306,0.0,1.7524,2.2585,2.3649,2.2655,2.6524,2.7757,2.7402,2.7104,2.6035,2.4737,2.462,2.4526,2.4461,2.4528,2.4512,2.4409,2.4247,2.4228,2.4247,2.4247,2.4247,2.4247,2.4247,2.4228,2.4043,2.34,2.3044,2.2754,2.2365,2.2121,2.2023,2.2083,0.0,0.0,0.0,0.0,0.0,0.0,0.0,0.0,0.0,0.0,0.0,0.0,0.0,0.0,0.0,0.0,0.0,0.0,0.0,0.0,0.0,0.0,0.0,0.0,0.0,0.0,-0.5722,-0.5665,-0.5743,-0.5904,-0.5291,-0.5397,-0.609,-0.5366,-0.5235,-0.5405,-0.524,-0.5242,-0.5514,-0.6855,-0.7433,-0.7654,-0.8238,-0.8538,-0.879,0.7499,0.876,1.0232,1.1506,1.6229,0.0,0.0,2.8567,0.0,2.9009,2.8408,2.8427,2.9331,3.2038,3.4181,3.5114,3.5776,3.5885,3.5275,3.4319,3.3306,3.2182,3.2276,3.2372,3.2372,2.9786,2.5819,2.0532,0.0,0.7066,0.2436,0.077,0.0,0.0267,0.6569,1.031,0.0,0.0,0.0,2.0957,2.5837,2.7284,2.6744,2.9016,2.9255,2.8338,2.7991,2.697,2.5695,2.5078,2.4647,2.4392,2.4266,2.4155,2.4117,2.4284,2.4284,2.4228,2.4339,2.4266,2.419,2.419,2.419,2.4151,2.3976,2.3816,2.3649,2.3477,2.3165,2.2923,2.2908,1.4828,0.0,0.0,0.0,0.0,0.0,0.0,0.0,0.0,0.0,0.0,0.0,0.0,0.0,0.0,0.0,0.0,0.0,0.0,0.0,0.0,0.0,0.0,0.0,0.0,0.0,-0.5291,-0.52,-0.525,-0.5296,-0.4758,-0.4712,-0.4977,-0.3948,-0.3499,-0.3556,-0.4306,-0.5031,-0.572,-0.6365,-0.6986,-0.7606,-0.7881,-0.8027,-0.8091,0.9509,1.0628,1.2507,1.5983,2.0771,0.0,2.8317,3.2902,3.4917,3.1829,3.0259,2.9289,2.8874,3.2187,3.457,3.4958,3.5973,3.6227,3.534,3.499,3.4339,3.3218,3.366,3.391,3.391,3.3256,2.9313,0.0,0.0,0.0,0.0,0.0418,0.2307,0.0,0.0,0.0,0.0,0.0,2.4216,2.5371,2.9078,3.0521,3.0472,3.0414,2.9927,2.9238,2.8744,2.7811,2.6675,2.5601,2.4819,2.4258,2.4064,2.3896,2.3862,2.4355,2.4428,2.4339,2.4461,2.4393,2.4247,2.4209,2.4151,2.4016,2.3774,2.3588,2.3414,2.3141,2.288,2.2772,2.2989,1.7915,0.0,0.0,0.0,0.0,0.0,0.0,0.0,0.0,0.0,0.0,0.0,0.0,0.0,0.0,0.0,0.0,0.0,0.0,0.0,0.0,0.0,-0.3687,-0.4035,0.0,-0.3643,0.0,-0.4746,-0.4789,-0.4778,-0.4411,-0.4197,-0.3987,-0.3086,-0.2357,-0.2023,-0.3615,-0.488,-0.5866,-0.5866,-0.6542,-0.7442,-0.7442,-0.7442,-0.7442,1.3876,1.4509,0.0,0.0,0.0,0.0,2.8366,3.2407,3.5275,3.5679,3.5587,3.5752,3.6395,3.6453,3.6731,3.7482,3.6807,3.6292,3.6194,3.4979,3.4224,3.4083,3.3391,3.3026,3.3026,3.2949,3.1744,0.0,0.0,0.0,0.0,0.0051,0.0,0.0,0.0,0.0,0.0,2.5057,2.5994,2.9809,3.0232,3.0414,3.0371,3.0144,2.9985,2.9821,2.9035,2.8143,2.7128,2.5803,2.4912,2.4247,2.406,2.3983,2.4044,2.4389,2.4607,2.4716,2.4526,2.4495,2.4445,2.4247,2.3976,2.3735,2.3714,2.3212,2.2797,2.2746,2.2721,2.2848,2.3346,2.095,1.83,0.0,0.0,0.0,0.0,0.0,0.0,0.0,0.0,0.0,0.0,0.0,0.0,0.0,0.0,0.0,0.0,0.0,0.0,0.0472,0.0,-0.2188,-0.2604,-0.3772,0.0,-0.3751,-0.4114,-0.4364,-0.4546,-0.4519,-0.4473,-0.4415,-0.4314,-0.3463,-0.2287,-0.3859,-0.4632,-0.4824,-0.4824,-0.516,-0.5624,-0.5624,-0.5624,-0.5624,0.0,0.0,0.0,0.0,0.0,0.0,0.0,3.3633,3.5302,3.6193,3.6303,3.6413,3.6725,3.6611,3.6523,3.6691,3.6298,3.5989,3.5841,3.5278,3.4988,3.4988,3.5103,3.518,3.518,3.4718,3.287,0.0,0.0,0.0,0.0,0.0,0.0,0.0,0.0,2.6706,3.0275,2.8491,2.8763,3.0398,3.0398,3.0311,3.015,3.0028,2.9769,2.9345,2.859,2.7808,2.6909,2.5578,2.4597,2.393,2.3938,2.3871,2.3897,2.4599,2.4788,2.4782,2.4693,2.4591,2.4391,2.3999,2.3795,2.3588,2.3189,2.2703,2.2361,2.2446,2.2755,2.3069,2.3277,2.2789,2.1929,0.0,0.0,0.0,0.0,0.0,0.0,0.0,0.0,0.0,0.0,0.0,0.0,0.0,0.0,0.0,0.0,0.0,0.0,0.085,0.0,-0.1673,-0.2581,-0.2062,-0.2593,-0.4115,-0.4291,-0.3926,-0.3125,-0.4101,-0.3485,-0.1794,-0.1794,-0.1944,-0.23,-0.3851,-0.4635,-0.4826,-0.4826,-0.5047,-0.5428,-0.5428,-0.5428,-0.5428,2.0784,0.0,2.5193,0.0,2.8961,2.9746,3.3266,3.4486,3.521,3.5844,3.634,3.6743,3.6982,3.6646,3.6356,3.6249,3.5886,3.5626,3.5518,3.5493,3.5493,3.5493,3.6045,0.0,3.6353,3.5797,3.3925,3.0635,2.5978,0.0,0.0,0.0,0.0,0.0,2.7404,3.0564,3.039,3.0442,3.0554,3.065,3.0382,3.0275,3.0216,2.9799,2.9383,2.8867,2.7913,2.7145,2.6401,2.5403,2.4563,2.4,2.4285,2.446,2.4737,2.5525,2.575,2.5646,2.5267,2.5161,2.4967,2.4218,2.388,2.3632,2.3163,2.2576,2.222,2.2381,2.2832,2.3212,2.3346,2.3816,2.3668,2.202,0.0,0.0,0.0,0.0,0.0,0.0,1.5465,1.3385,0.0,0.0,0.0,0.0,0.0,0.0,0.0,0.0,0.0,0.0,0.0,0.0,0.0,-0.0678,-0.1509,-0.4501,-0.4501,-0.3931,-0.2907,-0.3086,-0.202,0.0,0.0,-0.0615,-0.1729,-0.3699,-0.464,-0.48,-0.4844,-0.5074,-0.5298,-0.5345,-0.5428,-0.5428,2.6848,2.8891,3.0701,3.3283,3.2138,3.1529,3.3496,3.4486,3.499,3.5009,3.6468,3.7771,3.8579,3.7498,3.6789,3.7058,3.5856,3.5226,3.5493,3.5493,3.5493,0.0,0.0,3.5512,3.5512,3.5574,3.5146,3.4236,0.0,0.0,2.1925,2.792,3.0618,3.0413,3.0556,3.052,3.0398,3.041,3.0739,3.1203,3.0342,3.0371,3.0734,2.9333,2.8796,2.8596,2.7078,2.62,2.576,2.5341,2.492,2.4695,2.5295,2.6118,2.6942,2.7431,2.7736,2.767,2.6341,2.6326,2.6375,2.5099,2.4343,2.3908,2.388,2.3055,2.236,2.2634,2.2972,2.33,2.3631,2.3976,2.292,1.9016,0.0,0.0,0.0,0.0,0.0,0.0,1.3684,1.0251,1.5027,0.0,0.0,0.0,0.0,0.0,0.0,0.0,0.0,0.4903,0.1123,0.0,-0.0447,-0.0156,-0.151,-0.4514,-0.4514,-0.4514,-0.4399,-0.1401,-0.0056,0.0,0.0,-0.0,-0.0279,-0.3249,-0.4522,-0.4542,-0.4803,-0.5006,-0.5152,-0.5304,-0.5428,-0.5428,3.1623,3.2254,3.2849,3.366,3.3286,3.3259,3.444,3.4825,3.5422,3.6541,3.6688,3.7051,3.8035,3.7764,3.7187,0.0,3.6065,3.5799,0.0,3.5493,3.5493,3.5493,3.5534,3.5574,3.5574,3.5639,3.5872,3.6279,0.0,0.0,0.0,2.6401,2.8463,3.0594,3.0594,3.0535,3.0398,3.0398,3.0508,3.0657,3.019,3.0029,3.0019,2.9431,2.8777,2.8058,2.7222,2.6472,2.5895,2.5701,2.593,2.6547,2.787,2.7647,2.7032,2.7637,2.7764,2.7599,2.6967,2.6815,2.6653,2.5891,2.5141,2.4515,2.4292,2.3551,2.2865,2.2677,2.313,2.3566,2.3671,2.3795,2.3371,2.187,2.2329,0.0,0.0,0.0,0.0,0.0,1.2466,1.0821,0.0,1.4496,0.0,0.0,0.0,0.0,0.0,0.0,0.0,0.0,0.3351,0.0,0.0512,0.015,-0.048,-0.141,-0.141,-0.1428,-0.1407,-0.0433,0.0,0.0,0.0,0.0,-0.0054,-0.1024,-0.2661,-0.447,-0.445,-0.4676,-0.5108,-0.5071,-0.5121,-0.5203,3.3807,3.3807,3.3807,3.3807,3.3807,3.3972,3.4486,3.4807,3.5413,3.6611,3.6556,3.6636,3.7094,3.7239,0.0,3.6118,3.5931,3.5761,3.5532,3.5493,3.5493,3.5493,3.5574,3.5579,3.5562,0.0,0.0,3.6635,3.256,3.0045,2.9003,2.8378,2.9173,3.1115,3.0784,3.0575,3.0482,3.0482,3.0595,3.072,3.0161,2.9962,2.9964,2.9283,2.8554,2.7823,2.7116,2.6589,2.6179,2.6095,2.6681,2.7688,2.8989,2.8783,2.8207,2.8957,2.889,2.842,2.773,2.7456,2.7211,2.6513,2.5836,2.5219,2.4566,2.401,2.3543,2.3093,2.3379,2.3692,2.3692,2.3692,2.3544,2.3093,2.2703,2.1959,2.0462,0.0,0.0,0.0,0.0,0.0,0.0,1.533,0.0,0.0,0.0,0.0,0.0,0.0,0.0,0.5852,0.5289,0.0,0.2248,0.1676,0.1099,0.0668,0.0771,0.0832,0.0851,0.0808,0.0822,0.0838,0.0838,0.0497,0.0,0.0,-0.1112,-0.2872,-0.3284,-0.4003,-0.4765,-0.485,-0.4917,-0.5043,3.3807,3.3807,0.0,0.0,3.3807,0.0,3.3862,3.4523,3.5155,3.5529,3.6211,3.6465,3.5975,3.6103,3.6231,3.6249,0.0,0.0,0.0,3.5493,3.5493,3.5493,3.5574,0.0,3.5501,3.5755,3.5836,3.5717,3.5142,3.4824,3.4668,3.3047,3.2184,3.1965,3.1086,3.0669,3.0606,3.0606,3.0892,3.1258,3.0218,3.0103,3.0376,2.8968,2.8237,2.7805,2.6946,2.6621,2.6604,2.6653,2.7286,2.8197,2.8992,2.96,3.0151,3.0967,3.0699,2.9883,2.8538,2.8191,2.8,2.7086,2.6588,2.6009,2.4825,2.4508,2.4349,2.3905,2.3771,2.3714,2.3692,2.3692,2.3437,2.2822,2.2231,2.0936,1.8328,0.0,0.0,0.0,0.0,0.0,0.0,1.7796,1.741,0.0,0.0,0.0,0.0,0.0,0.6197,0.8632,0.702,0.5617,0.4631,0.3962,0.3061,0.1959,0.2225,0.2334,0.2342,0.2358,0.2397,0.2408,0.2347,0.1562,0.0278,0.0107,0.0,-0.0159,-0.1531,-0.283,-0.3987,-0.4552,-0.4773,-0.481,0.0,0.0,3.3807,3.3807,3.3807,3.4009,3.4633,3.5088,3.5627,3.6335,3.6237,3.6125,3.6198,3.57,3.546,3.5656,3.5532,3.5432,3.5493,3.5493,3.5493,3.5493,3.5574,3.559,3.5577,3.5687,3.5772,3.5845,3.6401,3.5996,3.4687,3.3613,3.2711,3.1965,3.1086,3.0669,3.0606,3.0606,3.0637,3.0656,3.0043,2.9861,2.9852,2.913,2.8633,2.8246,2.8031,2.786,2.7843,2.817,2.8511,2.9068,3.037,3.0415,3.0037,3.0261,3.0091,2.9704,2.9213,2.8723,2.8355,2.8439,2.7931,2.7198,2.6285,2.5597,2.5126,2.5006,2.4514,2.3996,2.3753,2.35,2.3189,2.2772,2.0854,1.8988,1.7716,1.6047,0.0,0.0,1.3067,1.359,1.5286,1.5708,1.6307,0.0,0.0,0.0,0.0,1.0857,0.8641,0.8691,0.8252,0.7366,0.5954,0.4863,0.4023,0.3484,0.3535,0.3691,0.3946,0.3978,0.4051,0.425,0.4029,0.3755,0.3239,0.0967,0.0,-0.0051,-0.036,-0.0734,-0.1239,-0.3386,-0.4245,-0.4418,3.3862,3.3807,3.3807,3.3807,3.3807,3.3989,3.4552,3.4785,3.5152,3.587,3.5718,3.5628,3.5911,3.5541,3.5354,3.5493,3.5493,3.5493,3.5493,3.5493,3.5493,3.5493,3.5574,3.5599,3.555,3.5646,3.5766,3.5903,3.6441,3.6211,3.5273,3.4394,3.3515,3.2609,3.177,3.1136,3.0726,3.0665,3.0611,3.049,2.9998,2.976,2.9643,2.9185,2.8749,2.842,2.856,2.8537,2.8536,2.8913,2.9232,2.9672,3.0534,3.0502,3.015,3.0047,2.9596,2.9113,2.8876,2.8062,2.7452,2.8046,2.8205,2.8062,2.7328,2.6587,2.5966,2.5496,2.4759,2.4054,2.3566,2.3305,2.3063,2.259,2.0,1.7972,1.77,1.5276,0.0,1.4345,1.4185,1.48,1.6678,1.6913,1.7291,1.8129,0.0,0.0,1.5695,1.3108,1.1004,0.9695,0.937,0.8515,0.6985,0.5935,0.5081,0.4477,0.4477,0.447,0.4365,0.4365,0.4497,0.4716,0.4573,0.4484,0.4363,0.2743,0.1257,0.0,0.0,0.0,-0.016,-0.1654,-0.2625,-0.3408,3.4119,3.388,3.3815,3.3868,3.3831,3.3899,3.4242,3.4297,3.4494,3.5034,3.5157,3.5258,3.5479,3.5493,3.5493,3.5493,3.5493,3.5493,3.5493,3.5493,3.5493,3.5493,3.555,3.555,3.5507,3.563,3.5761,3.5873,3.5951,3.5996,3.5976,3.5117,3.4316,3.3555,3.2617,3.1777,3.1053,3.0804,3.0661,3.0549,3.0059,2.981,2.9661,2.9228,2.8894,2.8685,2.8842,2.8997,2.9148,2.9359,2.9715,3.0084,3.0206,3.0317,3.0355,3.0136,2.9334,2.8482,2.8221,2.7159,2.6307,2.7013,2.7947,2.8566,2.8081,2.7429,2.6674,2.5923,2.4976,2.4119,2.357,2.3383,2.2923,2.1742,1.8917,1.6909,1.706,0.0,1.3518,1.6283,1.6564,1.7327,1.936,1.9169,1.8893,1.8893,1.7504,0.0,0.0,1.4971,1.3158,1.1157,1.0466,0.9384,0.7877,0.7026,0.6156,0.5327,0.5196,0.4871,0.4351,0.4246,0.4328,0.4519,0.4519,0.4536,0.4556,0.4513,0.2992,0.0641,0.016,0.0,0.0,0.0,-0.0779,-0.2043,3.4825,3.4284,3.3876,3.4099,3.3956,3.3976,3.4553,3.4718,3.4884,3.5069,3.5304,3.5446,3.5493,3.5493,3.5493,3.5493,3.5493,3.5493,3.5493,3.5493,3.5493,3.5493,3.5515,3.5515,3.5507,3.563,3.571,3.5723,3.5906,3.5996,3.5976,3.5117,3.4629,3.4434,3.2891,3.2067,3.1777,3.1011,3.0638,3.0496,3.0243,2.9966,2.9678,2.9415,2.9584,2.9874,2.945,2.9866,3.0527,3.018,3.0177,3.0359,3.0434,3.0432,3.0398,3.0355,2.9602,2.8679,2.8431,2.7568,2.6831,2.7133,2.771,2.8305,2.8713,2.7816,2.699,2.7356,2.5976,2.4681,2.4658,2.4166,2.2565,1.8773,1.596,1.3952,1.3065,0.0,1.3353,1.5896,1.7539,1.8611,1.8991,1.8968,1.8893,1.8893,1.8249,1.7626,1.7096,1.5978,1.4459,1.257,1.1855,1.0535,0.858,0.7829,0.7105,0.6376,0.5623,0.5199,0.5124,0.4505,0.4328,0.4519,0.4519,0.4535,0.4646,0.456,0.422,0.3547,0.0996,0.0,0.0,0.0,-0.0165,-0.0376,3.5375,3.4489,3.3845,3.396,3.4139,3.4379,3.4661,3.4808,3.5005,3.5273,3.5417,3.5493,3.5493,3.5493,3.5493,3.5493,3.5493,3.5493,3.5493,3.5493,3.5493,3.5493,3.5493,3.5493,3.5493,3.563,3.5703,3.5703,3.5903,3.5996,3.5996,3.5586,3.5156,3.4648,3.3355,3.2506,3.1942,3.0984,3.0554,3.0481,3.0201,2.9931,2.9735,2.9959,3.0203,3.0476,3.0804,3.0997,3.1102,3.1068,3.0766,3.0414,3.0482,3.0452,3.0398,3.0398,2.964,2.866,2.7982,2.778,2.766,2.7163,2.8013,2.8877,2.8467,2.7948,2.7585,2.7761,2.6724,2.5538,2.4753,2.4392,2.2669,1.8149,1.643,0.0,0.0,1.4303,1.5304,1.7726,1.8797,1.9332,1.9332,1.9332,1.9332,1.9332,1.8574,1.7973,1.7706,1.6378,1.5028,1.3878,1.2141,1.0653,0.9325,0.8974,0.829,0.7176,0.6549,0.5942,0.5411,0.4809,0.4561,0.4519,0.4519,0.456,0.4562,0.4553,0.4473,0.4366,0.2959,0.1896,0.1115,0.028,0.0,0.0,3.6022,3.5194,3.4604,3.4597,3.4544,3.4585,3.4842,3.563,3.602,3.5566,3.5652,3.5718,3.5526,3.5493,3.5493,3.5493,3.5493,3.5493,3.5493,3.5493,3.5493,3.5493,3.5493,3.5493,3.5493,3.563,3.5703,3.5703,3.5903,3.5996,3.5996,3.5996,3.5644,3.4961,3.4029,3.3113,3.2218,3.1227,3.0674,3.0463,3.0196,2.9954,2.9822,3.0283,3.0542,3.0806,3.1657,3.1813,3.1599,3.1746,3.1302,3.0683,3.054,3.0452,3.0436,3.0641,3.0069,2.9065,2.7595,2.7695,2.802,2.7308,2.8091,2.8821,2.7991,2.7818,2.7827,2.7797,2.7181,2.6299,2.5254,2.4713,2.2928,1.8398,0.0,0.0,0.0,1.5955,1.6874,1.9388,1.969,1.969,1.969,1.969,1.969,1.969,1.8817,1.8224,1.8106,1.676,1.5664,1.4926,1.2366,1.0712,1.0064,0.9865,0.919,0.7931,0.746,0.6784,0.5949,0.5446,0.5118,0.495,0.4892,0.4918,0.4952,0.4751,0.4652,0.4691,0.4588,0.3802,0.2625,0.1453,0.0615,0.0,3.6994,3.6956,3.6934,3.6939,3.5247,3.4219,3.5281,3.8089,3.8979,3.5902,3.6147,3.6334,3.557,3.5493,3.5493,3.5493,3.5493,3.5493,3.5493,3.5493,3.5493,3.5493,3.5493,3.5493,3.5493,3.563,3.5703,3.5703,3.5903,3.5996,3.5996,3.5996,3.5976,3.5859,3.4923,3.3988,3.3056,3.2108,3.1207,3.0421,3.0379,3.0209,2.9984,3.0026,3.0397,3.0922,3.1255,3.1828,3.2348,3.1929,3.1708,3.1472,3.0733,3.0452,3.0552,3.1371,3.1372,3.0491,2.7678,2.7114,2.737,2.7664,2.7412,2.7233,2.7708,2.7374,2.7139,2.7687,2.7204,2.673,2.695,2.5635,2.3175,1.9072,0.0,0.0,1.5736,1.5524,1.6486,1.9358,1.969,1.969,1.969,1.969,1.969,1.969,1.9169,1.8612,1.8145,1.7504,1.6659,1.5588,1.3042,1.1416,1.0712,1.0115,0.9413,0.8692,0.7852,0.7425,0.7353,0.66,0.6299,0.6272,0.6113,0.623,0.6357,0.5413,0.5177,0.5382,0.4746,0.4428,0.4327,0.4222,0.2413,0.0,3.8097,3.8719,3.9255,3.925,3.8534,3.8108,3.8531,3.9687,3.9783,3.78,3.7051,3.6584,3.6276,3.5815,3.5493,3.5493,3.5493,3.5493,3.5493,3.5493,3.5493,3.5493,3.5493,3.5493,3.5493,3.563,3.5703,3.5703,3.5903,3.5996,3.5996,3.5996,3.5996,3.5957,3.4979,3.4339,3.392,3.2377,3.1534,3.116,3.0621,3.0241,3.0056,3.0609,3.0963,3.1238,3.1832,3.2034,3.1974,3.1804,3.1361,3.0833,3.0535,3.0417,3.054,3.1243,3.1837,3.1872,2.9957,2.9097,2.8663,2.8315,2.7942,2.7529,2.7153,2.688,2.6774,2.7001,2.7019,2.6841,2.6247,2.5827,2.4032,1.9429,0.0,1.9111,1.6455,1.7239,1.8561,1.9908,2.0054,2.0193,2.0481,2.0227,2.0054,2.0054,1.9325,1.8817,1.8612,1.7436,1.6391,1.5632,1.4286,1.2908,1.1373,1.0754,0.9865,0.8804,0.83,0.7891,0.7623,0.7149,0.6713,0.6294,0.6242,0.6241,0.631,0.5916,0.569,0.5487,0.5222,0.4849,0.4418,0.3802,0.2627,0.1232,3.8694,3.9656,4.0507,4.0499,4.05,4.0373,3.9986,4.0258,4.0042,3.8764,3.7732,3.7007,3.6738,3.5988,3.5493,3.5493,3.5493,3.5493,3.5493,3.5493,3.5493,3.5493,3.5493,3.5501,3.5528,3.5629,3.5717,3.5761,3.5927,3.5996,3.5996,3.5996,3.5996,3.5976,3.5212,3.4756,3.4436,3.3084,3.2381,3.2115,3.1493,3.0972,3.0631,3.1221,3.125,3.1131,3.1938,3.2004,3.1698,3.1698,3.1295,3.0756,3.0475,3.059,3.0943,3.1613,3.2067,3.2272,3.1737,3.0665,2.9564,2.8946,2.8446,2.7827,2.6822,2.6612,2.6539,2.6282,2.6467,2.6519,2.5976,2.5629,2.4372,2.1214,2.1509,2.1233,1.8613,1.9281,2.0156,2.057,2.0438,2.0483,2.0959,2.0583,2.0314,2.0314,1.9579,1.908,1.8893,1.7666,1.6676,1.6145,1.5531,1.4391,1.2647,1.1818,1.0754,0.9406,0.9249,0.8987,0.8646,0.8255,0.7801,0.7315,0.7042,0.6956,0.6971,0.6689,0.6425,0.614,0.5706,0.5105,0.4395,0.3732,0.3236,0.2635,3.8694,3.9656,4.0507,4.0502,4.0489,4.0082,3.8899,3.971,3.9948,3.8404,3.8082,3.768,3.6815,3.5993,3.5512,3.5512,3.5493,3.5493,3.5493,3.5493,3.5493,3.5493,3.5507,3.5528,3.5611,3.5671,3.5766,3.5903,3.5972,3.5996,3.5996,3.5996,3.5996,3.5996,3.5792,3.529,3.4599,3.4381,3.3891,3.3206,3.3125,3.2569,3.1786,3.173,3.116,3.0513,3.1391,3.1698,3.1698,3.1698,3.1698,3.1545,3.0679,3.1006,3.1852,3.266,3.2138,3.1541,3.2603,3.1344,2.968,2.9454,2.8742,2.7827,2.6841,2.6612,2.6355,2.5548,2.5433,2.5729,2.6533,2.505,2.3967,2.4656,2.3406,2.2331,2.2278,2.1364,2.0865,2.1265,2.0733,2.0483,2.0959,2.0583,2.0299,2.0314,1.9945,1.9479,1.893,1.8419,1.7867,1.7312,1.6731,1.5823,1.462,1.3402,1.2132,1.0813,1.0813,1.0813,1.0762,1.0115,0.9814,0.974,0.8839,0.8588,0.8725,0.771,0.7494,0.7557,0.6086,0.5093,0.4488,0.4522,0.4487,0.4098,3.8694,3.9656,4.0498,4.0501,3.9794,3.9242,3.9321,3.9534,3.9618,3.9528,3.8764,3.829,3.8497,3.7044,3.6151,3.6339,3.5834,3.5493,3.5493,3.5493,3.5493,3.5493,3.5546,3.5588,3.5611,3.5756,3.5869,3.5903,3.5917,3.595,3.5996,3.5948,3.594,3.5938,3.5873,3.5671,3.5332,3.4704,3.4309,3.4056,3.3378,3.2569,3.1786,3.173,3.116,3.0417,3.0698,3.0794,3.0794,3.0794,3.0824,3.0811,3.0559,3.1062,3.1815,3.2004,3.2218,3.2365,3.2128,3.1584,3.0858,2.9847,2.8839,2.7976,2.754,2.6557,2.5617,2.515,2.5285,2.55,2.5499,2.5406,2.5261,2.5093,2.3932,2.2948,2.2637,2.1751,2.1281,2.1724,2.1439,2.1259,2.1399,2.1039,2.0649,2.0314,1.9945,1.9479,1.893,1.8727,1.8263,1.7353,1.7133,1.6464,1.533,1.3658,1.2318,1.1423,1.1007,1.0813,1.0813,1.061,1.038,1.0197,0.9905,0.9864,0.9852,0.9069,0.865,0.8324,0.7379,0.6298,0.5206,0.5218,0.4908,0.4369,3.8696,3.9295,3.9873,4.0087,3.9463,3.8994,3.9212,3.9336,3.949,3.969,3.8886,3.8445,3.886,3.7243,3.6253,3.6511,3.5814,3.5383,3.5493,3.5398,3.5383,3.5493,3.5574,3.5611,3.5648,3.5768,3.5853,3.5945,3.5936,3.5951,3.5996,3.5951,3.5945,3.5942,3.591,3.5877,3.5791,3.5261,3.5056,3.4993,3.4384,3.3594,3.2745,3.2328,3.166,3.0871,3.0513,3.0398,3.0398,3.0398,3.0451,3.0507,3.0529,3.0881,3.1352,3.1658,3.1823,3.1891,3.1737,3.1448,3.0983,3.006,2.9264,2.8577,2.7951,2.7034,2.6112,2.5266,2.5309,2.5456,2.523,2.5372,2.5507,2.5529,2.4738,2.4022,2.3736,2.2954,2.2528,2.2808,2.2457,2.2247,2.2437,2.1795,2.1082,2.0364,1.9945,1.9566,1.9244,1.9006,1.8496,1.7626,1.7435,1.6883,1.5952,1.4596,1.346,1.2503,1.1913,1.1633,1.1642,1.1316,1.1096,1.0931,1.0687,1.054,1.054,1.0105,0.9619,0.9058,0.8389,0.7379,0.6357,0.6032,0.55,0.4853,3.8692,3.8699,3.8861,3.9411,3.9383,3.9132,3.8755,3.9158,3.9432,3.9152,3.8658,3.8357,3.8403,3.7027,3.6151,3.6349,3.5567,3.519,3.5446,3.5242,3.5223,3.5493,3.555,3.5621,3.5703,3.571,3.5806,3.5996,3.5996,3.5996,3.5996,3.5996,3.5996,3.5996,3.5921,3.5945,3.5995,3.5921,3.5907,3.5896,3.5761,3.5138,3.4206,3.3338,3.2506,3.1698,3.0833,3.0513,3.0506,3.0441,3.0462,3.0516,3.0568,3.0559,3.0653,3.1429,3.1069,3.0571,3.1371,3.1006,3.0343,3.0075,2.9861,2.94,2.8218,2.7886,2.7408,2.5876,2.5618,2.5614,2.5561,2.5241,2.5188,2.5898,2.554,2.5205,2.5102,2.4601,2.4184,2.4042,2.3503,2.3262,2.3553,2.2597,2.15,2.0435,2.0,1.975,1.969,1.9207,1.865,1.8145,1.7585,1.7034,1.6522,1.5908,1.5039,1.3862,1.3286,1.2978,1.2881,1.2187,1.1913,1.1864,1.1266,1.0973,1.0965,1.0922,1.0517,0.9806,0.911,0.833,0.7616,0.6966,0.6199,0.5429,3.8692,3.8699,3.8745,3.8861,3.8842,3.8792,3.8722,3.8826,3.8923,3.9072,3.8813,3.8785,3.9265,3.8214,3.7304,3.6965,3.5606,3.4908,3.5174,3.5122,3.5223,3.5493,3.5515,3.5577,3.5703,3.5802,3.5893,3.5996,3.5947,3.5948,3.5996,3.5947,3.5916,3.5916,3.5951,3.595,3.5918,3.5951,3.5947,3.5896,3.5761,3.5138,3.4265,3.4012,3.3391,3.2526,3.1718,3.1429,3.1306,3.0694,3.05,3.0507,3.0532,3.0496,3.0539,3.0662,3.0568,3.0436,3.0641,3.0533,3.0343,3.0075,2.9969,2.9772,2.9191,2.8532,2.7818,2.7055,2.6874,2.6665,2.6149,2.6085,2.6083,2.5999,2.554,2.499,2.4409,2.4515,2.433,2.3351,2.3428,2.3315,2.2656,2.2079,2.144,2.0677,2.052,2.0258,1.972,1.9207,1.865,1.8145,1.7585,1.7034,1.6522,1.5908,1.5231,1.4525,1.3873,1.3372,1.2881,1.2715,1.2666,1.2666,1.251,1.2461,1.2412,1.1823,1.1166,1.0517,0.985,0.8817,0.767,0.7509,0.6632,0.5378,3.8689,3.8709,3.8709,3.8709,3.8709,3.8707,3.8701,3.8707,3.8732,3.8894,3.8773,3.8822,3.9127,3.8285,3.7328,3.6433,3.5199,3.4655,3.507,3.4981,3.5088,3.5493,3.5493,3.5546,3.5646,3.5749,3.5864,3.5996,3.5953,3.5972,3.5996,3.5953,3.5947,3.5948,3.5976,3.6209,3.6534,3.6151,3.6205,3.6466,3.5917,3.5391,3.4865,3.4378,3.3942,3.3512,3.3117,3.2993,3.2868,3.1981,3.1438,3.105,3.0673,3.0521,3.049,3.0452,3.0428,3.0398,3.0398,3.0398,3.0367,3.0241,3.0196,3.0052,2.9513,2.9058,2.8511,2.7693,2.7659,2.7536,2.6819,2.6953,2.7106,2.6918,2.6522,2.5947,2.5196,2.5463,2.5139,2.3695,2.4297,2.4452,2.3578,2.312,2.2592,2.1889,2.1122,2.0557,2.0198,1.9104,1.838,1.8106,1.7353,1.6795,1.6522,1.6194,1.5732,1.5096,1.4236,1.3457,1.2881,1.2881,1.2881,1.2881,1.2881,1.2881,1.2881,1.2501,1.1931,1.1216,1.0517,0.9644,0.8666,0.8362,0.7283,0.5928,3.8707,3.8707,3.8707,3.8707,3.8707,3.8707,3.8707,3.8707,3.8707,3.8707,3.8707,3.8707,3.8707,3.7973,3.7016,3.5732,3.4829,3.4532,3.4999,3.4813,3.4944,3.5479,3.5515,3.5534,3.5611,3.5671,3.5792,3.5976,3.5996,3.5996,3.5996,3.5996,3.5996,3.5996,3.5996,3.6406,3.7031,3.6309,3.6381,3.6914,3.6064,3.5687,3.5534,3.4751,3.4483,3.4526,3.4447,3.4214,3.3838,3.3045,3.2242,3.1468,3.094,3.0657,3.051,3.0665,3.0557,3.0398,3.0398,3.0398,3.0398,3.0398,3.0398,3.0247,2.9626,2.9493,2.9187,2.8184,2.8275,2.8272,2.7536,2.7736,2.7982,2.7897,2.756,2.7026,2.6281,2.639,2.5914,2.4296,2.4991,2.5334,2.4644,2.4303,2.3808,2.309,2.1712,2.0833,2.0718,1.9063,1.8108,1.8098,1.7086,1.6522,1.6522,1.6522,1.6194,1.5588,1.4584,1.3732,1.3065,1.3065,1.3017,1.2881,1.2881,1.2881,1.2881,1.2881,1.2452,1.1765,1.1166,1.0517,0.971,0.8896,0.783,0.6696,3.8707,3.8707,3.8707,3.8707,3.8707,3.8707,3.8707,3.8707,3.8707,3.8707,3.8707,3.8707,3.8707,3.7973,3.714,3.6278,3.5386,3.4847,3.4771,3.4714,3.4944,3.5479,3.557,3.559,3.5611,3.5671,3.5772,3.591,3.5973,3.5996,3.5996,3.5996,3.5996,3.5996,3.5996,3.6074,3.6172,3.6055,3.603,3.6059,3.5935,3.5797,3.5663,3.5558,3.55,3.5417,3.4724,3.3468,3.2115,3.1934,3.1299,3.0714,3.1341,3.1033,3.0548,3.1318,3.0999,3.0398,3.0398,3.0398,3.0398,3.0398,3.0398,3.0311,2.9984,2.978,2.9514,2.8964,2.8879,2.8779,2.8327,2.8296,2.8237,2.7954,2.756,2.7026,2.6281,2.5962,2.5347,2.4232,2.3986,2.3876,2.3785,2.3701,2.3402,2.2808,2.2014,2.1332,2.0732,1.9037,1.8113,1.8193,1.7106,1.6522,1.6522,1.6522,1.6194,1.5588,1.5443,1.4767,1.3684,1.3684,1.3372,1.2881,1.2881,1.2881,1.2881,1.2881,1.2452,1.1814,1.1715,1.0914,0.9658,0.8355,0.7723,0.745,3.8799,3.8707,3.8707,3.8707,3.8707,3.8707,3.8707,3.8707,3.8707,3.8707,3.8707,3.8707,3.8707,3.7973,3.7379,3.6982,3.5947,3.5311,3.5369,3.5097,3.5105,3.5493,3.5534,3.5534,3.5534,3.5611,3.5682,3.5721,3.5807,3.5838,3.5838,3.5838,3.5838,3.5838,3.5838,3.6144,3.665,3.6142,3.623,3.6633,3.6108,3.5869,3.5802,3.5723,3.5755,3.5821,3.5872,3.5371,3.4548,3.345,3.2526,3.1698,3.116,3.0717,3.0475,3.0871,3.0698,3.0398,3.0398,3.0398,3.0398,3.0398,3.0775,3.0893,3.0022,3.0141,3.0208,2.9384,2.9112,2.8952,2.8773,2.8749,2.87,2.8533,2.802,2.7403,2.663,2.6344,2.6068,2.5624,2.518,2.495,2.495,2.4672,2.4265,2.3677,2.2798,2.2137,2.1818,2.0104,1.9112,1.9128,1.8048,1.7313,1.6999,1.6999,1.6691,1.6095,1.6095,1.5466,1.4283,1.4283,1.3967,1.342,1.342,1.319,1.2881,1.2881,1.2715,1.2344,1.1972,1.0965,0.971,0.9086,0.8349,0.767]}]]